[[{"header":{"parameterUnit":"m.s-1","parameterCategory":1,"la1":31.0,"la2":29.5877,"lo1":-88.7671,"lo2":-86.6584,"dy":0.0162,"dx":0.0185,"nx":115,"ny":88,"refTime":"2024-07-27T12:00:00:Z","depth":0,"parameterNumber":2,"parameterNumberName":"U-component_of_WINDS"},"data":[0.0,0.0,0.0,0.0,0.0,0.0,0.0,0.0,0.0,0.0,0.0,0.0,0.0,0.0,0.0,0.0,0.0,0.0,0.0,0.0,0.0,0.0,0.0,0.0,0.0,0.0,0.0,0.0,0.0,0.0,0.0,0.0,0.0,0.0,0.0,0.0,0.0,0.0,0.0,0.0,0.0,0.0,0.0,0.0,0.0,0.0,0.0,0.0,0.0,0.0,0.0,0.0,0.0,0.0,0.0,0.0,0.0,0.0,0.0,0.0,0.0,0.0,0.0,0.0,0.0,0.0,0.0,0.0,0.0,0.0,0.0,0.0,0.0,0.0,0.0,0.0,0.0,0.0,0.0,0.0,0.0,0.0,0.0,0.0,0.0,0.0,0.0,0.0,0.0,0.0,0.0,0.0,0.0,0.0,0.0,0.0,0.0,0.0,0.0,0.0,0.0,0.0,0.0,0.0,0.0,0.0,0.0,0.0,0.0,0.0,0.0,0.0,0.0,0.0,0.0,0.0,0.0,0.0,0.0,0.0,0.0,0.0,0.0,0.0,0.0,0.0,0.0,0.0,0.0,0.0,0.0,0.0,0.0,0.0,0.0,0.0,0.0,0.0,0.0,0.0,0.0,0.0,0.0,0.0,0.0,0.0,0.0,0.0,0.0,0.0,0.0,0.0,0.0,0.0,0.0,0.0,0.0,0.0,0.0,0.0,0.0,0.0,0.0,0.0,0.0,0.0,0.0,0.0,0.0,0.0,0.0,0.0,0.0,0.0,0.0,0.0,0.0,0.0,0.0,0.0,0.0,0.0,0.0,0.0,0.0,0.0,0.0,0.0,0.0,0.0,0.0,0.0,0.0,0.0,0.0,0.0,0.0,0.0,0.0,0.0,0.0,0.0,0.0,0.0,0.0,0.0,0.0,0.0,0.0,0.0,0.0,0.0,0.0,0.0,0.0,0.0,0.0,0.0,0.0,0.0,0.0,0.0,0.0,0.0,0.0,0.0,0.0,0.0,0.0,0.0,0.0,0.0,0.0,0.0,0.0,0.0,0.0,0.0,0.0,0.0,0.0,0.0,0.0,0.0,0.0,0.0,0.0,0.0,0.0,0.0,0.0,0.0,0.0,0.0,0.0,0.0,0.0,0.0,0.0,0.0,0.0,0.0,0.0,0.0,0.0,0.0,0.0,0.0,0.0,0.0,0.0,0.0,0.0,0.0,0.0,0.0,0.0,0.0,0.0,0.0,0.0,0.0,0.0,0.0,0.0,0.0,0.0,0.0,0.0,0.0,0.0,0.0,0.0,0.0,0.0,0.0,0.0,0.0,0.0,0.0,0.0,0.0,0.0,0.0,0.0,0.0,0.0,0.0,0.0,0.0,0.0,0.0,0.0,0.0,0.0,0.0,0.0,0.0,0.0,0.0,0.0,0.0,0.0,0.0,0.0,0.0,0.0,0.0,0.0,0.0,0.0,0.0,0.0,0.0,0.0,0.0,0.0,0.0,0.0,0.0,0.0,0.0,0.0,0.0,0.0,0.0,0.0,0.0,0.0,0.0,0.0,0.0,0.0,0.0,0.0,0.0,0.0,0.0,0.0,0.0,0.0,0.0,0.0,0.0,0.0,0.0,0.0,0.0,0.0,0.0,0.0,0.0,0.0,0.0,0.0,0.0,0.0,0.0,0.0,0.0,0.0,0.0,0.0,0.0,0.0,0.0,0.0,0.0,0.0,0.0,0.0,0.0,0.0,0.0,0.0,0.0,0.0,0.0,0.0,0.0,0.0,0.0,0.0,0.0,0.0,0.0,0.0,0.0,0.0,0.0,0.0,0.0,0.0,0.0,0.0,0.0,0.0,0.0,0.0,0.0,0.0,0.0,0.0,0.0,0.0,0.0,0.0,0.0,0.0,0.0,0.0,0.0,0.0,0.0,0.0,0.0,0.0,0.0,0.0,0.0,0.0,0.0,0.0,0.0,0.0,0.0,0.0,0.0,0.0,0.0,0.0,0.0,0.0,0.0,0.0,0.0,0.0,0.0,0.0,0.0,0.0,0.0,0.0,0.0,0.0,0.0,0.0,0.0,0.0,0.0,0.0,0.0,0.0,0.0,0.0,0.0,0.0,0.0,0.0,0.0,0.0,0.0,0.0,0.0,0.0,0.0,0.0,0.0,0.0,0.0,0.0,0.0,0.0,0.0,0.0,0.0,0.0,0.0,0.0,0.0,0.0,0.0,0.0,0.0,0.0,0.0,0.0,0.0,0.0,0.0,0.0,0.0,0.0,0.0,0.0,0.0,0.0,0.0,0.0,0.0,0.0,0.0,0.0,0.0,0.0,0.0,0.0,0.0,0.0,0.0,0.0,0.0,0.0,0.0,0.0,0.0,0.0,0.0,0.0,0.0,0.0,0.0,0.0,0.0,0.0,0.0,0.0,0.0,0.0,0.0,0.0,0.0,0.0,0.0,0.0,0.0,0.0,0.0,0.0,0.0,0.0,0.0,0.0,0.0,0.0,0.0,0.0,0.0,0.0,0.0,0.0,0.0,0.0,0.0,0.0,0.0,0.0,0.0,0.0,0.0,0.0,0.0,0.0,0.0,0.0,0.0,0.0,0.0,0.0,0.0,0.0,0.0,0.0,0.0,0.0,0.0,0.0,0.0,0.0,0.0,0.0,0.0,0.0,0.0,0.0,0.0,0.0,0.0,0.0,0.0,0.0,0.0,0.0,0.0,0.0,0.0,0.0,0.0,0.0,0.0,0.0,0.0,0.0,0.0,0.0,0.0,0.0,0.0,0.0,0.0,0.0,0.0,0.0,0.0,0.0,0.0,0.0,0.0,0.0,0.0,0.0,0.0,0.0,0.0,0.0,0.0,0.0,0.0,0.0,0.0,0.0,0.0,0.0,0.0,0.0,0.0,0.0,0.0,0.0,0.0,0.0,0.0,0.0,0.0,0.0,0.0,0.0,0.0,0.0,0.0,0.0,0.0,0.0,0.0,0.0,0.0,0.0,0.0,0.0,0.0,0.0,0.0,0.0,0.0,0.0,0.0,0.0,0.0,0.0,0.0,0.0,0.0,0.0,0.0,0.0,0.0,0.0,0.0,0.0,0.0,0.0,0.0,0.0,0.0,0.0,0.0,0.0,0.0,0.0,0.0,0.0,0.0,0.0,0.0,0.0,0.0,0.0,0.0,0.0,0.0,0.0,0.0,0.0,0.0,0.0,0.0,0.0,0.0,0.0,0.0,0.0,0.0,0.0,0.0,0.0,0.0,0.0,0.0,0.0,0.0,0.0,0.0,0.0,0.0,0.0,0.0,0.0,0.0,0.0,0.0,0.0,0.0,0.0,0.0,0.0,0.0,0.0,0.0,0.0,0.0,0.0,0.0,0.0,0.0,0.0,0.0,0.0,0.0,0.0,0.0,0.0,0.0,0.0,0.0,0.0,0.0,0.0,0.0,0.0,0.0,0.0,0.0,0.0,0.0,0.0,0.0,0.0,0.0,0.0,0.0,0.0,0.0,0.0,0.0,0.0,0.0,0.0,0.0,0.0,0.0,0.0,0.0,0.0,0.0,0.0,0.0,0.0,0.0,0.0,0.0,0.0,0.0,0.0,0.0,0.0,0.0,0.0,0.0,0.0,0.0,0.0,0.0,0.0,0.0,0.0,0.0,0.0,0.0,0.0,0.0,0.0,0.0,0.0,0.0,0.0,0.0,0.0,0.0,0.0,0.0,0.0,0.0,0.0,0.0,0.0,0.0,0.0,0.0,0.0,0.0,0.0,0.0,0.0,0.0,0.0,0.0,0.0,0.0,0.0,0.0,0.0,0.0,0.0,0.0,0.0,0.0,0.0,0.0,0.0,0.0,0.0,0.0,0.0,0.0,0.0,0.0,0.0,0.0,0.0,0.0,0.0,0.0,0.0,0.0,0.0,0.0,0.0,0.0,0.0,0.0,0.0,0.0,0.0,0.0,0.0,0.0,0.0,0.0,0.0,0.0,0.0,0.0,0.0,0.0,0.0,0.0,0.0,0.0,0.0,0.0,0.0,0.0,0.0,0.0,0.0,0.0,0.0,0.0,0.0,0.0,0.0,0.0,0.0,0.0,0.0,0.0,0.0,0.0,0.0,0.0,0.0,0.0,0.0,0.0,0.0,0.0,0.0,0.0,0.0,0.0,0.0,0.0,0.0,0.0,0.0,0.0,0.0,0.0,0.0,0.0,0.0,0.0,0.0,0.0,0.0,0.0,0.0,0.0,0.0,0.0,0.0,0.0,0.0,0.0,0.0,0.0,-2.3624,0.0,0.0,0.0,0.0,0.0,0.0,0.0,0.0,0.0,0.0,0.0,0.0,0.0,0.0,0.0,0.0,0.0,0.0,0.0,0.0,0.0,0.0,0.0,0.0,0.0,0.0,0.0,0.0,0.0,0.0,0.0,0.0,0.0,0.0,0.0,0.0,0.0,0.0,0.0,0.0,0.0,0.0,0.0,0.0,0.0,0.0,0.0,0.0,0.0,0.0,0.0,0.0,0.0,0.0,0.0,0.0,0.0,0.0,0.0,0.0,0.0,0.0,0.0,0.0,0.0,0.0,0.0,0.0,0.0,0.0,0.0,0.0,0.0,0.0,0.0,0.0,0.0,0.0,0.0,0.0,0.0,0.0,0.0,0.0,0.0,0.0,0.0,0.0,0.0,0.0,0.0,0.0,0.0,0.0,0.0,0.0,0.0,0.0,0.0,0.0,0.0,0.0,0.0,0.0,0.0,0.0,0.0,0.0,0.0,0.0,-2.3124,-2.2525,-2.3243,-2.3473,-2.3177,0.0,0.0,0.0,0.0,0.0,0.0,0.0,0.0,0.0,0.0,0.0,0.0,0.0,0.0,0.0,0.0,0.0,0.0,0.0,0.0,0.0,0.0,0.0,0.0,0.0,0.0,0.0,0.0,0.0,0.0,0.0,0.0,0.0,0.0,0.0,0.0,0.0,0.0,0.0,0.0,0.0,0.0,0.0,0.0,0.0,0.0,0.0,0.0,0.0,0.0,0.0,0.0,0.0,0.0,0.0,0.0,0.0,0.0,0.0,0.0,0.0,0.0,0.0,0.0,0.0,0.0,0.0,0.0,0.0,0.0,0.0,0.0,0.0,0.0,0.0,0.0,0.0,0.0,0.0,0.0,0.0,0.0,0.0,0.0,0.0,0.0,0.0,0.0,0.0,0.0,0.0,0.0,0.0,0.0,0.0,0.0,0.0,0.0,0.0,0.0,0.0,0.0,0.0,0.0,0.0,0.0,0.0,0.0,0.0,0.0,0.0,0.0,-2.4037,-2.4322,-2.3862,0.0,0.0,0.0,0.0,0.0,0.0,0.0,0.0,0.0,0.0,0.0,0.0,0.0,0.0,0.0,0.0,0.0,0.0,0.0,0.0,0.0,0.0,0.0,0.0,0.0,0.0,0.0,0.0,0.0,0.0,0.0,0.0,0.0,0.0,0.0,0.0,0.0,0.0,0.0,0.0,0.0,0.0,0.0,0.0,0.0,0.0,0.0,0.0,0.0,0.0,0.0,0.0,0.0,0.0,0.0,0.0,0.0,0.0,0.0,0.0,0.0,0.0,0.0,0.0,0.0,0.0,0.0,0.0,0.0,0.0,0.0,0.0,0.0,0.0,0.0,0.0,0.0,0.0,0.0,0.0,0.0,0.0,0.0,0.0,0.0,0.0,0.0,0.0,0.0,0.0,0.0,0.0,0.0,0.0,0.0,0.0,0.0,0.0,0.0,0.0,0.0,0.0,0.0,0.0,0.0,0.0,0.0,0.0,0.0,0.0,-2.4678,-2.5304,-2.7095,0.0,-2.7246,0.0,0.0,0.0,0.0,0.0,0.0,0.0,0.0,0.0,0.0,0.0,0.0,0.0,0.0,0.0,0.0,0.0,0.0,0.0,0.0,0.0,0.0,0.0,0.0,0.0,0.0,0.0,0.0,0.0,0.0,0.0,0.0,0.0,0.0,0.0,0.0,0.0,0.0,0.0,0.0,0.0,0.0,0.0,0.0,0.0,0.0,0.0,0.0,0.0,0.0,0.0,0.0,0.0,0.0,0.0,0.0,0.0,0.0,0.0,0.0,0.0,0.0,0.0,0.0,0.0,0.0,0.0,0.0,0.0,0.0,0.0,0.0,0.0,0.0,0.0,0.0,0.0,0.0,0.0,0.0,0.0,0.0,0.0,0.0,0.0,0.0,0.0,0.0,0.0,0.0,0.0,0.0,0.0,0.0,0.0,0.0,0.0,0.0,0.0,0.0,0.0,0.0,0.0,0.0,0.0,0.0,0.0,0.0,0.0,0.0,0.0,-2.5609,-2.6894,-2.7583,0.0,0.0,0.0,0.0,0.0,0.0,0.0,0.0,0.0,0.0,0.0,0.0,0.0,0.0,0.0,0.0,0.0,0.0,0.0,0.0,0.0,0.0,0.0,0.0,0.0,0.0,0.0,0.0,0.0,0.0,0.0,0.0,0.0,0.0,0.0,0.0,0.0,0.0,0.0,0.0,0.0,0.0,0.0,0.0,0.0,0.0,0.0,0.0,0.0,0.0,0.0,0.0,0.0,0.0,0.0,0.0,0.0,0.0,0.0,0.0,0.0,0.0,0.0,0.0,0.0,0.0,0.0,0.0,0.0,0.0,0.0,0.0,0.0,0.0,0.0,0.0,0.0,0.0,0.0,0.0,0.0,0.0,0.0,0.0,0.0,0.0,0.0,0.0,0.0,0.0,0.0,0.0,0.0,0.0,0.0,0.0,0.0,0.0,0.0,0.0,0.0,0.0,0.0,0.0,0.0,0.0,0.0,0.0,0.0,0.0,-2.6051,0.0,-2.7407,-2.8183,-2.8356,-2.7851,0.0,0.0,0.0,0.0,0.0,0.0,0.0,0.0,0.0,0.0,0.0,0.0,0.0,0.0,0.0,0.0,0.0,0.0,0.0,0.0,0.0,0.0,0.0,0.0,0.0,0.0,0.0,0.0,0.0,0.0,0.0,0.0,0.0,0.0,0.0,0.0,0.0,0.0,0.0,0.0,0.0,0.0,0.0,0.0,0.0,0.0,0.0,0.0,0.0,0.0,0.0,0.0,0.0,0.0,0.0,0.0,0.0,0.0,0.0,0.0,0.0,0.0,0.0,0.0,0.0,0.0,0.0,0.0,0.0,0.0,0.0,0.0,0.0,0.0,0.0,0.0,0.0,0.0,0.0,0.0,0.0,0.0,0.0,0.0,0.0,0.0,0.0,0.0,0.0,0.0,0.0,0.0,0.0,0.0,0.0,0.0,0.0,0.0,0.0,0.0,0.0,0.0,0.0,0.0,0.0,0.0,0.0,0.0,0.0,-2.8084,-2.8853,-3.1657,-3.2455,-3.1409,0.0,0.0,0.0,0.0,0.0,0.0,0.0,0.0,0.0,0.0,0.0,0.0,0.0,0.0,0.0,0.0,0.0,0.0,0.0,0.0,0.0,0.0,0.0,0.0,0.0,0.0,0.0,0.0,0.0,0.0,0.0,0.0,0.0,0.0,0.0,0.0,0.0,0.0,0.0,0.0,0.0,0.0,0.0,0.0,0.0,0.0,0.0,0.0,0.0,0.0,0.0,0.0,0.0,0.0,0.0,0.0,0.0,0.0,0.0,0.0,0.0,0.0,0.0,0.0,0.0,0.0,0.0,0.0,0.0,0.0,0.0,0.0,0.0,0.0,0.0,0.0,0.0,0.0,0.0,0.0,0.0,0.0,0.0,0.0,0.0,0.0,0.0,0.0,0.0,0.0,0.0,0.0,0.0,0.0,0.0,0.0,0.0,0.0,0.0,0.0,0.0,0.0,0.0,0.0,0.0,0.0,0.0,0.0,0.0,-2.597,-2.7619,-3.0374,0.0,-3.1721,-3.0309,0.0,0.0,0.0,0.0,0.0,0.0,0.0,0.0,0.0,0.0,0.0,0.0,0.0,0.0,0.0,0.0,0.0,0.0,0.0,0.0,0.0,0.0,0.0,0.0,0.0,0.0,0.0,0.0,0.0,0.0,0.0,0.0,0.0,0.0,0.0,0.0,0.0,0.0,0.0,0.0,0.0,0.0,0.0,0.0,0.0,0.0,0.0,0.0,0.0,0.0,0.0,0.0,0.0,0.0,0.0,0.0,0.0,0.0,0.0,0.0,0.0,0.0,0.0,0.0,0.0,0.0,0.0,0.0,0.0,0.0,0.0,0.0,0.0,0.0,0.0,0.0,0.0,0.0,0.0,0.0,0.0,0.0,0.0,0.0,0.0,0.0,0.0,0.0,0.0,0.0,0.0,0.0,0.0,0.0,0.0,0.0,0.0,0.0,0.0,0.0,0.0,0.0,0.0,0.0,0.0,0.0,0.0,0.0,0.0,-2.6381,0.0,-3.2711,0.0,-3.1856,-3.0132,0.0,0.0,0.0,0.0,0.0,0.0,0.0,0.0,0.0,0.0,0.0,0.0,0.0,0.0,0.0,0.0,0.0,0.0,0.0,0.0,0.0,0.0,0.0,0.0,0.0,0.0,0.0,0.0,0.0,0.0,0.0,0.0,0.0,0.0,0.0,0.0,0.0,0.0,0.0,0.0,0.0,0.0,0.0,0.0,0.0,0.0,0.0,0.0,0.0,0.0,0.0,0.0,0.0,0.0,0.0,0.0,0.0,0.0,0.0,0.0,0.0,0.0,0.0,0.0,0.0,0.0,0.0,0.0,0.0,0.0,0.0,0.0,0.0,0.0,0.0,0.0,0.0,0.0,0.0,0.0,0.0,0.0,0.0,0.0,0.0,0.0,0.0,0.0,0.0,0.0,0.0,0.0,0.0,0.0,0.0,0.0,0.0,0.0,0.0,0.0,0.0,0.0,0.0,0.0,0.0,0.0,0.0,0.0,-2.5586,-3.1136,-3.4914,-3.5603,-3.3287,-3.3314,-3.1145,0.0,0.0,0.0,0.0,0.0,0.0,0.0,0.0,0.0,0.0,0.0,0.0,0.0,0.0,0.0,0.0,0.0,0.0,0.0,0.0,0.0,0.0,0.0,0.0,0.0,0.0,0.0,0.0,0.0,0.0,0.0,0.0,0.0,0.0,0.0,0.0,0.0,0.0,0.0,0.0,0.0,0.0,0.0,0.0,0.0,0.0,0.0,0.0,0.0,0.0,0.0,0.0,0.0,0.0,0.0,0.0,0.0,0.0,0.0,0.0,0.0,0.0,0.0,0.0,0.0,0.0,0.0,0.0,0.0,0.0,0.0,0.0,0.0,0.0,0.0,0.0,0.0,0.0,0.0,0.0,0.0,0.0,0.0,0.0,0.0,0.0,0.0,0.0,0.0,0.0,0.0,0.0,0.0,0.0,0.0,0.0,0.0,0.0,0.0,0.0,0.0,0.0,0.0,0.0,0.0,0.0,0.0,0.0,0.0,-3.0814,-3.2939,-3.4633,-3.5691,-3.2847,-3.0838,0.0,0.0,0.0,0.0,0.0,0.0,0.0,0.0,0.0,0.0,0.0,0.0,0.0,0.0,0.0,0.0,0.0,0.0,0.0,0.0,0.0,0.0,0.0,0.0,0.0,0.0,0.0,0.0,0.0,0.0,0.0,0.0,0.0,0.0,0.0,0.0,0.0,0.0,0.0,0.0,0.0,0.0,0.0,0.0,0.0,0.0,0.0,0.0,0.0,0.0,0.0,0.0,0.0,0.0,0.0,0.0,0.0,0.0,0.0,0.0,0.0,0.0,0.0,0.0,0.0,0.0,0.0,0.0,0.0,0.0,0.0,0.0,0.0,0.0,0.0,0.0,0.0,0.0,0.0,0.0,0.0,0.0,0.0,0.0,0.0,0.0,0.0,0.0,0.0,0.0,0.0,0.0,0.0,0.0,0.0,0.0,0.0,0.0,0.0,0.0,0.0,0.0,0.0,0.0,0.0,0.0,0.0,0.0,0.0,-3.2449,-3.3957,-3.5286,-3.6475,-3.3183,-3.1039,-3.0315,0.0,0.0,0.0,0.0,0.0,0.0,0.0,0.0,0.0,0.0,0.0,0.0,0.0,0.0,0.0,0.0,0.0,0.0,0.0,0.0,0.0,0.0,0.0,0.0,0.0,0.0,0.0,0.0,0.0,0.0,0.0,0.0,0.0,0.0,0.0,0.0,0.0,0.0,0.0,0.0,0.0,0.0,0.0,0.0,0.0,0.0,0.0,0.0,0.0,0.0,0.0,0.0,0.0,0.0,0.0,0.0,0.0,0.0,0.0,0.0,0.0,0.0,0.0,0.0,0.0,0.0,0.0,0.0,0.0,0.0,0.0,0.0,0.0,0.0,0.0,0.0,0.0,0.0,0.0,0.0,0.0,0.0,0.0,0.0,0.0,0.0,0.0,0.0,0.0,0.0,0.0,0.0,0.0,0.0,0.0,0.0,0.0,0.0,0.0,0.0,0.0,0.0,0.0,0.0,0.0,0.0,0.0,0.0,-3.5311,-3.7263,-3.7418,-3.5725,-3.4189,-3.1805,0.0,0.0,0.0,0.0,0.0,0.0,0.0,0.0,0.0,0.0,0.0,0.0,0.0,0.0,0.0,0.0,0.0,0.0,0.0,0.0,0.0,0.0,0.0,0.0,0.0,0.0,0.0,0.0,0.0,0.0,0.0,0.0,0.0,0.0,0.0,0.0,0.0,0.0,0.0,0.0,0.0,0.0,0.0,0.0,0.0,0.0,0.0,0.0,0.0,0.0,0.0,0.0,0.0,0.0,0.0,0.0,0.0,0.0,0.0,0.0,0.0,0.0,0.0,0.0,0.0,0.0,0.0,0.0,0.0,0.0,0.0,0.0,0.0,0.0,0.0,0.0,0.0,0.0,0.0,0.0,0.0,0.0,0.0,0.0,0.0,0.0,0.0,0.0,0.0,0.0,0.0,0.0,0.0,0.0,0.0,0.0,0.0,0.0,0.0,0.0,0.0,0.0,0.0,0.0,0.0,0.0,0.0,0.0,0.0,-3.3291,-3.5793,-3.718,-3.7199,-3.4946,-3.2711,0.0,0.0,0.0,0.0,0.0,0.0,0.0,0.0,0.0,0.0,0.0,0.0,0.0,0.0,0.0,0.0,0.0,0.0,0.0,0.0,0.0,0.0,0.0,0.0,0.0,0.0,0.0,0.0,0.0,0.0,0.0,0.0,0.0,0.0,0.0,0.0,0.0,0.0,0.0,0.0,0.0,0.0,0.0,0.0,0.0,0.0,0.0,0.0,0.0,0.0,0.0,0.0,0.0,0.0,0.0,0.0,0.0,0.0,0.0,0.0,0.0,0.0,0.0,0.0,0.0,0.0,0.0,0.0,0.0,0.0,0.0,0.0,0.0,0.0,0.0,0.0,0.0,0.0,0.0,0.0,0.0,0.0,0.0,0.0,0.0,0.0,0.0,0.0,0.0,0.0,0.0,0.0,0.0,0.0,0.0,0.0,0.0,0.0,0.0,0.0,0.0,0.0,0.0,0.0,0.0,0.0,0.0,0.0,-3.2255,-3.3899,-3.5261,-3.6281,-3.6885,-3.5329,-3.3331,0.0,0.0,0.0,0.0,0.0,0.0,0.0,0.0,0.0,0.0,0.0,0.0,0.0,0.0,0.0,0.0,0.0,0.0,0.0,0.0,0.0,0.0,0.0,0.0,0.0,0.0,0.0,0.0,0.0,0.0,0.0,0.0,0.0,0.0,0.0,0.0,0.0,0.0,0.0,0.0,0.0,0.0,0.0,0.0,0.0,0.0,0.0,0.0,0.0,0.0,0.0,0.0,0.0,0.0,0.0,0.0,0.0,0.0,0.0,0.0,0.0,0.0,0.0,0.0,0.0,0.0,0.0,0.0,0.0,0.0,0.0,0.0,0.0,0.0,0.0,0.0,0.0,0.0,0.0,0.0,0.0,0.0,0.0,0.0,0.0,0.0,0.0,0.0,0.0,0.0,0.0,0.0,0.0,0.0,0.0,0.0,0.0,0.0,0.0,0.0,0.0,0.0,0.0,0.0,0.0,0.0,0.0,0.0,-3.333,-3.5337,-3.5096,-3.5034,-3.5292,-3.522,-3.3679,0.0,0.0,0.0,0.0,0.0,0.0,0.0,0.0,0.0,0.0,0.0,0.0,0.0,0.0,0.0,0.0,0.0,0.0,0.0,0.0,0.0,0.0,0.0,0.0,0.0,0.0,0.0,0.0,0.0,0.0,0.0,0.0,0.0,0.0,0.0,0.0,0.0,0.0,0.0,0.0,0.0,0.0,0.0,0.0,0.0,0.0,0.0,0.0,0.0,0.0,0.0,0.0,0.0,0.0,0.0,0.0,0.0,0.0,0.0,0.0,0.0,0.0,0.0,0.0,0.0,0.0,0.0,0.0,0.0,0.0,0.0,0.0,0.0,0.0,0.0,0.0,0.0,0.0,0.0,0.0,0.0,0.0,0.0,0.0,0.0,0.0,0.0,0.0,0.0,0.0,0.0,0.0,0.0,0.0,0.0,0.0,0.0,0.0,0.0,0.0,0.0,0.0,0.0,0.0,0.0,0.0,0.0,0.0,-3.2026,-3.2278,-3.3694,-3.43,-3.4002,-3.3785,-3.2966,0.0,0.0,0.0,0.0,0.0,0.0,0.0,0.0,0.0,0.0,0.0,0.0,0.0,0.0,0.0,0.0,0.0,0.0,0.0,0.0,0.0,0.0,0.0,0.0,0.0,0.0,0.0,0.0,0.0,0.0,0.0,0.0,0.0,0.0,0.0,0.0,0.0,0.0,0.0,0.0,0.0,0.0,0.0,0.0,0.0,0.0,0.0,0.0,-3.0005,0.0,0.0,0.0,0.0,0.0,0.0,0.0,0.0,0.0,0.0,0.0,0.0,0.0,0.0,0.0,0.0,0.0,0.0,0.0,0.0,0.0,0.0,0.0,0.0,0.0,0.0,0.0,0.0,0.0,0.0,0.0,0.0,0.0,0.0,0.0,0.0,0.0,0.0,0.0,0.0,0.0,0.0,0.0,0.0,0.0,0.0,0.0,0.0,0.0,0.0,0.0,0.0,0.0,0.0,0.0,0.0,0.0,0.0,0.0,-3.0277,-3.1054,-3.2159,-3.3019,-3.3547,-3.3347,-3.2584,0.0,0.0,0.0,0.0,0.0,0.0,0.0,0.0,0.0,0.0,0.0,0.0,0.0,0.0,0.0,0.0,0.0,0.0,0.0,0.0,0.0,0.0,0.0,0.0,0.0,0.0,0.0,0.0,0.0,0.0,0.0,0.0,0.0,0.0,0.0,0.0,0.0,0.0,0.0,0.0,0.0,0.0,0.0,0.0,0.0,0.0,0.0,0.0,0.0,0.0,0.0,0.0,0.0,0.0,0.0,0.0,0.0,0.0,0.0,0.0,0.0,0.0,0.0,0.0,0.0,0.0,0.0,0.0,0.0,0.0,0.0,0.0,0.0,0.0,0.0,0.0,0.0,0.0,0.0,0.0,0.0,0.0,0.0,0.0,0.0,0.0,0.0,0.0,0.0,0.0,0.0,0.0,0.0,0.0,0.0,0.0,0.0,0.0,0.0,0.0,0.0,0.0,0.0,0.0,0.0,0.0,0.0,-2.756,-2.8709,-3.0585,-3.0978,-3.1901,-3.3473,-3.3368,-3.2346,-3.0429,0.0,0.0,0.0,0.0,0.0,0.0,0.0,0.0,0.0,0.0,0.0,0.0,0.0,0.0,0.0,0.0,0.0,0.0,0.0,0.0,0.0,0.0,0.0,0.0,0.0,0.0,0.0,0.0,0.0,0.0,0.0,0.0,0.0,0.0,0.0,0.0,0.0,0.0,-2.469,-2.7572,0.0,0.0,0.0,0.0,0.0,0.0,0.0,0.0,-3.2828,0.0,0.0,0.0,0.0,0.0,0.0,0.0,0.0,0.0,0.0,0.0,0.0,0.0,0.0,0.0,0.0,0.0,0.0,0.0,0.0,0.0,0.0,0.0,0.0,0.0,0.0,0.0,0.0,0.0,0.0,0.0,0.0,0.0,0.0,0.0,0.0,0.0,0.0,0.0,0.0,0.0,0.0,0.0,0.0,0.0,0.0,0.0,0.0,0.0,0.0,0.0,0.0,0.0,0.0,0.0,0.0,-2.8373,-2.7906,-2.8402,-3.0005,-3.1166,-3.2259,-3.3212,-3.3439,-3.2348,-2.9926,0.0,0.0,0.0,0.0,0.0,0.0,0.0,0.0,0.0,0.0,0.0,0.0,0.0,0.0,0.0,0.0,0.0,0.0,0.0,0.0,0.0,0.0,0.0,0.0,0.0,0.0,0.0,0.0,0.0,0.0,0.0,0.0,0.0,0.0,0.0,0.0,0.0,0.0,0.0,-3.0371,-3.2489,0.0,0.0,0.0,0.0,0.0,0.0,0.0,0.0,-3.3219,0.0,0.0,0.0,0.0,0.0,0.0,0.0,0.0,0.0,0.0,0.0,0.0,0.0,0.0,0.0,0.0,0.0,0.0,0.0,0.0,0.0,0.0,0.0,0.0,0.0,0.0,0.0,0.0,0.0,0.0,0.0,0.0,0.0,0.0,0.0,0.0,0.0,0.0,0.0,0.0,0.0,0.0,0.0,0.0,0.0,0.0,0.0,0.0,0.0,0.0,0.0,0.0,0.0,0.0,0.0,-2.6683,-2.7434,-2.8386,-2.9542,-3.1207,-3.2248,-3.2541,-3.2617,-3.1417,0.0,0.0,0.0,0.0,0.0,0.0,0.0,0.0,0.0,0.0,0.0,0.0,0.0,0.0,0.0,0.0,0.0,0.0,0.0,0.0,0.0,0.0,0.0,0.0,0.0,0.0,0.0,0.0,0.0,0.0,0.0,0.0,0.0,0.0,0.0,0.0,0.0,0.0,0.0,0.0,-3.1405,-3.3448,-3.4964,0.0,0.0,0.0,0.0,0.0,0.0,-3.4381,-3.4275,0.0,0.0,0.0,0.0,0.0,0.0,0.0,0.0,0.0,0.0,0.0,0.0,0.0,0.0,0.0,0.0,0.0,0.0,0.0,0.0,0.0,0.0,0.0,0.0,0.0,0.0,0.0,0.0,0.0,0.0,0.0,0.0,0.0,0.0,0.0,0.0,0.0,0.0,0.0,0.0,0.0,0.0,0.0,0.0,0.0,0.0,0.0,0.0,0.0,0.0,0.0,0.0,0.0,0.0,0.0,-2.4928,-2.6894,-2.8299,-2.9119,-3.1129,-3.2107,-3.188,-3.1783,-3.0618,0.0,0.0,0.0,0.0,0.0,0.0,0.0,0.0,0.0,0.0,0.0,0.0,0.0,0.0,0.0,0.0,0.0,0.0,0.0,0.0,0.0,0.0,0.0,0.0,0.0,0.0,0.0,0.0,0.0,0.0,0.0,0.0,0.0,0.0,0.0,0.0,0.0,0.0,0.0,0.0,0.0,-3.4717,-3.6713,-3.6723,0.0,0.0,0.0,0.0,-3.5113,-3.5424,0.0,0.0,0.0,0.0,0.0,0.0,0.0,0.0,0.0,0.0,0.0,0.0,0.0,0.0,0.0,0.0,0.0,0.0,0.0,0.0,0.0,0.0,0.0,0.0,0.0,0.0,0.0,0.0,0.0,0.0,0.0,0.0,0.0,0.0,0.0,0.0,0.0,0.0,0.0,0.0,0.0,0.0,0.0,0.0,0.0,0.0,0.0,0.0,0.0,0.0,0.0,0.0,0.0,0.0,0.0,0.0,-2.4663,-2.6607,-2.8015,-2.8801,-3.092,-3.1872,-3.1499,-3.1677,-3.0706,0.0,0.0,0.0,0.0,0.0,0.0,0.0,0.0,0.0,0.0,0.0,0.0,0.0,0.0,0.0,0.0,0.0,0.0,0.0,0.0,0.0,0.0,0.0,0.0,0.0,0.0,0.0,0.0,0.0,0.0,0.0,0.0,0.0,0.0,0.0,0.0,0.0,0.0,0.0,0.0,0.0,-3.7517,-3.7067,-3.7754,-3.8259,0.0,0.0,-3.6832,-3.6722,-3.6635,0.0,0.0,0.0,0.0,0.0,0.0,0.0,0.0,0.0,0.0,0.0,0.0,0.0,0.0,0.0,0.0,0.0,0.0,0.0,0.0,0.0,0.0,0.0,0.0,0.0,0.0,0.0,0.0,0.0,0.0,0.0,0.0,0.0,0.0,0.0,0.0,0.0,0.0,0.0,0.0,0.0,0.0,0.0,0.0,0.0,0.0,0.0,0.0,0.0,0.0,0.0,0.0,0.0,0.0,0.0,-2.5063,-2.5841,-2.7861,-2.9215,-2.988,-3.1064,-3.136,-3.0723,-3.0064,-2.9063,0.0,0.0,0.0,0.0,0.0,0.0,0.0,0.0,0.0,0.0,0.0,0.0,0.0,0.0,0.0,0.0,0.0,0.0,0.0,0.0,0.0,0.0,0.0,0.0,0.0,0.0,0.0,0.0,0.0,0.0,0.0,0.0,0.0,0.0,0.0,0.0,0.0,0.0,0.0,0.0,0.0,0.0,-3.7715,-3.8573,0.0,0.0,0.0,-3.8026,-3.7074,0.0,0.0,0.0,0.0,0.0,0.0,0.0,0.0,0.0,0.0,0.0,0.0,0.0,0.0,0.0,0.0,0.0,0.0,0.0,0.0,0.0,0.0,0.0,0.0,0.0,0.0,0.0,0.0,0.0,0.0,0.0,0.0,0.0,0.0,0.0,0.0,0.0,0.0,0.0,0.0,0.0,0.0,0.0,0.0,0.0,0.0,0.0,0.0,0.0,0.0,0.0,0.0,0.0,0.0,0.0,0.0,0.0,-2.6579,-2.8823,-3.0084,-3.036,-3.083,-3.0705,-2.9916,-2.8661,0.0,0.0,0.0,0.0,0.0,0.0,0.0,0.0,0.0,0.0,0.0,0.0,0.0,0.0,0.0,0.0,0.0,0.0,0.0,0.0,0.0,0.0,0.0,0.0,0.0,0.0,0.0,-2.2007,0.0,0.0,0.0,0.0,0.0,0.0,0.0,0.0,0.0,0.0,0.0,0.0,0.0,0.0,-3.7574,-3.8487,-3.9179,-3.9668,0.0,0.0,-3.8648,-3.7431,-3.731,-3.6506,0.0,0.0,0.0,0.0,0.0,0.0,0.0,0.0,0.0,0.0,0.0,0.0,0.0,0.0,0.0,0.0,0.0,0.0,0.0,0.0,0.0,0.0,0.0,0.0,0.0,0.0,0.0,0.0,0.0,0.0,0.0,0.0,0.0,0.0,0.0,0.0,0.0,0.0,0.0,0.0,0.0,0.0,0.0,0.0,0.0,0.0,0.0,0.0,0.0,0.0,0.0,0.0,0.0,0.0,0.0,-2.6219,-2.8828,-2.9826,-2.919,-2.9892,-2.9898,-2.9108,-2.825,-2.7532,0.0,0.0,0.0,0.0,0.0,0.0,0.0,0.0,0.0,0.0,0.0,0.0,0.0,0.0,0.0,0.0,0.0,0.0,0.0,0.0,0.0,0.0,0.0,0.0,0.0,0.0,0.0,0.0,0.0,0.0,0.0,0.0,0.0,0.0,0.0,0.0,0.0,0.0,0.0,0.0,0.0,-3.8457,-3.9384,-3.9548,-3.9838,0.0,0.0,-3.8167,-3.81,-3.7328,-3.584,-3.3127,0.0,0.0,0.0,0.0,0.0,0.0,0.0,0.0,0.0,0.0,0.0,0.0,0.0,0.0,0.0,0.0,0.0,0.0,0.0,0.0,0.0,0.0,0.0,0.0,0.0,0.0,0.0,0.0,0.0,0.0,0.0,0.0,0.0,0.0,0.0,0.0,0.0,0.0,0.0,0.0,0.0,0.0,0.0,0.0,0.0,0.0,0.0,0.0,0.0,0.0,0.0,0.0,0.0,-2.608,-2.6425,-2.8416,-2.9287,-2.903,-2.9305,-2.9329,-2.9017,-2.7769,-2.7013,0.0,0.0,0.0,0.0,0.0,0.0,0.0,0.0,0.0,0.0,0.0,0.0,0.0,0.0,0.0,0.0,0.0,0.0,0.0,0.0,0.0,0.0,0.0,0.0,0.0,0.0,0.0,0.0,-2.4886,-2.5083,-2.4904,0.0,0.0,0.0,0.0,0.0,0.0,0.0,0.0,0.0,0.0,-3.8863,-3.8818,-3.915,0.0,0.0,-3.8953,-3.8358,-3.7836,-3.7292,-3.6138,-3.371,-3.337,0.0,0.0,0.0,0.0,0.0,0.0,0.0,0.0,0.0,0.0,0.0,0.0,0.0,0.0,0.0,0.0,0.0,0.0,0.0,0.0,0.0,0.0,0.0,0.0,0.0,0.0,0.0,0.0,0.0,0.0,0.0,0.0,0.0,0.0,0.0,0.0,0.0,0.0,0.0,0.0,0.0,0.0,0.0,0.0,0.0,0.0,0.0,0.0,0.0,0.0,0.0,0.0,-2.6259,-2.6631,-2.8187,-2.8975,-2.8975,-2.8975,-2.8975,-2.8938,-2.7457,-2.6659,0.0,0.0,0.0,0.0,0.0,0.0,0.0,0.0,0.0,0.0,0.0,0.0,0.0,0.0,0.0,0.0,0.0,0.0,0.0,0.0,0.0,0.0,0.0,0.0,0.0,0.0,0.0,0.0,-2.5279,-2.545,-2.5391,0.0,0.0,0.0,0.0,0.0,0.0,0.0,0.0,0.0,0.0,-3.917,-3.8772,-3.9065,-3.9131,-3.8671,-3.8567,-3.8265,-3.7385,-3.7318,-3.6559,-3.4187,0.0,0.0,0.0,0.0,0.0,0.0,0.0,0.0,0.0,0.0,0.0,0.0,0.0,0.0,0.0,0.0,0.0,0.0,0.0,0.0,0.0,0.0,0.0,0.0,0.0,0.0,0.0,0.0,0.0,0.0,-2.3189,0.0,0.0,0.0,0.0,0.0,0.0,0.0,0.0,0.0,0.0,0.0,0.0,0.0,0.0,0.0,0.0,0.0,0.0,0.0,0.0,0.0,0.0,0.0,-2.6591,-2.8191,-2.8975,-2.8975,-2.8975,-2.8975,-2.8938,-2.7457,-2.6594,-2.6557,0.0,0.0,0.0,0.0,0.0,0.0,0.0,0.0,0.0,0.0,0.0,0.0,0.0,0.0,0.0,0.0,0.0,0.0,0.0,0.0,0.0,0.0,0.0,0.0,0.0,0.0,-2.5857,-2.5384,-2.5458,0.0,0.0,0.0,0.0,0.0,0.0,0.0,0.0,0.0,0.0,-3.8206,-3.939,-3.9591,-3.946,-3.9028,-3.8264,-3.8086,-3.7743,-3.6921,-3.742,-3.7026,0.0,0.0,0.0,0.0,0.0,0.0,0.0,0.0,0.0,0.0,0.0,0.0,0.0,0.0,0.0,0.0,0.0,0.0,0.0,0.0,0.0,0.0,0.0,0.0,0.0,0.0,0.0,-2.5943,-2.5494,0.0,0.0,0.0,0.0,0.0,0.0,0.0,0.0,0.0,0.0,0.0,-2.725,-2.778,0.0,0.0,0.0,0.0,0.0,0.0,0.0,0.0,0.0,0.0,0.0,0.0,-2.649,-2.6667,-2.8168,-2.8975,-2.8975,-2.8975,-2.876,-2.8209,-2.7163,-2.6098,-2.5052,0.0,0.0,0.0,0.0,0.0,0.0,0.0,0.0,0.0,0.0,0.0,0.0,0.0,0.0,0.0,0.0,0.0,0.0,0.0,0.0,0.0,0.0,0.0,0.0,0.0,-2.5811,0.0,0.0,0.0,0.0,0.0,0.0,0.0,0.0,0.0,0.0,0.0,-3.7149,-3.7522,-3.9153,-3.9958,-3.8974,-3.8995,-3.8984,0.0,0.0,0.0,0.0,0.0,0.0,0.0,0.0,0.0,0.0,0.0,0.0,0.0,0.0,-3.3389,-3.252,-3.2895,-3.3177,-3.2519,0.0,0.0,0.0,0.0,0.0,0.0,0.0,0.0,0.0,0.0,0.0,0.0,0.0,0.0,-2.7246,0.0,-2.5791,0.0,0.0,0.0,0.0,0.0,0.0,0.0,0.0,-2.8374,-2.8484,-2.8246,-2.8737,-2.8466,0.0,-2.7839,-2.7382,0.0,0.0,0.0,0.0,0.0,0.0,0.0,0.0,-2.619,-2.6245,-2.7493,-2.8278,-2.8576,-2.8594,-2.8338,-2.7787,-2.6741,-2.5566,-2.4245,-2.419,-2.4266,0.0,0.0,0.0,0.0,0.0,0.0,0.0,0.0,0.0,0.0,0.0,0.0,0.0,0.0,0.0,0.0,0.0,0.0,0.0,0.0,0.0,0.0,0.0,-2.6403,0.0,0.0,0.0,0.0,0.0,0.0,0.0,0.0,0.0,-3.4546,-3.68,-3.8514,-3.8556,-3.9804,-4.0129,-3.8595,0.0,0.0,0.0,0.0,0.0,0.0,0.0,-3.7299,-3.7044,-3.6999,-3.6903,-3.6615,-3.574,-3.5055,-3.4812,0.0,0.0,-3.3509,-3.3948,-3.4353,-3.4053,-3.4566,-3.4863,-3.4277,-3.4666,-3.4878,0.0,0.0,0.0,0.0,0.0,0.0,0.0,0.0,-2.876,-2.8894,0.0,-2.6904,0.0,0.0,0.0,0.0,0.0,0.0,0.0,0.0,-2.9402,-2.9751,-2.9012,-2.903,-2.9012,-2.8975,-2.8633,-2.8233,-2.7783,-2.6695,0.0,0.0,0.0,0.0,0.0,0.0,-2.5384,-2.5458,-2.6227,-2.6998,-2.7732,-2.775,-2.7732,-2.7658,-2.6172,-2.4999,-2.4245,-2.419,-2.419,-2.419,-2.419,0.0,0.0,0.0,0.0,0.0,0.0,0.0,0.0,0.0,0.0,0.0,0.0,0.0,0.0,0.0,0.0,0.0,0.0,0.0,0.0,-2.7346,0.0,0.0,0.0,0.0,0.0,0.0,0.0,0.0,0.0,0.0,-3.6163,-3.7995,-3.9479,-3.957,0.0,0.0,0.0,0.0,-3.7409,-3.5597,-3.5993,-3.6131,-3.5039,-3.6151,-3.6727,-3.5451,0.0,0.0,-3.6457,-3.6046,-3.544,-3.4419,-3.4852,-3.5296,-3.4793,-3.4897,-3.5175,-3.5366,-3.5539,-3.5742,-3.5918,-3.584,-3.5854,-3.1696,0.0,0.0,0.0,0.0,-2.9769,-3.0063,-3.0375,-3.0595,-3.0326,-2.9649,-2.8625,0.0,0.0,0.0,0.0,0.0,0.0,-2.8338,-2.8686,-2.9145,-2.9195,-2.9012,-2.9604,-2.9567,-2.903,-2.9472,-2.9326,-2.8645,-2.7757,-2.6463,-2.4787,0.0,0.0,0.0,0.0,-2.5384,-2.5458,-2.619,-2.6722,-2.6943,-2.6943,-2.6649,-2.6119,-2.5071,-2.4428,-2.419,-2.419,-2.419,-2.419,-2.419,0.0,0.0,0.0,0.0,0.0,0.0,0.0,0.0,0.0,0.0,0.0,0.0,0.0,0.0,0.0,0.0,0.0,0.0,0.0,-2.7407,-2.7494,-2.7866,0.0,0.0,0.0,0.0,0.0,0.0,0.0,0.0,0.0,-3.851,-3.9688,-4.034,0.0,0.0,-3.919,-3.8152,-3.7589,-3.7106,-3.6747,0.0,0.0,0.0,-3.6539,-3.6633,-3.6821,-3.6781,-3.659,-3.6362,-3.5414,-3.4596,-3.4237,-3.4228,-3.4238,-3.4203,-3.5021,-3.5551,-3.541,-3.5587,-3.5854,-3.5911,-3.5972,-3.5932,-3.2801,-3.242,-3.1196,-3.0687,-3.0705,-3.1017,-3.1237,-3.1403,-3.1403,-3.1127,-3.0613,-2.9512,-2.8338,-2.725,-2.7134,0.0,0.0,0.0,-2.8558,-2.8975,-2.8975,-2.8975,-2.9012,-2.9489,-2.9475,-2.903,-2.9512,-2.9329,-2.8521,-2.7871,-2.6727,-2.5132,0.0,0.0,-2.354,-2.4309,-2.4728,-2.4746,-2.5342,-2.5805,-2.6117,-2.6117,-2.5837,-2.522,-2.4553,-2.4133,-2.3998,-2.4132,-2.419,-2.419,-2.419,-2.419,0.0,0.0,0.0,0.0,0.0,0.0,0.0,0.0,0.0,0.0,0.0,-2.4826,0.0,0.0,0.0,0.0,-2.6638,-2.7578,-2.8268,-2.8685,0.0,0.0,0.0,0.0,0.0,0.0,0.0,-3.7947,-3.8811,-3.9316,-3.9509,-4.0326,-4.0641,-3.9991,-3.9693,-3.9085,-3.7766,0.0,-3.6625,-3.6158,-3.5747,-3.5589,-3.5815,-3.5631,-3.5703,-3.6331,-3.6027,-3.5477,-3.502,-3.4435,-3.3957,-3.3667,-3.3681,-3.3697,-3.3385,-3.4229,-3.4899,-3.4619,-3.5135,-3.5443,-3.4957,-3.511,-3.5275,-3.2887,-3.2887,-3.1844,-3.1384,-3.1476,-3.2192,-3.2082,-3.1421,-3.1476,-3.1421,-3.1182,-2.9751,-2.9049,-2.8938,-2.8227,0.0,0.0,-2.8668,-2.8975,-2.8975,-2.8975,-2.8975,-2.8975,-2.892,-2.8902,-2.8902,-2.8828,-2.8448,-2.7714,-2.7253,-2.6472,-2.5419,-2.498,-2.4239,-2.3312,-2.3544,-2.371,-2.3732,-2.4054,-2.4557,-2.5274,-2.5311,-2.5132,-2.4838,-2.4419,-2.4074,-2.3774,-2.4036,-2.419,-2.419,-2.4209,-2.4209,-2.419,0.0,0.0,0.0,0.0,0.0,0.0,0.0,0.0,0.0,0.0,0.0,0.0,0.0,0.0,0.0,-2.7589,0.0,-2.9681,-3.0434,0.0,0.0,0.0,-3.3528,-3.5633,-3.7199,-3.8123,-3.8209,0.0,0.0,0.0,0.0,-4.0462,-4.0108,-3.9946,-3.9163,-3.7225,-3.6553,-3.5781,-3.4418,-3.39,-3.3728,-3.396,-3.4185,-3.4517,-3.4806,-3.4694,-3.4388,-3.344,-3.342,-3.3356,-3.2709,-3.3162,-3.3419,-3.264,-3.2997,-3.3299,-3.3318,-3.4232,-3.4623,-3.3654,-3.3905,-3.4186,-3.2133,-3.2606,-3.1783,-3.1403,-3.1403,-3.1604,-3.1568,-3.1439,-3.2045,-3.1623,-3.0467,-3.0081,-2.9586,-2.8975,-2.8815,-2.8723,-2.8723,-2.8902,-2.8975,-2.8975,-2.8975,-2.8975,-2.8957,-2.8393,-2.8099,-2.8044,-2.7475,-2.709,-2.6851,-2.6164,-2.5688,-2.5344,-2.4204,-2.3611,-2.3566,-2.3671,-2.371,-2.371,-2.4034,-2.4281,-2.4483,-2.4483,-2.4446,-2.4366,-2.4243,-2.417,-2.4094,-2.4133,-2.419,-2.4209,-2.4339,-2.4357,-2.4209,-2.4339,0.0,0.0,0.0,0.0,0.0,0.0,0.0,0.0,0.0,-2.6688,-2.5672,0.0,-2.7661,0.0,-2.8615,-2.9676,-3.1134,-3.091,0.0,0.0,-3.4586,-3.5703,-3.8727,-3.9027,-3.9259,-3.9973,-4.0351,-4.0468,-4.0256,-3.989,-3.9426,-3.8916,-3.8302,-3.7379,-3.6073,-3.4774,-3.388,-3.3541,-3.3377,-3.3338,-3.3403,-3.4056,-3.4574,-3.4674,-3.4675,-3.4391,-3.3441,-3.3059,-3.2691,-3.2136,-3.2108,-3.2164,-3.2034,-3.2208,-3.2241,-3.199,-3.2782,-3.3538,-3.3245,-3.3381,-3.3433,-3.1127,-3.1458,-3.0687,-3.054,-3.0907,-3.1237,-3.1403,-3.1421,-3.1494,-3.1035,-3.0173,-2.9824,-2.9439,-2.8994,-2.8975,-2.8975,-2.8975,-2.8975,-2.8975,-2.8975,-2.8975,-2.8792,-2.8466,-2.8007,-2.7622,-2.7255,-2.6833,-2.6429,-2.6043,-2.5481,-2.5079,-2.4812,-2.3606,-2.3141,-2.3477,-2.3477,-2.3477,-2.35,-2.3937,-2.419,-2.419,-2.419,-2.4132,-2.3996,-2.4132,-2.4113,-2.3996,-2.4132,-2.419,-2.4209,-2.4393,-2.4462,-2.4339,-2.4528,-2.4594,0.0,0.0,0.0,0.0,0.0,0.0,0.0,0.0,0.0,0.0,0.0,-2.8989,0.0,-2.9805,0.0,-3.2177,-3.1985,-3.2754,-3.523,-3.5359,-3.6274,-3.8772,-3.8747,-3.8789,-3.9425,-3.9427,-3.9392,-3.9373,-3.9008,-3.8399,-3.7584,-3.6969,-3.622,-3.5153,-3.4075,-3.3396,-3.3208,-3.2709,-3.2403,-3.2529,-3.3032,-3.3419,-3.3421,-3.3521,-3.3278,-3.2347,-3.231,-3.2184,-3.1589,-3.1684,-3.1796,-3.1499,-3.1582,-3.1533,-3.1013,-3.1335,-3.1854,-3.1958,-3.2258,-3.2444,-3.0118,-3.0136,-2.9324,-2.9457,-3.0246,-3.0834,-3.1127,-3.1182,-3.0503,-3.0136,-3.0008,-2.9305,-2.8975,-2.8975,-2.8975,-2.8975,-2.8975,-2.8975,-2.8975,-2.8975,-2.8883,-2.8484,-2.7805,-2.7585,-2.7108,-2.6465,-2.6355,-2.5933,-2.5254,-2.4972,-2.4587,-2.4112,-2.3212,-2.2898,-2.3117,-2.3141,-2.3165,-2.3277,-2.3858,-2.419,-2.419,-2.419,-2.4074,-2.3795,-2.4036,-2.4074,-2.3795,-2.4036,-2.419,-2.4209,-2.4393,-2.4512,-2.4512,-2.4685,-2.4842,0.0,-2.5616,0.0,0.0,0.0,0.0,0.0,0.0,0.0,0.0,-2.9307,-3.0283,-3.0974,-3.1096,-3.162,-3.2908,-3.3122,-3.3796,-3.5219,-3.5472,-3.6028,-3.73,-3.7528,-3.7637,-3.7878,-3.7943,-3.7959,-3.7982,-3.7896,-3.7414,-3.6532,-3.5856,-3.5132,-3.4335,-3.3827,-3.3434,-3.31,-3.2018,-3.1492,-3.1811,-3.1896,-3.196,-3.1944,-3.2221,-3.1864,-3.0993,-3.1429,-3.1676,-3.1034,-3.1298,-3.1525,-3.0901,-3.0997,-3.0891,-3.0075,-3.0152,-3.0364,-3.0548,-3.0914,-3.1083,-2.9622,-3.0118,-2.9305,-2.9475,-3.0155,-2.9677,-2.9824,-3.0411,-3.0265,-2.9843,-2.9237,-2.9067,-2.8975,-2.8975,-2.8975,-2.8975,-2.8975,-2.8975,-2.8975,-2.8957,-2.8338,-2.7952,-2.7714,-2.6468,-2.5788,-2.5586,-2.4961,-2.4575,-2.441,-2.4351,-2.416,-2.3795,-2.3323,-2.2996,-2.2822,0.0,0.0,0.0,-2.3996,-2.419,-2.419,-2.419,-2.417,-2.4112,-2.4152,0.0,-2.4132,-2.417,-2.419,-2.4209,-2.4393,0.0,0.0,0.0,0.0,0.0,0.0,0.0,0.0,0.0,0.0,0.0,-2.9178,-2.9385,-2.9247,-3.0909,-3.196,-3.1801,-3.2379,-3.2846,-3.3136,-3.3212,-3.3698,-3.4926,-3.5342,-3.5861,-3.6747,-3.7087,-3.7315,-3.7355,-3.7527,-3.7653,-3.7594,-3.7268,-3.678,-3.6207,-3.4889,-3.3639,-3.2934,-3.3078,-3.2997,-3.2324,-3.142,-3.1148,-3.1723,-3.1912,-3.192,-3.2109,-3.2257,-3.2036,-3.1322,-3.1069,-3.0937,-3.0345,-3.03,-3.0396,-3.0186,-3.0385,-3.0241,-2.944,-2.931,-2.9544,-3.0217,-2.9948,-2.9544,-2.9255,0.0,-2.9182,-2.9237,0.0,-2.9159,-2.9214,-2.9604,-2.9622,-2.9384,-2.8994,-2.8975,-2.8975,-2.8975,-2.8975,-2.8975,-2.8975,-2.8975,-2.8773,-2.8393,-2.7989,-2.7386,-2.6576,-2.5788,-2.5201,-2.4797,-2.4392,-2.419,-2.419,-2.4034,-2.3858,-2.3692,-2.3212,-2.2855,-2.2695,-2.2695,-2.2947,-2.3455,-2.3628,-2.3795,-2.3955,-2.3937,-2.4016,-2.4208,0.0,0.0,0.0,0.0,0.0,0.0,0.0,0.0,0.0,0.0,0.0,-2.6276,-2.7071,-2.7714,-2.8172,-2.869,-2.9149,-2.957,-3.0487,-3.1091,-3.1182,-3.2072,-3.2602,-3.26,-3.2949,-3.3214,-3.3214,-3.3214,-3.3542,-3.4303,-3.4563,-3.4865,-3.5373,-3.5614,-3.5794,-3.5941,-3.6082,-3.616,-3.6141,-3.5634,-3.5239,-3.5026,-3.377,-3.2673,-3.2337,-3.2125,-3.1711,-3.0982,-3.0826,-3.0667,-3.0652,-3.0809,-3.0959,-3.094,-3.1113,-3.1089,-3.0742,-3.0651,-3.0562,-3.0221,-2.987,-2.9564,-2.9538,-2.9382,-2.9025,-2.8621,-2.8506,-2.8621,-2.9071,-2.8729,-2.8356,-2.8975,-2.8975,-2.8975,-2.8975,-2.8975,-2.8975,-2.8975,-2.8975,0.0,0.0,0.0,-2.8975,-2.8975,-2.8975,-2.8975,-2.8943,-2.8796,-2.8796,-2.8356,-2.7585,-2.7438,-2.667,-2.5421,-2.5256,-2.4832,-2.4208,-2.419,-2.419,-2.419,-2.3917,-2.3753,-2.3649,-2.3093,-2.2721,-2.2634,-2.2634,-2.2764,-2.3038,-2.3141,-2.3369,-2.371,-2.371,-2.3858,-2.419,-2.419,-2.419,-2.419,-2.419,-2.419,-2.419,-2.4357,-2.4545,-2.4764,-2.5706,-2.6409,-2.6828,-2.8225,-2.9159,-2.9333,-2.9987,-3.0412,-3.0484,-3.1341,-3.2142,-3.2743,-3.2741,-3.2812,-3.3051,-3.3014,-3.2983,-3.3075,-3.3075,-3.3273,-3.3734,-3.3807,-3.3865,-3.3907,-3.3918,-3.3999,-3.4092,-3.4158,-3.418,-3.4182,-3.3882,-3.3598,-3.3468,-3.2741,-3.192,-3.1713,-3.1214,-3.0693,-3.0181,-3.0282,-3.02,-2.9738,-2.9549,-2.9557,-2.9696,-2.9684,-2.9622,-2.965,-2.9813,-2.9956,-2.9809,-2.9333,-2.8967,-2.8832,-2.8429,-2.7852,-2.7717,-2.7659,-2.7621,-2.7437,-2.7259,-2.716,-2.8975,-2.8975,-2.8975,-2.8975,-2.8975,-2.8975,-2.8975,-2.8975,-2.8975,-2.8975,-2.8975,-2.8975,-2.8975,-2.8975,-2.8975,-2.8631,-2.7989,-2.797,-2.7548,0.0,-2.6062,-2.5623,-2.5366,-2.4685,-2.43,-2.419,-2.419,-2.419,-2.419,-2.4151,-2.3996,-2.3692,-2.3323,-2.2883,-2.2415,-2.2349,-2.236,-2.2443,-2.2958,-2.3369,-2.3692,-2.371,-2.3855,-2.417,-2.419,-2.419,-2.419,-2.419,-2.419,-2.419,-2.4228,-2.4321,-2.4564,-2.5518,-2.6465,-2.7402,-2.8507,-2.9429,-3.0129,-3.0352,-3.0521,-3.0781,-3.0977,-3.1316,-3.1946,-3.2655,-3.2967,-3.2648,-3.2229,-3.2161,-3.255,-3.258,-3.2911,-3.3607,-3.3788,-3.3558,-3.293,-3.2838,-3.2631,-3.2096,-3.2065,-3.2257,-3.2374,-3.2561,-3.274,-3.2641,-3.1854,-3.1086,-3.0393,-3.0409,-3.055,-3.0423,-3.0092,-2.9902,-2.9715,-2.9311,-2.9055,-2.9154,-2.8648,-2.8353,-2.8372,-2.8406,-2.8448,-2.8313,-2.8198,-2.8082,-2.8063,-2.7986,-2.7486,-2.6948,-2.6774,-2.6582,-2.5985,-2.5646,-2.5672,-2.8975,-2.8975,-2.8975,-2.8975,-2.8975,-2.8975,-2.8975,-2.8975,-2.8975,-2.8975,-2.8975,-2.8975,-2.8975,-2.8938,-2.8558,-2.8154,-2.7787,-2.7346,-2.6704,-2.5952,-2.5548,-2.5162,-2.474,-2.4373,-2.419,-2.419,-2.419,-2.419,-2.419,-2.419,-2.3955,-2.3432,-2.2933,-2.2571,-2.231,-2.2327,-2.2327,-2.231,-2.2571,-2.295,-2.3432,-2.3437,-2.3671,-2.419,-2.419,-2.419,-2.419,-2.419,-2.419,-2.419,-2.419,-2.4284,-2.4532,-2.577,-2.6808,-2.7573,-2.8855,-2.9832,-3.0359,-3.0267,-3.0185,-3.0259,-3.0546,-3.0658,-3.0595,-3.1438,-3.1828,-3.1563,-3.1531,-3.1649,-3.1865,-3.209,-3.2313,-3.2488,-3.2485,-3.2339,-3.2045,-3.1953,-3.1788,-3.1483,-3.1513,-3.157,-3.1589,-3.1636,-3.1684,-3.1588,-3.0703,-2.973,-2.9087,-2.8959,-2.9265,-2.9889,-2.9599,-2.9289,-2.9294,-2.8779,-2.8406,-2.8448,-2.8159,-2.7909,-2.789,-2.7871,-2.7871,-2.7852,-2.7544,-2.7236,-2.7178,-2.6774,-2.6351,-2.6101,-2.5899,-2.5639,-2.5228,-2.4924,-2.4903,-2.8975,-2.8975,-2.8975,-2.8975,-2.8975,-2.8975,-2.8975,-2.8975,-2.8975,-2.8975,-2.8975,-2.8975,-2.8975,-2.8902,-2.8154,-2.7695,-2.7438,-2.6686,-2.5897,-2.5201,-2.5127,-2.4797,-2.4245,-2.419,-2.419,-2.419,-2.419,-2.419,-2.419,-2.419,-2.3876,-2.3212,-2.266,-2.2377,-2.2327,-2.2327,-2.2327,-2.231,-2.236,-2.266,-2.3165,-2.3189,-2.3522,-2.4133,-2.419,-2.419,-2.419,-2.419,-2.419,-2.419,-2.419,-2.4266,-2.4483,-2.5836,-2.6868,-2.749,-2.8836,-2.9823,-3.0196,-3.0066,-2.9845,-2.9643,-3.0054,-3.0005,-2.9385,-2.9836,-3.0303,-3.0434,-3.066,-3.0826,-3.0923,-3.1288,-3.1516,-3.1305,-3.1378,-3.1397,-3.1243,-3.1158,-3.1084,-3.098,-3.0901,-3.0815,-3.082,-3.0698,-3.0527,-3.0272,-2.9483,-2.8779,-2.832,-2.7856,-2.8174,-2.8783,-2.8898,-2.8637,-2.8555,-2.803,-2.7668,-2.7621,-2.7371,-2.7178,-2.7159,-2.7255,-2.7274,-2.7121,-2.6755,-2.637,-2.6236,-2.5822,-2.5437,-2.5399,-2.5379,-2.522,-2.5012,-2.4737,-2.4528,-2.8975,-2.8975,-2.8975,-2.8975,-2.8975,-2.8975,-2.8975,-2.8975,-2.8975,-2.8975,-2.8975,-2.8975,-2.8975,-2.8888,-2.8117,-2.7346,-2.6667,-2.5878,-2.5071,-2.441,-2.43,-2.4263,-2.419,-2.419,-2.419,-2.419,-2.419,-2.419,-2.419,-2.419,-2.3855,-2.323,-2.2865,-2.2527,-2.2321,-2.2327,-2.2327,-2.231,-2.2537,-2.2848,-2.3165,-2.3189,-2.3522,-2.417,-2.419,-2.419,-2.419,-2.419,-2.419,-2.419,-2.419,-2.419,-2.432,-2.5226,-2.6149,-2.6932,-2.8003,-2.895,-2.9652,-2.9729,-2.9624,-2.9454,-2.9487,-2.9122,-2.8217,-2.8177,-2.8659,-2.9327,-2.9385,-2.9437,-2.9744,-3.0149,-3.0523,-3.0758,-3.1068,-3.1212,-3.0709,-3.0448,-3.0139,-2.9609,-2.9521,-2.9237,-2.9407,-2.949,-2.9401,-2.908,-2.888,-2.8502,-2.7961,-2.7658,-2.7577,-2.7931,-2.7964,-2.7953,-2.7857,-2.7253,-2.6813,-2.6659,-2.6101,-2.5851,-2.5851,-2.5793,-2.5591,-2.6024,-2.5697,-2.5563,-2.5524,-2.5332,-2.5332,-2.5274,-2.5182,-2.4993,-2.4842,-2.4639,-2.4495,-2.8975,-2.8975,-2.8975,-2.8975,-2.8975,-2.8749,-2.8773,-2.8975,-2.8975,-2.8975,-2.8975,-2.8975,-2.876,-2.8227,-2.6961,-2.619,-2.5841,-2.4874,-2.4326,-2.4189,-2.3996,-2.3998,-2.419,-2.419,-2.419,-2.419,-2.419,-2.419,-2.417,-2.3996,-2.3653,-2.3212,-2.2873,-2.2563,-2.2338,-2.2327,-2.2327,-2.231,-2.2398,-2.2695,-2.3183,-2.3392,-2.3714,-2.4133,-2.419,-2.419,-2.419,-2.419,-2.419,-2.419,-2.419,-2.419,-2.4208,-2.5059,-2.5727,-2.6207,-2.7196,-2.8124,-2.8938,-2.8837,-2.8952,-2.9357,-2.9246,-2.8803,-2.801,-2.7897,-2.7947,-2.7875,-2.8116,-2.844,-2.8831,-2.9232,-2.9496,-2.9494,-2.9758,-2.9908,-2.9691,-2.9563,-2.9393,-2.9171,-2.9067,-2.8975,-2.8948,-2.8762,-2.8446,-2.7975,-2.7719,-2.7362,-2.6998,-2.6625,-2.6379,-2.6351,-2.637,-2.6621,-2.6909,-2.6409,-2.5947,-2.5764,-2.5553,-2.5313,-2.5313,-2.5313,-2.5322,-2.5313,-2.5313,-2.5313,-2.5351,-2.5313,-2.5303,-2.5243,-2.5049,-2.4842,-2.4654,-2.4461,-2.4358,-2.8975,-2.8975,-2.8905,-2.8839,-2.8815,-2.842,-2.8456,-2.87,-2.8791,-2.873,-2.8516,-2.8384,-2.7897,-2.7071,-2.6098,-2.5603,-2.5271,-2.432,-2.3976,-2.4151,-2.3955,-2.3958,-2.419,-2.419,-2.419,-2.419,-2.419,-2.419,-2.4151,-2.3753,-2.3437,-2.3165,-2.2789,-2.2517,-2.2338,-2.2327,-2.2327,-2.2293,-2.2443,-2.279,-2.3206,-2.361,-2.3955,-2.417,-2.419,-2.419,-2.419,-2.419,-2.419,-2.419,-2.419,-2.419,-2.4208,-2.4759,-2.5243,-2.5652,-2.6539,-2.7337,-2.7938,-2.7811,-2.8047,-2.8843,-2.878,-2.8439,-2.8012,-2.7897,-2.753,-2.6926,-2.7199,-2.7641,-2.7908,-2.8289,-2.8417,-2.8309,-2.8608,-2.8887,-2.9089,-2.9044,-2.9058,-2.9071,-2.9067,-2.8883,-2.8635,-2.8153,-2.7549,-2.6935,-2.6517,-2.6098,-2.5952,-2.557,-2.5301,-2.5303,-2.5322,-2.5591,-2.6082,-2.5832,-2.5351,-2.5313,-2.5313,-2.5313,-2.5313,-2.5313,-2.5313,-2.5313,-2.5313,-2.5313,-2.5313,-2.5313,-2.5243,-2.5138,-2.4962,-2.4716,-2.4461,-2.4303,-2.4228,-2.8975,-2.8952,-2.859,-2.8446,-2.8376,-2.8039,-2.7901,-2.7905,-2.8226,-2.7976,-2.7302,-2.694,-2.6282,-2.5678,-2.6153,-2.608,-2.5348,-2.4499,-2.4151,-2.4208,-2.4151,-2.417,-2.419,-2.419,-2.419,-2.419,-2.417,-2.4151,-2.4113,-2.3544,-2.3212,-2.3159,-2.2634,-2.2338,-2.2327,-2.2327,-2.2327,-2.2366,-2.2798,-2.3141,-2.3277,-2.3816,-2.4151,-2.419,-2.419,-2.419,-2.419,-2.419,-2.419,-2.419,-2.419,-2.419,-2.4208,-2.4245,-2.465,-2.5331,-2.6142,-2.662,-2.6675,-2.6694,-2.704,-2.7721,-2.7864,-2.7822,-2.7708,-2.7756,-2.7425,-2.6757,-2.6742,-2.686,-2.6877,-2.7238,-2.7592,-2.784,-2.821,-2.867,-2.927,-2.902,-2.9134,-2.9228,-2.906,-2.8521,-2.7919,-2.732,-2.6619,-2.6057,-2.5888,-2.5783,-2.5292,-2.5068,-2.5118,-2.5234,-2.5313,-2.5332,-2.536,-2.538,-2.5351,-2.5313,-2.5313,-2.5313,-2.5313,-2.5313,-2.5313,-2.5313,-2.5313,-2.5313,-2.5313,-2.5243,-2.513,-2.5024,-2.491,-2.4685,-2.4428,-2.4266,-2.419,-2.8975,-2.8929,-2.8334,-2.7924,-2.7637,-2.7081,-2.6658,-2.6473,-2.6781,-2.6784,-2.6542,-2.6556,-2.6135,-2.5439,-2.5695,-2.5383,-2.463,-2.4105,-2.3996,-2.4133,-2.3976,-2.3996,-2.419,-2.419,-2.419,-2.417,-2.3996,-2.3774,-2.3548,-2.33,-2.3093,-2.2898,-2.2678,-2.249,-2.2321,-2.2327,-2.2327,-2.2321,-2.2704,-2.2996,-2.3212,-2.3649,-2.3976,-2.417,-2.419,-2.419,-2.419,-2.419,-2.419,-2.419,-2.3996,-2.3958,-2.417,-2.419,-2.43,-2.4612,-2.4905,-2.5291,-2.5731,-2.5823,-2.6172,-2.6924,-2.7034,-2.6822,-2.6551,-2.678,-2.6813,-2.6275,-2.6471,-2.6556,-2.6385,-2.659,-2.6852,-2.7057,-2.7584,-2.8174,-2.8543,-2.8471,-2.8456,-2.8891,-2.8621,-2.7732,-2.667,-2.6072,-2.5632,-2.4949,-2.4906,-2.4986,-2.4969,-2.4956,-2.5057,-2.5234,-2.5313,-2.5313,-2.5313,-2.5313,-2.5313,-2.5313,-2.5313,-2.5313,-2.5313,-2.5313,-2.5313,-2.5313,-2.5313,-2.5313,-2.5313,-2.5284,-2.516,-2.5005,-2.4877,-2.4727,-2.4444,-2.4321,-2.4247,-2.8975,-2.8881,-2.8201,-2.7602,-2.7064,-2.6336,-2.5744,-2.5322,-2.5704,-2.5751,-2.5643,-2.5983,-2.5768,-2.5107,-2.5017,-2.474,-2.4207,-2.3976,-2.3976,-2.4152,-2.3958,-2.3996,-2.417,-2.419,-2.4151,-2.3996,-2.3692,-2.3414,-2.3212,-2.3093,-2.2905,-2.2721,-2.2608,-2.249,-2.2321,-2.2327,-2.2338,-2.2436,-2.2712,-2.3021,-2.3346,-2.3692,-2.3976,-2.417,-2.419,-2.419,-2.419,-2.419,-2.419,-2.417,-2.3896,-2.3774,-2.3858,-2.3978,-2.4036,-2.4054,-2.4151,-2.441,-2.4887,-2.5017,-2.5305,-2.5972,-2.6042,-2.5814,-2.5455,-2.5868,-2.5941,-2.5817,-2.6015,-2.6185,-2.5895,-2.595,-2.6216,-2.6455,-2.702,-2.7566,-2.8112,-2.7858,-2.7835,-2.7948,-2.7438,-2.6521,-2.5642,-2.5219,-2.4815,-2.4263,-2.4339,-2.4495,-2.476,-2.4883,-2.503,-2.5243,-2.5303,-2.5313,-2.5313,-2.5313,-2.5313,-2.5313,-2.5313,-2.5313,-2.5313,-2.5313,-2.5313,-2.5313,-2.5313,-2.5313,-2.5313,-2.5313,-2.5203,-2.5034,-2.4937,-2.4809,-2.4588,-2.4392,-2.4321,-2.8975,-2.8863,-2.8219,-2.7419,-2.6639,-2.5863,-2.515,-2.4594,-2.5111,-2.4956,-2.4563,-2.5099,-2.4999,-2.4373,-2.4337,-2.4226,-2.4208,-2.4151,-2.417,-2.419,-2.417,-2.417,-2.419,-2.419,-2.4054,-2.3735,-2.3392,-2.323,-2.3141,-2.2848,-2.2686,-2.2634,-2.2436,-2.2321,-2.2327,-2.231,-2.2426,-2.2678,-2.2972,-2.3346,-2.3692,-2.3996,-2.417,-2.419,-2.419,-2.419,-2.419,-2.419,-2.419,-2.417,-2.3878,-2.3544,-2.3369,-2.3544,-2.3692,-2.3735,-2.3976,-2.4151,-2.4188,-2.4205,-2.4411,-2.4806,-2.4883,-2.4903,-2.4847,-2.5042,-2.5241,-2.5465,-2.5528,-2.5479,-2.5319,-2.5243,-2.5496,-2.6302,-2.6438,-2.6897,-2.7513,-2.7468,-2.7001,-2.6596,-2.5986,-2.5495,-2.5217,-2.4777,-2.4318,-2.4245,-2.4228,-2.4375,-2.4716,-2.4832,-2.4949,-2.5192,-2.5313,-2.5313,-2.5313,-2.5313,-2.5313,-2.5313,-2.5313,-2.5313,-2.5313,-2.5313,-2.5313,-2.5313,-2.5313,-2.5313,-2.5313,-2.5284,-2.5234,-2.5099,-2.5018,-2.4911,-2.4718,-2.4556,-2.4426,-2.8839,-2.854,-2.812,-2.7007,-2.5666,-2.5043,-2.4254,-2.3357,-2.3741,-2.391,-2.3979,-2.4361,-2.4428,-2.4263,-2.419,-2.419,-2.419,-2.419,-2.419,-2.419,-2.419,-2.419,-2.419,-2.419,-2.4016,-2.371,-2.3369,-2.3069,-2.2822,-2.2563,-2.2426,-2.2398,-2.2349,-2.231,-2.2327,-2.231,-2.2426,-2.2712,-2.3021,-2.3351,-2.3692,-2.4034,-2.419,-2.419,-2.419,-2.419,-2.419,-2.419,-2.419,-2.4208,-2.3896,-2.3544,-2.33,-2.33,-2.3346,-2.3369,-2.3437,-2.3522,-2.3522,-2.3522,-2.3589,-2.3713,-2.3743,-2.3642,-2.3563,-2.3977,-2.4431,-2.4794,-2.4946,-2.5048,-2.5121,-2.4816,-2.4815,-2.5041,-2.5615,-2.6184,-2.6702,-2.7012,-2.6339,-2.5038,-2.5061,-2.5144,-2.4704,-2.4245,-2.4208,-2.419,-2.419,-2.4339,-2.4685,-2.4804,-2.4942,-2.5233,-2.5253,-2.5313,-2.5313,-2.5313,-2.5313,-2.5313,-2.5313,-2.5313,-2.5313,-2.5313,-2.5313,-2.5255,-2.5255,-2.5274,-2.5274,-2.5274,-2.5224,-2.5135,-2.5031,-2.4936,-2.4839,-2.4553,-2.4198,-2.8773,-2.8358,-2.7745,-2.6581,-2.509,-2.4516,-2.367,-2.2833,-2.3189,-2.3504,-2.3753,-2.4054,-2.419,-2.419,-2.419,-2.419,-2.419,-2.419,-2.419,-2.419,-2.419,-2.419,-2.417,-2.4056,-2.3837,-2.3504,-2.3165,-2.2865,-2.2563,-2.2388,-2.2327,-2.231,-2.2327,-2.2327,-2.2327,-2.2327,-2.2426,-2.2695,-2.3021,-2.3369,-2.3692,-2.4016,-2.419,-2.419,-2.419,-2.419,-2.419,-2.419,-2.419,-2.4133,-2.3876,-2.3482,-2.3093,-2.3117,-2.3141,-2.3045,-2.3141,-2.3212,-2.3189,-2.3236,-2.3141,-2.3045,-2.3038,-2.2908,-2.2746,-2.3086,-2.3505,-2.4019,-2.4175,-2.4496,-2.4822,-2.4322,-2.3991,-2.4042,-2.4496,-2.5013,-2.5309,-2.5691,-2.5415,-2.428,-2.4333,-2.4456,-2.4335,-2.419,-2.419,-2.419,-2.419,-2.4339,-2.467,-2.4804,-2.5006,-2.519,-2.5274,-2.5313,-2.5313,-2.5313,-2.5313,-2.5313,-2.5313,-2.5313,-2.5313,-2.5313,-2.5293,-2.512,-2.5063,-2.5063,-2.5063,-2.5236,-2.5274,-2.5166,-2.4886,-2.461,-2.4295,-2.3803,-2.3517,-2.8731,-2.8224,-2.7228,-2.6096,-2.4906,-2.4188,-2.3473,-2.2917,-2.3346,-2.3671,-2.3795,-2.4074,-2.419,-2.419,-2.419,-2.419,-2.419,-2.419,-2.419,-2.419,-2.419,-2.419,-2.417,-2.3976,-2.3671,-2.3323,-2.2972,-2.2652,-2.2426,-2.2366,-2.2327,-2.2327,-2.2327,-2.2327,-2.2327,-2.2327,-2.2453,-2.2789,-2.3045,-2.3369,-2.3692,-2.3976,-2.4113,-2.4094,-2.4056,-2.4074,-2.4036,-2.4094,-2.4151,-2.4151,-2.3855,-2.3351,-2.2923,-2.3021,-2.2965,-2.2712,-2.2989,-2.3063,-2.3135,-2.3063,-2.2947,-2.2712,-2.2721,-2.2651,-2.2439,-2.2468,-2.2807,-2.3427,-2.3425,-2.3775,-2.4295,-2.3738,-2.3222,-2.3173,-2.3359,-2.3471,-2.3271,-2.3727,-2.3842,-2.3718,-2.3689,-2.3813,-2.4112,-2.4151,-2.419,-2.419,-2.4209,-2.4393,-2.467,-2.4847,-2.4981,-2.5126,-2.5274,-2.5313,-2.5313,-2.5313,-2.5313,-2.5313,-2.5313,-2.5313,-2.5274,-2.5274,-2.5082,-2.4928,-2.4678,-2.4716,-2.4716,-2.4755,-2.4755,-2.4543,-2.4264,-2.4023,-2.3654,-2.321,-2.3037,-2.8306,-2.7219,-2.6934,-2.5642,-2.3967,-2.3619,-2.3377,-2.3098,-2.3236,-2.3671,-2.3978,-2.4133,-2.419,-2.419,-2.419,-2.419,-2.419,-2.419,-2.419,-2.419,-2.419,-2.419,-2.4208,-2.4094,-2.3876,-2.3544,-2.3183,-2.2898,-2.2599,-2.2388,-2.2282,-2.2327,-2.2282,-2.2282,-2.2327,-2.2282,-2.2598,-2.2996,-2.3135,-2.3346,-2.3628,-2.3774,-2.3692,-2.3459,-2.3482,-2.35,-2.35,-2.3714,-2.3976,-2.4151,-2.3628,-2.3259,-2.3045,-2.2773,-2.2571,-2.2463,-2.2508,-2.2561,-2.2561,-2.2544,-2.2508,-2.2426,-2.247,-2.2405,-2.231,-2.2327,-2.2665,-2.3148,-2.309,-2.3124,-2.3653,-2.3112,-2.2298,-2.166,-2.2125,-2.2643,-2.2815,-2.3135,-2.3292,-2.308,-2.3392,-2.3692,-2.3816,-2.4054,-2.417,-2.417,-2.4228,-2.4358,-2.4689,-2.4818,-2.491,-2.5149,-2.5313,-2.5313,-2.5313,-2.5313,-2.5313,-2.5313,-2.5313,-2.5313,-2.5255,-2.5197,-2.487,-2.4533,-2.4005,-2.3889,-2.3812,-2.3793,-2.3774,-2.3966,-2.3765,-2.3563,-2.3189,-2.2774,-2.2687,-2.7987,-2.6756,-2.6302,-2.5045,-2.3481,-2.3361,-2.3284,-2.3283,-2.3504,-2.3816,-2.4151,-2.419,-2.419,-2.419,-2.419,-2.419,-2.419,-2.419,-2.419,-2.419,-2.419,-2.419,-2.4207,-2.4185,-2.3946,-2.35,-2.32,-2.2875,-2.2554,-2.236,-2.2192,-2.2003,-2.2003,-2.1915,-2.1721,-2.1974,-2.2153,-2.2521,-2.2805,-2.3093,-2.3277,-2.3414,-2.3414,-2.3212,-2.3189,-2.3189,-2.3236,-2.3392,-2.3649,-2.3855,-2.361,-2.3346,-2.3183,-2.2755,-2.2426,-2.2338,-2.2327,-2.2327,-2.2327,-2.2327,-2.2327,-2.231,-2.2327,-2.2327,-2.2327,-2.2327,-2.2564,-2.2806,-2.2438,-2.26,-2.2965,-2.248,-2.1559,-2.088,-2.1147,-2.1638,-2.1955,-2.2462,-2.2728,-2.2859,-2.3141,-2.3482,-2.3504,-2.3896,-2.4054,-2.4074,-2.4132,-2.4392,-2.47,-2.4775,-2.4896,-2.516,-2.5313,-2.5313,-2.5313,-2.5313,-2.5197,-2.5197,-2.5139,-2.5159,-2.4947,-2.4851,-2.4428,-2.3956,-2.3428,-2.3043,-2.2985,-2.309,-2.3494,-2.3543,-2.3351,-2.3062,-2.268,-2.2086,-2.2048,-2.7689,-2.6579,-2.5477,-2.4339,-2.3334,-2.3171,-2.3116,-2.3323,-2.3714,-2.4056,-2.417,-2.419,-2.419,-2.419,-2.419,-2.419,-2.419,-2.419,-2.419,-2.417,-2.4151,-2.4094,-2.4092,-2.419,-2.3826,-2.3312,-2.3003,-2.2703,-2.2432,-2.231,-2.2049,-2.1794,-2.1658,-2.1399,-2.1291,-2.1415,-2.1535,-2.189,-2.2361,-2.2626,-2.2729,-2.2905,-2.2912,-2.2855,-2.2989,-2.2989,-2.3038,-2.3135,-2.3282,-2.3566,-2.3606,-2.3369,-2.3117,-2.2822,-2.2563,-2.2349,-2.2327,-2.2327,-2.2327,-2.2327,-2.2327,-2.2327,-2.2327,-2.2327,-2.2327,-2.2327,-2.2361,-2.2446,-2.1869,-2.1929,-2.2086,-2.1732,-2.1132,-2.0508,-2.0423,-2.0663,-2.1055,-2.1751,-2.2343,-2.2634,-2.2947,-2.3117,-2.3323,-2.3649,-2.4054,-2.3917,-2.4057,-2.4444,-2.4716,-2.4842,-2.5,-2.5233,-2.5303,-2.5313,-2.5313,-2.5313,-2.5139,-2.5043,-2.4928,-2.4812,-2.437,-2.4159,-2.3812,-2.337,-2.2831,-2.2427,-2.2177,-2.2485,-2.3013,-2.2917,-2.2562,-2.2389,-2.2177,-2.1372,-2.1018,-2.7103,-2.5798,-2.4933,-2.3763,-2.2649,-2.2511,-2.2773,-2.3212,-2.3369,-2.3774,-2.4113,-2.419,-2.419,-2.419,-2.419,-2.419,-2.419,-2.419,-2.419,-2.417,-2.3896,-2.3834,-2.3871,-2.4024,-2.3795,-2.3277,-2.3003,-2.2676,-2.2349,-2.2209,-2.2049,-2.1628,-2.146,-2.1368,-2.1039,-2.1055,-2.1475,-2.1915,-2.2135,-2.218,-2.2207,-2.2262,-2.2235,-2.2074,-2.232,-2.248,-2.2544,-2.2704,-2.2848,-2.2898,-2.2923,-2.2898,-2.2797,-2.2581,-2.2405,-2.2338,-2.2327,-2.2327,-2.2327,-2.2327,-2.2327,-2.2327,-2.2327,-2.2327,-2.2327,-2.2282,-2.2282,-2.2209,-2.1869,-2.1388,-2.1001,-2.0717,-2.0534,-2.0444,-2.0616,-2.0975,-2.1415,-2.1658,-2.1998,-2.2337,-2.2634,-2.2805,-2.2848,-2.341,-2.3692,-2.3717,-2.406,-2.4493,-2.4697,-2.4883,-2.5072,-2.5264,-2.5303,-2.5293,-2.5236,-2.513,-2.4851,-2.4629,-2.4485,-2.4302,-2.386,-2.3505,-2.3178,-2.2735,-2.2197,-2.1831,-2.1466,-2.1966,-2.2504,-2.212,-2.1839,-2.1763,-2.1474,-2.0658,-2.0312,-2.644,-2.4984,-2.4244,-2.333,-2.24,-2.2453,-2.2755,-2.3165,-2.3369,-2.3714,-2.4113,-2.419,-2.419,-2.419,-2.419,-2.419,-2.419,-2.419,-2.4132,-2.3976,-2.3774,-2.361,-2.345,-2.3506,-2.3342,-2.2958,-2.2721,-2.2388,-2.2089,-2.1928,-2.1598,-2.1039,-2.1039,-2.0699,-2.0499,-2.0565,-2.0846,-2.1179,-2.1486,-2.1592,-2.1592,-2.1592,-2.1532,-2.1368,-2.1584,-2.1751,-2.1969,-2.2096,-2.2303,-2.2456,-2.2527,-2.2573,-2.2634,-2.2453,-2.231,-2.2327,-2.2327,-2.2327,-2.2327,-2.2327,-2.2327,-2.2327,-2.2327,-2.2327,-2.2225,-2.2123,-2.1957,-2.1823,-2.1368,-2.0699,-2.0124,-2.0035,-2.0124,-2.0599,-2.0829,-2.126,-2.1764,-2.1928,-2.1986,-2.2304,-2.2537,-2.2573,-2.2781,-2.32,-2.3392,-2.3459,-2.3908,-2.4334,-2.4727,-2.491,-2.5065,-2.5224,-2.5274,-2.5274,-2.5188,-2.4937,-2.4501,-2.4182,-2.3835,-2.3578,-2.3214,-2.2879,-2.2581,-2.212,-2.1639,-2.1062,-2.0831,-2.1408,-2.1839,-2.1666,-2.1463,-2.1278,-2.1016,-2.0646,-2.04,-2.5691,-2.4332,-2.3605,-2.2909,-2.24,-2.2537,-2.284,-2.323,-2.35,-2.3795,-2.4151,-2.419,-2.419,-2.419,-2.419,-2.419,-2.419,-2.4094,-2.3937,-2.3774,-2.3504,-2.3305,-2.3129,-2.2935,-2.279,-2.2625,-2.2453,-2.2118,-2.1869,-2.1598,-2.1337,-2.0583,-2.0348,-2.0227,-1.9929,-2.0035,-2.0314,-2.0534,-2.0797,-2.0927,-2.0943,-2.091,-2.091,-2.0926,-2.1055,-2.126,-2.1491,-2.1642,-2.1807,-2.218,-2.2237,-2.2409,-2.25,-2.2453,-2.2327,-2.2327,-2.2327,-2.2327,-2.2327,-2.2327,-2.2327,-2.2327,-2.218,-2.218,-2.2077,-2.1781,-2.1568,-2.1321,-2.0959,-2.0449,-1.998,-2.0085,-2.0398,-2.0862,-2.1086,-2.1477,-2.2065,-2.2327,-2.2282,-2.2293,-2.2426,-2.249,-2.2607,-2.29,-2.3038,-2.3287,-2.3773,-2.4208,-2.4625,-2.4962,-2.513,-2.5224,-2.5274,-2.5321,-2.5262,-2.5056,-2.4571,-2.3739,-2.3332,-2.2808,-2.2443,-2.1926,-2.1579,-2.1532,-2.11,-2.06,-2.0465,-2.1004,-2.1262,-2.1193,-2.1232,-2.1176,-2.0978,-2.0695,-2.0494,-2.4891,-2.4322,-2.3267,-2.2603,-2.2338,-2.2349,-2.2669,-2.3141,-2.3236,-2.3631,-2.4133,-2.419,-2.417,-2.419,-2.419,-2.419,-2.4113,-2.3937,-2.3753,-2.3544,-2.3212,-2.2873,-2.2781,-2.2588,-2.2432,-2.2377,-2.231,-2.2209,-2.1974,-2.1777,-2.1197,-2.0846,-2.0449,-2.007,-1.9818,-1.9818,-2.0,-2.0177,-2.0348,-2.0416,-2.0416,-2.0416,-2.0416,-2.0465,-2.0698,-2.0926,-2.1118,-2.1399,-2.1658,-2.1718,-2.2077,-2.2293,-2.236,-2.2321,-2.231,-2.2327,-2.2327,-2.2327,-2.2327,-2.2327,-2.2327,-2.2225,-2.2032,-2.1777,-2.1658,-2.1368,-2.1181,-2.1055,-2.0991,-2.0797,-2.0797,-2.0665,-2.0959,-2.1337,-2.1491,-2.1688,-2.2152,-2.2327,-2.2327,-2.231,-2.2377,-2.2415,-2.2517,-2.2738,-2.2989,-2.3383,-2.3913,-2.4331,-2.4693,-2.5,-2.5243,-2.5274,-2.5284,-2.5339,-2.5368,-2.512,-2.4696,-2.3512,-2.2823,-2.2008,-2.1535,-2.0855,-2.054,-2.0836,-2.0824,-2.0446,-2.0523,-2.0754,-2.0773,-2.0803,-2.0953,-2.112,-2.0816,-2.0512,-2.047,-2.429,-2.3713,-2.2833,-2.2426,-2.231,-2.2327,-2.2544,-2.2915,-2.2947,-2.3323,-2.3795,-2.3937,-2.4054,-2.4151,-2.419,-2.4132,-2.3935,-2.3795,-2.3522,-2.3165,-2.2848,-2.2625,-2.2527,-2.2349,-2.231,-2.2327,-2.2282,-2.2049,-2.1645,-2.1399,-2.0975,-2.0398,-2.007,-1.9889,-1.9762,-1.9726,-1.9818,-1.9965,-2.0,-2.0,-2.0,-2.0015,-2.0,-2.007,-2.0193,-2.0398,-2.0649,-2.0781,-2.1165,-2.1552,-2.1794,-2.2049,-2.2225,-2.2327,-2.2327,-2.2327,-2.2327,-2.231,-2.2327,-2.2327,-2.2327,-2.2282,-2.2061,-2.1823,-2.1568,-2.1291,-2.0894,-2.0731,-2.0649,-2.0764,-2.0942,-2.1039,-2.1213,-2.1491,-2.1628,-2.1823,-2.2135,-2.2282,-2.2327,-2.2327,-2.2338,-2.2349,-2.2388,-2.2634,-2.2965,-2.3458,-2.4045,-2.4449,-2.479,-2.5056,-2.5303,-2.5313,-2.5274,-2.526,-2.5139,-2.4762,-2.4377,-2.3294,-2.2422,-2.1604,-2.1021,-2.0526,-2.0464,-2.0657,-2.0488,-2.0311,-2.035,-2.0512,-2.0455,-2.045,-2.0615,-2.0701,-2.0517,-2.0357,-2.0326,-2.3749,-2.3045,-2.2535,-2.2327,-2.2327,-2.2327,-2.2436,-2.2669,-2.2797,-2.3165,-2.3631,-2.3795,-2.3976,-2.4151,-2.417,-2.4016,-2.3732,-2.3649,-2.3277,-2.2848,-2.2634,-2.249,-2.2377,-2.2327,-2.2327,-2.2327,-2.2299,-2.1869,-2.1368,-2.1118,-2.0565,-2.0139,-1.9818,-1.9705,-1.9705,-1.9705,-1.9705,-1.9705,-1.9705,-1.9705,-1.9705,-1.9705,-1.9705,-1.9705,-1.9705,-1.9874,-2.0158,-2.0348,-2.0667,-2.1165,-2.1521,-2.1764,-2.2106,-2.2254,-2.2327,-2.2327,-2.2327,-2.2338,-2.236,-2.231,-2.2321,-2.2398,-2.222,-2.1899,-2.143,-2.0959,-2.0599,-2.0449,-2.0483,-2.0781,-2.126,-2.1291,-2.1446,-2.1658,-2.1794,-2.1869,-2.2152,-2.2327,-2.2327,-2.2327,-2.2327,-2.2377,-2.2463,-2.2721,-2.3111,-2.3559,-2.4155,-2.4482,-2.4814,-2.5103,-2.5303,-2.5303,-2.5255,-2.5172,-2.4856,-2.4216,-2.3664,-2.2776,-2.2069,-2.137,-2.0906,-2.0455,-2.0519,-2.0566,-2.0468,-2.0328,-2.032,-2.0304,-2.034,-2.0371,-2.0386,-2.0376,-2.0337,-2.0332,-2.0324,-2.3109,-2.2746,-2.2409,-2.2327,-2.2327,-2.2327,-2.2436,-2.2712,-2.2947,-2.3328,-2.3671,-2.3976,-2.4094,-2.419,-2.417,-2.3996,-2.3692,-2.3369,-2.3063,-2.266,-2.2463,-2.2377,-2.231,-2.2327,-2.2327,-2.2327,-2.2327,-2.2003,-2.1491,-2.115,-2.0748,-2.0246,-1.9874,-1.9726,-1.9726,-1.9705,-1.9705,-1.9705,-1.969,-1.9654,-1.9617,-1.9617,-1.9654,-1.9654,-1.969,-1.9726,-1.9874,-2.0089,-2.0382,-2.055,-2.1228,-2.1582,-2.1764,-2.2106,-2.2254,-2.2327,-2.2338,-2.2415,-2.2537,-2.2463,-2.2426,-2.2456,-2.2136,-2.1568,-2.1181,-2.0632,-2.0379,-2.0926,-2.0926,-2.1229,-2.1827,-2.2065,-2.2163,-2.2135,-2.2106,-2.2152,-2.2327,-2.2327,-2.2327,-2.2327,-2.2327,-2.249,-2.2652,-2.2965,-2.33,-2.3767,-2.4192,-2.4551,-2.4836,-2.5138,-2.5303,-2.5303,-2.5005,-2.4874,-2.4418,-2.3814,-2.3061,-2.225,-2.1673,-2.115,-2.0831,-2.0508,-2.0484,-2.0489,-2.041,-2.0371,-2.0332,-2.0314,-2.0301,-2.0313,-2.0327,-2.0322,-2.0299,-2.0305,-2.0327,-2.2996,-2.2669,-2.2443,-2.2327,-2.2327,-2.2327,-2.236,-2.249,-2.2634,-2.2958,-2.3387,-2.3544,-2.3834,-2.4112,-2.4016,-2.3714,-2.3392,-2.3069,-2.2781,-2.2554,-2.2377,-2.2327,-2.2327,-2.2327,-2.2327,-2.2327,-2.2254,-2.2032,-2.1658,-2.1399,-2.1039,-2.0348,-2.0124,-1.9909,-1.9762,-1.9705,-1.9705,-1.9617,-1.9406,-1.908,-1.8968,-1.908,-1.9244,-1.9244,-1.9566,-1.969,-1.9762,-1.9839,-2.0089,-2.0314,-2.0943,-2.1352,-2.1628,-2.2015,-2.2332,-2.2527,-2.2527,-2.2573,-2.266,-2.2573,-2.2608,-2.2573,-2.2248,-2.1869,-2.1337,-2.0829,-2.0599,-2.1259,-2.1337,-2.1645,-2.2094,-2.2299,-2.2327,-2.2299,-2.2197,-2.2225,-2.2225,-2.2299,-2.2327,-2.2327,-2.2338,-2.25,-2.2738,-2.3021,-2.3401,-2.3928,-2.4332,-2.4689,-2.493,-2.516,-2.5264,-2.5313,-2.4889,-2.4471,-2.3908,-2.3309,-2.2571,-2.1817,-2.1306,-2.0878,-2.0742,-2.0565,-2.0547,-2.0547,-2.0527,-2.0469,-2.0391,-2.0341,-2.0319,-2.0294,-2.0294,-2.0307,-2.0313,-2.0342,-2.0347,-2.3003,-2.2686,-2.2415,-2.2327,-2.2327,-2.2327,-2.2327,-2.231,-2.2508,-2.2798,-2.3159,-2.3432,-2.3795,-2.4016,-2.3858,-2.3544,-2.3171,-2.283,-2.2563,-2.2405,-2.2327,-2.2327,-2.2327,-2.2327,-2.2327,-2.2327,-2.2327,-2.2135,-2.1928,-2.1658,-2.1306,-2.0348,-2.028,-2.0054,-1.9818,-1.969,-1.9639,-1.9406,-1.9118,-1.8703,-1.838,-1.8688,-1.8893,-1.908,-1.9369,-1.9705,-1.9705,-1.9726,-1.9909,-2.0314,-2.0781,-2.1213,-2.1598,-2.2032,-2.2398,-2.2643,-2.2721,-2.2898,-2.2947,-2.2923,-2.283,-2.2669,-2.233,-2.1869,-2.1598,-2.1213,-2.107,-2.1475,-2.1197,-2.1507,-2.1945,-2.202,-2.1857,-2.1857,-2.1886,-2.1961,-2.1991,-2.1915,-2.1945,-2.2003,-2.2101,-2.2446,-2.2712,-2.3063,-2.349,-2.4062,-2.4484,-2.4836,-2.5049,-2.5214,-2.5071,-2.5063,-2.463,-2.3989,-2.3121,-2.2552,-2.188,-2.1462,-2.0934,-2.0684,-2.0625,-2.0605,-2.0586,-2.0586,-2.0605,-2.0547,-2.0449,-2.039,-2.0324,-2.0302,-2.0295,-2.0314,-2.0344,-2.0371,-2.0361,-2.3021,-2.2686,-2.2398,-2.2327,-2.2327,-2.2327,-2.2327,-2.2366,-2.2857,-2.3111,-2.3323,-2.3795,-2.4074,-2.4094,-2.3816,-2.3459,-2.3189,-2.2873,-2.2554,-2.2377,-2.2327,-2.2327,-2.2327,-2.2327,-2.2327,-2.2327,-2.2327,-2.2282,-2.2209,-2.2032,-2.1368,-2.0483,-2.0434,-2.0089,-1.9803,-1.969,-1.9369,-1.908,-1.8803,-1.8496,-1.8263,-1.8458,-1.8803,-1.8968,-1.9369,-1.9705,-1.9705,-1.9705,-1.9854,-2.0261,-2.0731,-2.1118,-2.1507,-2.2073,-2.2473,-2.2764,-2.3045,-2.3259,-2.3437,-2.3305,-2.3147,-2.2863,-2.2361,-2.1777,-2.1582,-2.083,-2.0862,-2.1383,-2.107,-2.1023,-2.1306,-2.1385,-2.1323,-2.1354,-2.1432,-2.1432,-2.1432,-2.1323,-2.1385,-2.1552,-2.1878,-2.222,-2.2686,-2.3038,-2.3584,-2.4137,-2.4651,-2.5012,-2.5138,-2.5235,-2.487,-2.4639,-2.4283,-2.3493,-2.2264,-2.166,-2.1315,-2.1093,-2.074,-2.0625,-2.0605,-2.0605,-2.0605,-2.0605,-2.0586,-2.0547,-2.0488,-2.0422,-2.0346,-2.032,-2.0296,-2.0308,-2.0315,-2.0326,-2.0324,-2.2996,-2.2669,-2.2398,-2.2327,-2.2327,-2.2327,-2.2327,-2.2377,-2.273,-2.3159,-2.3522,-2.3976,-2.419,-2.4054,-2.361,-2.3346,-2.3135,-2.2643,-2.2426,-2.2366,-2.2327,-2.2327,-2.2327,-2.2327,-2.2327,-2.2327,-2.2327,-2.2327,-2.2282,-2.2077,-2.1524,-2.0926,-2.0682,-2.0261,-1.996,-1.9654,-1.9207,-1.865,-1.8341,-1.8013,-1.7422,-1.7973,-1.8419,-1.8458,-1.9332,-1.9654,-1.9705,-1.9705,-1.9833,-2.0085,-2.0632,-2.1023,-2.1413,-2.2079,-2.2625,-2.2972,-2.33,-2.3628,-2.3837,-2.3671,-2.3369,-2.2848,-2.2358,-2.1899,-2.1658,-2.1228,-2.107,-2.1102,-2.091,-2.0846,-2.1023,-2.1086,-2.1071,-2.1007,-2.0975,-2.091,-2.0894,-2.0862,-2.1086,-2.1368,-2.1672,-2.1994,-2.2485,-2.2996,-2.3611,-2.4225,-2.4719,-2.5138,-2.5243,-2.5197,-2.4841,-2.4282,-2.3887,-2.3292,-2.2117,-2.1448,-2.088,-2.0703,-2.0565,-2.0586,-2.0586,-2.0605,-2.0605,-2.0605,-2.0586,-2.0527,-2.0484,-2.0432,-2.0386,-2.0321,-2.0284,-2.0292,-2.0287,-2.0301,-2.0289,-2.3141,-2.2822,-2.2554,-2.236,-2.231,-2.2327,-2.2327,-2.2349,-2.2599,-2.3069,-2.3714,-2.4054,-2.4133,-2.3917,-2.35,-2.3117,-2.294,-2.2554,-2.2377,-2.2327,-2.2327,-2.2327,-2.2327,-2.2327,-2.2327,-2.2327,-2.2327,-2.2327,-2.2282,-2.1823,-2.1368,-2.1055,-2.0829,-2.0296,-1.9889,-1.9654,-1.9169,-1.838,-1.8185,-1.7787,-1.7063,-1.7827,-1.838,-1.8549,-1.9295,-1.9654,-1.9705,-1.9726,-1.9818,-2.0104,-2.055,-2.1023,-2.1488,-2.204,-2.278,-2.3189,-2.3522,-2.3855,-2.4016,-2.3876,-2.3455,-2.2972,-2.2422,-2.2039,-2.1718,-2.143,-2.0943,-2.1023,-2.0797,-2.0665,-2.0731,-2.0632,-2.0514,-2.0379,-2.0413,-2.0413,-2.0532,-2.0565,-2.091,-2.1228,-2.1444,-2.1655,-2.2319,-2.2909,-2.3797,-2.4375,-2.486,-2.5182,-2.5253,-2.513,-2.4812,-2.4184,-2.3477,-2.2835,-2.2113,-2.1318,-2.0643,-2.0636,-2.0541,-2.0565,-2.0586,-2.0586,-2.0605,-2.0605,-2.0566,-2.0527,-2.0482,-2.0432,-2.0371,-2.0302,-2.0301,-2.0296,-2.0296,-2.0292,-2.0288,-2.3482,-2.3165,-2.2822,-2.2537,-2.2338,-2.2327,-2.2327,-2.2321,-2.2573,-2.3045,-2.3649,-2.3996,-2.3976,-2.3692,-2.3305,-2.3069,-2.2781,-2.2453,-2.2327,-2.2327,-2.2327,-2.2327,-2.2327,-2.2327,-2.2327,-2.2327,-2.2299,-2.2282,-2.2225,-2.1735,-2.1337,-2.0926,-2.0499,-2.0139,-1.9726,-1.969,-1.9118,-1.8327,-1.8574,-1.8052,-1.7666,-1.821,-1.8664,-1.8893,-1.9369,-1.969,-1.9705,-1.9705,-1.9818,-2.0089,-2.055,-2.1023,-2.1444,-2.2169,-2.278,-2.3189,-2.3522,-2.3855,-2.4113,-2.3876,-2.3544,-2.3117,-2.2556,-2.1977,-2.1521,-2.1039,-2.055,-2.0665,-2.0311,-2.007,-2.0035,-2.007,-1.996,-1.9925,-1.996,-2.0015,-2.0139,-2.0208,-2.0532,-2.0878,-2.1023,-2.1243,-2.2023,-2.2834,-2.3878,-2.4565,-2.5022,-2.5224,-2.5264,-2.4773,-2.4356,-2.4014,-2.3222,-2.246,-2.176,-2.0973,-2.0464,-2.0475,-2.051,-2.0536,-2.0562,-2.0566,-2.0586,-2.0586,-2.0586,-2.0547,-2.0486,-2.0455,-2.0371,-2.0294,-2.0284,-2.0292,-2.0292,-2.0289,-2.0299,-2.3649,-2.35,-2.2947,-2.266,-2.2554,-2.236,-2.2327,-2.2349,-2.2616,-2.2972,-2.3369,-2.3714,-2.3674,-2.3374,-2.3236,-2.2996,-2.2686,-2.2426,-2.2327,-2.2327,-2.2327,-2.2327,-2.2327,-2.2327,-2.2327,-2.2327,-2.2282,-2.2077,-2.1811,-2.1399,-2.0975,-2.0516,-2.0158,-1.9854,-1.9639,-1.9406,-1.8727,-1.8249,-1.821,-1.8013,-1.7544,-1.8327,-1.893,-1.8968,-1.9442,-1.969,-1.9705,-1.9705,-1.9818,-1.9965,-2.0364,-2.0781,-2.1259,-2.1927,-2.2583,-2.3076,-2.3522,-2.3855,-2.4094,-2.4016,-2.3756,-2.323,-2.2634,-2.1948,-2.1275,-2.0991,-2.0632,-2.0261,-2.0015,-1.9874,-1.9818,-1.9818,-1.9797,-1.9762,-1.9797,-1.9782,-1.9854,-1.9854,-2.0015,-2.0449,-2.0715,-2.1619,-2.2418,-2.3005,-2.3934,-2.4388,-2.4748,-2.509,-2.5207,-2.4191,-2.3504,-2.3494,-2.3011,-2.2183,-2.1422,-2.0772,-2.0451,-2.0499,-2.0497,-2.047,-2.0504,-2.0561,-2.0566,-2.0586,-2.0566,-2.0565,-2.0521,-2.0469,-2.0353,-2.0289,-2.03,-2.0292,-2.0292,-2.0292,-2.03,-2.3834,-2.3649,-2.3236,-2.2972,-2.284,-2.2463,-2.2327,-2.2349,-2.2573,-2.283,-2.3069,-2.3351,-2.3328,-2.3117,-2.2996,-2.2865,-2.2563,-2.2415,-2.2327,-2.2327,-2.2327,-2.2327,-2.2327,-2.2327,-2.2327,-2.2282,-2.2077,-2.1869,-2.1628,-2.1039,-2.055,-2.0124,-1.9823,-1.9588,-1.9406,-1.9006,-1.865,-1.8341,-1.8263,-1.838,-1.8288,-1.8688,-1.9207,-1.9281,-1.9493,-1.9705,-1.9705,-1.9705,-1.9741,-1.9818,-2.0089,-2.0516,-2.1054,-2.1694,-2.2354,-2.2912,-2.3459,-2.3816,-2.4094,-2.3837,-2.3526,-2.3212,-2.2704,-2.2051,-2.1352,-2.1086,-2.0632,-2.0243,-1.9945,-1.9818,-1.9782,-1.9762,-1.9726,-1.9726,-1.9726,-1.9726,-1.9839,-1.9839,-1.9803,-2.0227,-2.0585,-2.1611,-2.2735,-2.3376,-2.4025,-2.4241,-2.4442,-2.4819,-2.5111,-2.4171,-2.323,-2.3094,-2.2904,-2.2172,-2.1418,-2.0737,-2.0519,-2.0504,-2.0555,-2.0597,-2.051,-2.0565,-2.0566,-2.0585,-2.0664,-2.068,-2.0584,-2.0531,-2.063,-2.0506,-2.0296,-2.0289,-2.0292,-2.0292,-2.0292,-2.4016,-2.3753,-2.371,-2.3482,-2.3141,-2.2598,-2.2338,-2.2321,-2.2546,-2.2669,-2.2721,-2.3045,-2.2996,-2.2746,-2.2721,-2.259,-2.2388,-2.231,-2.231,-2.2327,-2.2327,-2.2327,-2.2327,-2.2327,-2.2225,-2.2077,-2.1869,-2.1628,-2.1444,-2.0715,-2.0104,-1.9803,-1.9624,-1.9369,-1.9095,-1.8803,-1.8535,-1.8302,-1.838,-1.8535,-1.8688,-1.9244,-1.9493,-1.9617,-1.9654,-1.9705,-1.9705,-1.9705,-1.9705,-1.9818,-2.0035,-2.0483,-2.1054,-2.1665,-2.218,-2.2737,-2.3328,-2.3735,-2.3976,-2.361,-2.3437,-2.3259,-2.2919,-2.23,-2.1711,-2.1244,-2.0878,-2.055,-2.0314,-2.007,-1.9889,-1.9818,-1.9767,-1.9747,-1.9726,-1.9818,-2.0035,-1.9984,-1.9894,-2.0054,-2.023,-2.1082,-2.2462,-2.3293,-2.4042,-2.4454,-2.467,-2.4888,-2.5037,-2.4608,-2.3719,-2.3032,-2.2741,-2.2187,-2.1508,-2.099,-2.1171,-2.1366,-2.0948,-2.0882,-2.0753,-2.0937,-2.1288,-2.1366,-2.0957,-2.0932,-2.1316,-2.1309,-2.1127,-2.0907,-2.0592,-2.0311,-2.0304,-2.0292,-2.0292,-2.4151,-2.4036,-2.3795,-2.3649,-2.3477,-2.2865,-2.2473,-2.2321,-2.2388,-2.2398,-2.2426,-2.2712,-2.2704,-2.2436,-2.2625,-2.2517,-2.2405,-2.2327,-2.2327,-2.2327,-2.2327,-2.2327,-2.2282,-2.2254,-2.2106,-2.1869,-2.1598,-2.1228,-2.0715,-2.0104,-1.9909,-1.9711,-1.9442,-1.9132,-1.8855,-1.8535,-1.8341,-1.8263,-1.8419,-1.865,-1.9006,-1.9442,-1.9654,-1.9705,-1.9705,-1.9705,-1.9705,-1.9705,-1.9705,-1.9762,-1.9818,-2.0174,-2.0991,-2.1259,-2.1622,-2.2643,-2.3117,-2.3459,-2.3692,-2.3437,-2.3277,-2.3392,-2.3194,-2.2487,-2.1915,-2.1535,-2.1274,-2.0991,-2.0814,-2.0601,-2.0227,-2.0035,-1.9859,-1.9747,-1.9726,-1.9747,-1.9859,-1.9737,-1.9645,-1.9456,-1.9626,-2.0703,-2.2078,-2.3315,-2.4023,-2.4553,-2.4954,-2.5106,-2.5096,-2.4691,-2.3992,-2.3266,-2.3041,-2.2629,-2.2076,-2.153,-2.1934,-2.2186,-2.1754,-2.1596,-2.1961,-2.2183,-2.2341,-2.2284,-2.2069,-2.2183,-2.2463,-2.2315,-2.2017,-2.1366,-2.0978,-2.0611,-2.0325,-2.0364,-2.0323,-2.419,-2.417,-2.3996,-2.3816,-2.3628,-2.3117,-2.273,-2.249,-2.2349,-2.2327,-2.2293,-2.2463,-2.2436,-2.2377,-2.2463,-2.2453,-2.231,-2.2327,-2.2327,-2.2327,-2.2327,-2.2327,-2.2282,-2.2106,-2.1869,-2.1582,-2.1212,-2.0781,-2.0296,-1.9945,-1.9726,-1.969,-1.9332,-1.9095,-1.8893,-1.865,-1.8549,-1.8472,-1.8549,-1.8727,-1.9132,-1.953,-1.9654,-1.9705,-1.9705,-1.9705,-1.9705,-1.9705,-1.9705,-1.9705,-1.9705,-2.0015,-2.0731,-2.1055,-2.1639,-2.2565,-2.2873,-2.3165,-2.341,-2.3346,-2.3346,-2.3414,-2.3346,-2.293,-2.2609,-2.23,-2.184,-2.1428,-2.135,-2.1179,-2.0684,-2.0246,-2.0,-1.9747,-1.9675,-1.9603,-1.9515,-1.9391,-1.914,-1.8849,-1.9435,-2.0464,-2.168,-2.2963,-2.4042,-2.4611,-2.5015,-2.5232,-2.5239,-2.5027,-2.4169,-2.3256,-2.3309,-2.3238,-2.268,-2.2262,-2.263,-2.2823,-2.2572,-2.2591,-2.3086,-2.3105,-2.293,-2.3105,-2.3338,-2.3359,-2.3301,-2.3203,-2.2903,-2.2198,-2.1503,-2.1143,-2.0787,-2.0543,-2.0475,-2.419,-2.419,-2.419,-2.3996,-2.3671,-2.3323,-2.2996,-2.2686,-2.2398,-2.2327,-2.231,-2.231,-2.2338,-2.231,-2.2349,-2.2349,-2.2327,-2.2327,-2.2327,-2.2299,-2.2327,-2.2282,-2.2049,-2.184,-2.1568,-2.1228,-2.0862,-2.0449,-2.0193,-1.9909,-1.9705,-1.9705,-1.953,-1.9332,-1.9095,-1.8893,-1.8817,-1.8968,-1.908,-1.9303,-1.953,-1.969,-1.9705,-1.9705,-1.9705,-1.9705,-1.9705,-1.9705,-1.9705,-1.9705,-1.9762,-1.9945,-2.0565,-2.1134,-2.1903,-2.2341,-2.2652,-2.294,-2.3135,-2.3141,-2.33,-2.3323,-2.3259,-2.3259,-2.3106,-2.2888,-2.2424,-2.2113,-2.2023,-2.1543,-2.1022,-2.042,-2.0008,-1.9543,-1.9244,-1.8954,-1.8608,-1.8363,-1.7984,-1.7956,-1.8587,-1.9694,-2.1213,-2.2474,-2.3824,-2.4542,-2.508,-2.5327,-2.535,-2.524,-2.4542,-2.3561,-2.3912,-2.3979,-2.3294,-2.3026,-2.3318,-2.3396,-2.332,-2.3516,-2.3984,-2.3789,-2.3398,-2.3848,-2.4336,-2.4082,-2.3965,-2.3848,-2.3535,-2.2836,-2.222,-2.1747,-2.1317,-2.0823,-2.0541,-2.419,-2.419,-2.419,-2.3996,-2.3653,-2.3346,-2.3003,-2.2669,-2.2426,-2.2327,-2.2327,-2.2327,-2.2327,-2.2327,-2.2327,-2.2327,-2.2327,-2.2327,-2.2327,-2.2254,-2.2254,-2.2003,-2.1794,-2.1538,-2.1228,-2.0748,-2.0348,-2.0124,-1.9945,-1.9762,-1.969,-1.9654,-1.9479,-1.9244,-1.9406,-1.9207,-1.9118,-1.9369,-1.9645,-1.9681,-1.9747,-1.9726,-1.9705,-1.9705,-1.9705,-1.969,-1.969,-1.9654,-1.969,-1.9705,-1.9705,-2.012,-2.0797,-2.1306,-2.1836,-2.2287,-2.248,-2.2721,-2.3014,-2.3093,-2.3212,-2.3678,-2.3821,-2.372,-2.3552,-2.3351,-2.3117,-2.2855,-2.2487,-2.1933,-2.1299,-2.0637,-1.9928,-1.9353,-1.8765,-1.826,-1.7706,-1.7193,-1.6822,-1.7249,-1.7818,-1.9075,-2.0603,-2.2082,-2.3412,-2.4335,-2.5022,-2.5394,-2.5489,-2.5405,-2.5047,-2.4419,-2.4879,-2.4809,-2.4023,-2.3848,-2.416,-2.4355,-2.4355,-2.459,-2.4863,-2.4687,-2.4492,-2.4941,-2.5273,-2.4922,-2.4629,-2.4473,-2.4062,-2.3555,-2.269,-2.2112,-2.1388,-2.0837,-2.0603,-2.419,-2.419,-2.419,-2.4094,-2.3855,-2.3392,-2.3093,-2.2873,-2.248,-2.2327,-2.2327,-2.2327,-2.2327,-2.2327,-2.2327,-2.2327,-2.2327,-2.2327,-2.2106,-2.2032,-2.1928,-2.1675,-2.143,-2.1165,-2.0797,-2.0348,-2.0104,-1.9909,-1.9726,-1.9705,-1.969,-1.9654,-1.9369,-1.9369,-1.9654,-1.9406,-1.9369,-1.9675,-1.998,-1.9965,-1.9874,-1.9945,-1.9818,-1.9818,-1.969,-1.9639,-1.9369,-1.9347,-1.9332,-1.9457,-1.9566,-2.0189,-2.0764,-2.1181,-2.1715,-2.2226,-2.248,-2.2544,-2.2915,-2.3141,-2.3236,-2.3741,-2.4248,-2.408,-2.4099,-2.3886,-2.3552,-2.3293,-2.3003,-2.2479,-2.1464,-2.0734,-1.9893,-1.92,-1.8559,-1.7946,-1.6876,-1.5886,-1.591,-1.6341,-1.7156,-1.8364,-2.0018,-2.1977,-2.3226,-2.4228,-2.4881,-2.5304,-2.5425,-2.5549,-2.5188,-2.5058,-2.5388,-2.5195,-2.4375,-2.4512,-2.5059,-2.5215,-2.5215,-2.5254,-2.5312,-2.5488,-2.5664,-2.5644,-2.5625,-2.5586,-2.5312,-2.5059,-2.5019,-2.4687,-2.3555,-2.2401,-2.166,-2.0996,-2.0859,-2.419,-2.4208,-2.4151,-2.4132,-2.4016,-2.3414,-2.3117,-2.3021,-2.2544,-2.2327,-2.2327,-2.2327,-2.2327,-2.2327,-2.2327,-2.2327,-2.2254,-2.2135,-2.1882,-2.1718,-2.1568,-2.1275,-2.091,-2.0583,-2.0348,-2.0158,-1.9909,-1.9818,-1.9741,-1.9705,-1.9705,-1.9705,-1.9705,-1.9705,-1.9705,-1.9705,-1.969,-1.9747,-1.9874,-2.0,-2.0089,-2.0212,-2.0019,-1.9839,-1.9675,-1.9406,-1.9095,-1.8893,-1.893,-1.9006,-1.9281,-1.9984,-2.0599,-2.0975,-2.1562,-2.2062,-2.236,-2.2581,-2.294,-2.3141,-2.3374,-2.3783,-2.4265,-2.4476,-2.4476,-2.4264,-2.3928,-2.3476,-2.3223,-2.2565,-2.1549,-2.0475,-1.9596,-1.8631,-1.7972,-1.7246,-1.591,-1.479,-1.5118,-1.5487,-1.6565,-1.7719,-1.9489,-2.1485,-2.2792,-2.3805,-2.4604,-2.4973,-2.5274,-2.5403,-2.5328,-2.5271,-2.5455,-2.5117,-2.4687,-2.4941,-2.5488,-2.5527,-2.5469,-2.5605,-2.5703,-2.5703,-2.5703,-2.5684,-2.5684,-2.5703,-2.5703,-2.5488,-2.5508,-2.5371,-2.4062,-2.2676,-2.2012,-2.1445,-2.1289,-2.419,-2.4152,-2.3917,-2.3795,-2.3692,-2.3093,-2.2797,-2.2764,-2.2453,-2.2327,-2.2254,-2.2282,-2.2327,-2.2299,-2.2327,-2.2254,-2.2152,-2.1957,-2.1748,-2.1598,-2.1197,-2.0813,-2.0516,-2.0296,-2.0089,-1.9909,-1.9797,-1.9726,-1.9654,-1.969,-1.969,-1.9654,-1.969,-1.969,-1.969,-1.969,-1.9726,-1.9762,-1.9909,-2.007,-1.9839,-1.9929,-2.0035,-1.9945,-1.9874,-1.9427,-1.9058,-1.8893,-1.8612,-1.8574,-1.8841,-1.96,-2.0246,-2.0781,-2.1319,-2.1845,-2.2147,-2.2537,-2.2822,-2.3093,-2.3397,-2.3947,-2.4369,-2.4623,-2.4554,-2.4364,-2.3857,-2.3145,-2.2698,-2.1976,-2.0938,-1.9652,-1.8627,-1.7491,-1.6634,-1.576,-1.4664,-1.4365,-1.4411,-1.5028,-1.5855,-1.7183,-1.8679,-2.0416,-2.1875,-2.297,-2.426,-2.4678,-2.5176,-2.531,-2.539,-2.5427,-2.5483,-2.5547,-2.5371,-2.5234,-2.5547,-2.5625,-2.5664,-2.5664,-2.5684,-2.5703,-2.5703,-2.5703,-2.5703,-2.5703,-2.5703,-2.5703,-2.5391,-2.5059,-2.4004,-2.293,-2.2344,-2.1894,-2.1699]},{"header":{"parameterUnit":"m.s-1","parameterCategory":1,"la1":31.0,"la2":29.5877,"lo1":-88.7671,"lo2":-86.6584,"dy":0.0162,"dx":0.0185,"nx":115,"ny":88,"refTime":"2024-07-27T12:00:00:Z","depth":0,"parameterNumber":3,"parameterNumberName":"V-component_of_WINDS"},"data":[0.0,0.0,0.0,0.0,0.0,0.0,0.0,0.0,0.0,0.0,0.0,0.0,0.0,0.0,0.0,0.0,0.0,0.0,0.0,0.0,0.0,0.0,0.0,0.0,0.0,0.0,0.0,0.0,0.0,0.0,0.0,0.0,0.0,0.0,0.0,0.0,0.0,0.0,0.0,0.0,0.0,0.0,0.0,0.0,0.0,0.0,0.0,0.0,0.0,0.0,0.0,0.0,0.0,0.0,0.0,0.0,0.0,0.0,0.0,0.0,0.0,0.0,0.0,0.0,0.0,0.0,0.0,0.0,0.0,0.0,0.0,0.0,0.0,0.0,0.0,0.0,0.0,0.0,0.0,0.0,0.0,0.0,0.0,0.0,0.0,0.0,0.0,0.0,0.0,0.0,0.0,0.0,0.0,0.0,0.0,0.0,0.0,0.0,0.0,0.0,0.0,0.0,0.0,0.0,0.0,0.0,0.0,0.0,0.0,0.0,0.0,0.0,0.0,0.0,0.0,0.0,0.0,0.0,0.0,0.0,0.0,0.0,0.0,0.0,0.0,0.0,0.0,0.0,0.0,0.0,0.0,0.0,0.0,0.0,0.0,0.0,0.0,0.0,0.0,0.0,0.0,0.0,0.0,0.0,0.0,0.0,0.0,0.0,0.0,0.0,0.0,0.0,0.0,0.0,0.0,0.0,0.0,0.0,0.0,0.0,0.0,0.0,0.0,0.0,0.0,0.0,0.0,0.0,0.0,0.0,0.0,0.0,0.0,0.0,0.0,0.0,0.0,0.0,0.0,0.0,0.0,0.0,0.0,0.0,0.0,0.0,0.0,0.0,0.0,0.0,0.0,0.0,0.0,0.0,0.0,0.0,0.0,0.0,0.0,0.0,0.0,0.0,0.0,0.0,0.0,0.0,0.0,0.0,0.0,0.0,0.0,0.0,0.0,0.0,0.0,0.0,0.0,0.0,0.0,0.0,0.0,0.0,0.0,0.0,0.0,0.0,0.0,0.0,0.0,0.0,0.0,0.0,0.0,0.0,0.0,0.0,0.0,0.0,0.0,0.0,0.0,0.0,0.0,0.0,0.0,0.0,0.0,0.0,0.0,0.0,0.0,0.0,0.0,0.0,0.0,0.0,0.0,0.0,0.0,0.0,0.0,0.0,0.0,0.0,0.0,0.0,0.0,0.0,0.0,0.0,0.0,0.0,0.0,0.0,0.0,0.0,0.0,0.0,0.0,0.0,0.0,0.0,0.0,0.0,0.0,0.0,0.0,0.0,0.0,0.0,0.0,0.0,0.0,0.0,0.0,0.0,0.0,0.0,0.0,0.0,0.0,0.0,0.0,0.0,0.0,0.0,0.0,0.0,0.0,0.0,0.0,0.0,0.0,0.0,0.0,0.0,0.0,0.0,0.0,0.0,0.0,0.0,0.0,0.0,0.0,0.0,0.0,0.0,0.0,0.0,0.0,0.0,0.0,0.0,0.0,0.0,0.0,0.0,0.0,0.0,0.0,0.0,0.0,0.0,0.0,0.0,0.0,0.0,0.0,0.0,0.0,0.0,0.0,0.0,0.0,0.0,0.0,0.0,0.0,0.0,0.0,0.0,0.0,0.0,0.0,0.0,0.0,0.0,0.0,0.0,0.0,0.0,0.0,0.0,0.0,0.0,0.0,0.0,0.0,0.0,0.0,0.0,0.0,0.0,0.0,0.0,0.0,0.0,0.0,0.0,0.0,0.0,0.0,0.0,0.0,0.0,0.0,0.0,0.0,0.0,0.0,0.0,0.0,0.0,0.0,0.0,0.0,0.0,0.0,0.0,0.0,0.0,0.0,0.0,0.0,0.0,0.0,0.0,0.0,0.0,0.0,0.0,0.0,0.0,0.0,0.0,0.0,0.0,0.0,0.0,0.0,0.0,0.0,0.0,0.0,0.0,0.0,0.0,0.0,0.0,0.0,0.0,0.0,0.0,0.0,0.0,0.0,0.0,0.0,0.0,0.0,0.0,0.0,0.0,0.0,0.0,0.0,0.0,0.0,0.0,0.0,0.0,0.0,0.0,0.0,0.0,0.0,0.0,0.0,0.0,0.0,0.0,0.0,0.0,0.0,0.0,0.0,0.0,0.0,0.0,0.0,0.0,0.0,0.0,0.0,0.0,0.0,0.0,0.0,0.0,0.0,0.0,0.0,0.0,0.0,0.0,0.0,0.0,0.0,0.0,0.0,0.0,0.0,0.0,0.0,0.0,0.0,0.0,0.0,0.0,0.0,0.0,0.0,0.0,0.0,0.0,0.0,0.0,0.0,0.0,0.0,0.0,0.0,0.0,0.0,0.0,0.0,0.0,0.0,0.0,0.0,0.0,0.0,0.0,0.0,0.0,0.0,0.0,0.0,0.0,0.0,0.0,0.0,0.0,0.0,0.0,0.0,0.0,0.0,0.0,0.0,0.0,0.0,0.0,0.0,0.0,0.0,0.0,0.0,0.0,0.0,0.0,0.0,0.0,0.0,0.0,0.0,0.0,0.0,0.0,0.0,0.0,0.0,0.0,0.0,0.0,0.0,0.0,0.0,0.0,0.0,0.0,0.0,0.0,0.0,0.0,0.0,0.0,0.0,0.0,0.0,0.0,0.0,0.0,0.0,0.0,0.0,0.0,0.0,0.0,0.0,0.0,0.0,0.0,0.0,0.0,0.0,0.0,0.0,0.0,0.0,0.0,0.0,0.0,0.0,0.0,0.0,0.0,0.0,0.0,0.0,0.0,0.0,0.0,0.0,0.0,0.0,0.0,0.0,0.0,0.0,0.0,0.0,0.0,0.0,0.0,0.0,0.0,0.0,0.0,0.0,0.0,0.0,0.0,0.0,0.0,0.0,0.0,0.0,0.0,0.0,0.0,0.0,0.0,0.0,0.0,0.0,0.0,0.0,0.0,0.0,0.0,0.0,0.0,0.0,0.0,0.0,0.0,0.0,0.0,0.0,0.0,0.0,0.0,0.0,0.0,0.0,0.0,0.0,0.0,0.0,0.0,0.0,0.0,0.0,0.0,0.0,0.0,0.0,0.0,0.0,0.0,0.0,0.0,0.0,0.0,0.0,0.0,0.0,0.0,0.0,0.0,0.0,0.0,0.0,0.0,0.0,0.0,0.0,0.0,0.0,0.0,0.0,0.0,0.0,0.0,0.0,0.0,0.0,0.0,0.0,0.0,0.0,0.0,0.0,0.0,0.0,0.0,0.0,0.0,0.0,0.0,0.0,0.0,0.0,0.0,0.0,0.0,0.0,0.0,0.0,0.0,0.0,0.0,0.0,0.0,0.0,0.0,0.0,0.0,0.0,0.0,0.0,0.0,0.0,0.0,0.0,0.0,0.0,0.0,0.0,0.0,0.0,0.0,0.0,0.0,0.0,0.0,0.0,0.0,0.0,0.0,0.0,0.0,0.0,0.0,0.0,0.0,0.0,0.0,0.0,0.0,0.0,0.0,0.0,0.0,0.0,0.0,0.0,0.0,0.0,0.0,0.0,0.0,0.0,0.0,0.0,0.0,0.0,0.0,0.0,0.0,0.0,0.0,0.0,0.0,0.0,0.0,0.0,0.0,0.0,0.0,0.0,0.0,0.0,0.0,0.0,0.0,0.0,0.0,0.0,0.0,0.0,0.0,0.0,0.0,0.0,0.0,0.0,0.0,0.0,0.0,0.0,0.0,0.0,0.0,0.0,0.0,0.0,0.0,0.0,0.0,0.0,0.0,0.0,0.0,0.0,0.0,0.0,0.0,0.0,0.0,0.0,0.0,0.0,0.0,0.0,0.0,0.0,0.0,0.0,0.0,0.0,0.0,0.0,0.0,0.0,0.0,0.0,0.0,0.0,0.0,0.0,0.0,0.0,0.0,0.0,0.0,0.0,0.0,0.0,0.0,0.0,0.0,0.0,0.0,0.0,0.0,0.0,0.0,0.0,0.0,0.0,0.0,0.0,0.0,0.0,0.0,0.0,0.0,0.0,0.0,0.0,0.0,0.0,0.0,0.0,0.0,0.0,0.0,0.0,0.0,0.0,0.0,0.0,0.0,0.0,0.0,0.0,0.0,0.0,0.0,0.0,0.0,0.0,0.0,0.0,0.0,0.0,0.0,0.0,0.0,0.0,0.0,0.0,0.0,0.0,0.0,0.0,0.0,0.0,0.0,0.0,0.0,0.0,0.0,0.0,0.0,0.0,0.0,0.0,0.0,0.0,0.0,0.0,0.0,0.0,0.0,0.0,0.0,0.0,0.0,0.0,0.0,0.0,0.0,-1.0028,0.0,0.0,0.0,0.0,0.0,0.0,0.0,0.0,0.0,0.0,0.0,0.0,0.0,0.0,0.0,0.0,0.0,0.0,0.0,0.0,0.0,0.0,0.0,0.0,0.0,0.0,0.0,0.0,0.0,0.0,0.0,0.0,0.0,0.0,0.0,0.0,0.0,0.0,0.0,0.0,0.0,0.0,0.0,0.0,0.0,0.0,0.0,0.0,0.0,0.0,0.0,0.0,0.0,0.0,0.0,0.0,0.0,0.0,0.0,0.0,0.0,0.0,0.0,0.0,0.0,0.0,0.0,0.0,0.0,0.0,0.0,0.0,0.0,0.0,0.0,0.0,0.0,0.0,0.0,0.0,0.0,0.0,0.0,0.0,0.0,0.0,0.0,0.0,0.0,0.0,0.0,0.0,0.0,0.0,0.0,0.0,0.0,0.0,0.0,0.0,0.0,0.0,0.0,0.0,0.0,0.0,0.0,0.0,0.0,0.0,-1.315,-1.2421,-1.2818,-1.235,-1.0931,0.0,0.0,0.0,0.0,0.0,0.0,0.0,0.0,0.0,0.0,0.0,0.0,0.0,0.0,0.0,0.0,0.0,0.0,0.0,0.0,0.0,0.0,0.0,0.0,0.0,0.0,0.0,0.0,0.0,0.0,0.0,0.0,0.0,0.0,0.0,0.0,0.0,0.0,0.0,0.0,0.0,0.0,0.0,0.0,0.0,0.0,0.0,0.0,0.0,0.0,0.0,0.0,0.0,0.0,0.0,0.0,0.0,0.0,0.0,0.0,0.0,0.0,0.0,0.0,0.0,0.0,0.0,0.0,0.0,0.0,0.0,0.0,0.0,0.0,0.0,0.0,0.0,0.0,0.0,0.0,0.0,0.0,0.0,0.0,0.0,0.0,0.0,0.0,0.0,0.0,0.0,0.0,0.0,0.0,0.0,0.0,0.0,0.0,0.0,0.0,0.0,0.0,0.0,0.0,0.0,0.0,0.0,0.0,0.0,0.0,0.0,0.0,-1.3599,-1.3,-1.1445,0.0,0.0,0.0,0.0,0.0,0.0,0.0,0.0,0.0,0.0,0.0,0.0,0.0,0.0,0.0,0.0,0.0,0.0,0.0,0.0,0.0,0.0,0.0,0.0,0.0,0.0,0.0,0.0,0.0,0.0,0.0,0.0,0.0,0.0,0.0,0.0,0.0,0.0,0.0,0.0,0.0,0.0,0.0,0.0,0.0,0.0,0.0,0.0,0.0,0.0,0.0,0.0,0.0,0.0,0.0,0.0,0.0,0.0,0.0,0.0,0.0,0.0,0.0,0.0,0.0,0.0,0.0,0.0,0.0,0.0,0.0,0.0,0.0,0.0,0.0,0.0,0.0,0.0,0.0,0.0,0.0,0.0,0.0,0.0,0.0,0.0,0.0,0.0,0.0,0.0,0.0,0.0,0.0,0.0,0.0,0.0,0.0,0.0,0.0,0.0,0.0,0.0,0.0,0.0,0.0,0.0,0.0,0.0,0.0,0.0,-1.4248,-1.4609,-1.4483,0.0,-1.0391,0.0,0.0,0.0,0.0,0.0,0.0,0.0,0.0,0.0,0.0,0.0,0.0,0.0,0.0,0.0,0.0,0.0,0.0,0.0,0.0,0.0,0.0,0.0,0.0,0.0,0.0,0.0,0.0,0.0,0.0,0.0,0.0,0.0,0.0,0.0,0.0,0.0,0.0,0.0,0.0,0.0,0.0,0.0,0.0,0.0,0.0,0.0,0.0,0.0,0.0,0.0,0.0,0.0,0.0,0.0,0.0,0.0,0.0,0.0,0.0,0.0,0.0,0.0,0.0,0.0,0.0,0.0,0.0,0.0,0.0,0.0,0.0,0.0,0.0,0.0,0.0,0.0,0.0,0.0,0.0,0.0,0.0,0.0,0.0,0.0,0.0,0.0,0.0,0.0,0.0,0.0,0.0,0.0,0.0,0.0,0.0,0.0,0.0,0.0,0.0,0.0,0.0,0.0,0.0,0.0,0.0,0.0,0.0,0.0,0.0,0.0,-1.4785,-1.3556,-1.1994,0.0,0.0,0.0,0.0,0.0,0.0,0.0,0.0,0.0,0.0,0.0,0.0,0.0,0.0,0.0,0.0,0.0,0.0,0.0,0.0,0.0,0.0,0.0,0.0,0.0,0.0,0.0,0.0,0.0,0.0,0.0,0.0,0.0,0.0,0.0,0.0,0.0,0.0,0.0,0.0,0.0,0.0,0.0,0.0,0.0,0.0,0.0,0.0,0.0,0.0,0.0,0.0,0.0,0.0,0.0,0.0,0.0,0.0,0.0,0.0,0.0,0.0,0.0,0.0,0.0,0.0,0.0,0.0,0.0,0.0,0.0,0.0,0.0,0.0,0.0,0.0,0.0,0.0,0.0,0.0,0.0,0.0,0.0,0.0,0.0,0.0,0.0,0.0,0.0,0.0,0.0,0.0,0.0,0.0,0.0,0.0,0.0,0.0,0.0,0.0,0.0,0.0,0.0,0.0,0.0,0.0,0.0,0.0,0.0,0.0,-1.444,0.0,-1.4267,-1.2181,-1.0602,-0.9522,0.0,0.0,0.0,0.0,0.0,0.0,0.0,0.0,0.0,0.0,0.0,0.0,0.0,0.0,0.0,0.0,0.0,0.0,0.0,0.0,0.0,0.0,0.0,0.0,0.0,0.0,0.0,0.0,0.0,0.0,0.0,0.0,0.0,0.0,0.0,0.0,0.0,0.0,0.0,0.0,0.0,0.0,0.0,0.0,0.0,0.0,0.0,0.0,0.0,0.0,0.0,0.0,0.0,0.0,0.0,0.0,0.0,0.0,0.0,0.0,0.0,0.0,0.0,0.0,0.0,0.0,0.0,0.0,0.0,0.0,0.0,0.0,0.0,0.0,0.0,0.0,0.0,0.0,0.0,0.0,0.0,0.0,0.0,0.0,0.0,0.0,0.0,0.0,0.0,0.0,0.0,0.0,0.0,0.0,0.0,0.0,0.0,0.0,0.0,0.0,0.0,0.0,0.0,0.0,0.0,0.0,0.0,0.0,0.0,-1.4232,-1.3685,-1.3194,-1.0781,-0.9081,0.0,0.0,0.0,0.0,0.0,0.0,0.0,0.0,0.0,0.0,0.0,0.0,0.0,0.0,0.0,0.0,0.0,0.0,0.0,0.0,0.0,0.0,0.0,0.0,0.0,0.0,0.0,0.0,0.0,0.0,0.0,0.0,0.0,0.0,0.0,0.0,0.0,0.0,0.0,0.0,0.0,0.0,0.0,0.0,0.0,0.0,0.0,0.0,0.0,0.0,0.0,0.0,0.0,0.0,0.0,0.0,0.0,0.0,0.0,0.0,0.0,0.0,0.0,0.0,0.0,0.0,0.0,0.0,0.0,0.0,0.0,0.0,0.0,0.0,0.0,0.0,0.0,0.0,0.0,0.0,0.0,0.0,0.0,0.0,0.0,0.0,0.0,0.0,0.0,0.0,0.0,0.0,0.0,0.0,0.0,0.0,0.0,0.0,0.0,0.0,0.0,0.0,0.0,0.0,0.0,0.0,0.0,0.0,0.0,-1.3304,-1.3545,-1.3603,0.0,-1.1467,-0.9994,0.0,0.0,0.0,0.0,0.0,0.0,0.0,0.0,0.0,0.0,0.0,0.0,0.0,0.0,0.0,0.0,0.0,0.0,0.0,0.0,0.0,0.0,0.0,0.0,0.0,0.0,0.0,0.0,0.0,0.0,0.0,0.0,0.0,0.0,0.0,0.0,0.0,0.0,0.0,0.0,0.0,0.0,0.0,0.0,0.0,0.0,0.0,0.0,0.0,0.0,0.0,0.0,0.0,0.0,0.0,0.0,0.0,0.0,0.0,0.0,0.0,0.0,0.0,0.0,0.0,0.0,0.0,0.0,0.0,0.0,0.0,0.0,0.0,0.0,0.0,0.0,0.0,0.0,0.0,0.0,0.0,0.0,0.0,0.0,0.0,0.0,0.0,0.0,0.0,0.0,0.0,0.0,0.0,0.0,0.0,0.0,0.0,0.0,0.0,0.0,0.0,0.0,0.0,0.0,0.0,0.0,0.0,0.0,0.0,-1.1815,0.0,-1.2393,0.0,-1.0969,-0.9718,0.0,0.0,0.0,0.0,0.0,0.0,0.0,0.0,0.0,0.0,0.0,0.0,0.0,0.0,0.0,0.0,0.0,0.0,0.0,0.0,0.0,0.0,0.0,0.0,0.0,0.0,0.0,0.0,0.0,0.0,0.0,0.0,0.0,0.0,0.0,0.0,0.0,0.0,0.0,0.0,0.0,0.0,0.0,0.0,0.0,0.0,0.0,0.0,0.0,0.0,0.0,0.0,0.0,0.0,0.0,0.0,0.0,0.0,0.0,0.0,0.0,0.0,0.0,0.0,0.0,0.0,0.0,0.0,0.0,0.0,0.0,0.0,0.0,0.0,0.0,0.0,0.0,0.0,0.0,0.0,0.0,0.0,0.0,0.0,0.0,0.0,0.0,0.0,0.0,0.0,0.0,0.0,0.0,0.0,0.0,0.0,0.0,0.0,0.0,0.0,0.0,0.0,0.0,0.0,0.0,0.0,0.0,0.0,-1.1392,-1.0721,-1.0177,-1.0041,-1.0098,-0.9161,-0.8127,0.0,0.0,0.0,0.0,0.0,0.0,0.0,0.0,0.0,0.0,0.0,0.0,0.0,0.0,0.0,0.0,0.0,0.0,0.0,0.0,0.0,0.0,0.0,0.0,0.0,0.0,0.0,0.0,0.0,0.0,0.0,0.0,0.0,0.0,0.0,0.0,0.0,0.0,0.0,0.0,0.0,0.0,0.0,0.0,0.0,0.0,0.0,0.0,0.0,0.0,0.0,0.0,0.0,0.0,0.0,0.0,0.0,0.0,0.0,0.0,0.0,0.0,0.0,0.0,0.0,0.0,0.0,0.0,0.0,0.0,0.0,0.0,0.0,0.0,0.0,0.0,0.0,0.0,0.0,0.0,0.0,0.0,0.0,0.0,0.0,0.0,0.0,0.0,0.0,0.0,0.0,0.0,0.0,0.0,0.0,0.0,0.0,0.0,0.0,0.0,0.0,0.0,0.0,0.0,0.0,0.0,0.0,0.0,0.0,-0.9568,-1.0623,-1.0837,-1.0234,-1.0199,-0.9946,0.0,0.0,0.0,0.0,0.0,0.0,0.0,0.0,0.0,0.0,0.0,0.0,0.0,0.0,0.0,0.0,0.0,0.0,0.0,0.0,0.0,0.0,0.0,0.0,0.0,0.0,0.0,0.0,0.0,0.0,0.0,0.0,0.0,0.0,0.0,0.0,0.0,0.0,0.0,0.0,0.0,0.0,0.0,0.0,0.0,0.0,0.0,0.0,0.0,0.0,0.0,0.0,0.0,0.0,0.0,0.0,0.0,0.0,0.0,0.0,0.0,0.0,0.0,0.0,0.0,0.0,0.0,0.0,0.0,0.0,0.0,0.0,0.0,0.0,0.0,0.0,0.0,0.0,0.0,0.0,0.0,0.0,0.0,0.0,0.0,0.0,0.0,0.0,0.0,0.0,0.0,0.0,0.0,0.0,0.0,0.0,0.0,0.0,0.0,0.0,0.0,0.0,0.0,0.0,0.0,0.0,0.0,0.0,0.0,-0.9766,-1.0707,-1.1041,-1.0545,-1.0304,-1.0085,-0.985,0.0,0.0,0.0,0.0,0.0,0.0,0.0,0.0,0.0,0.0,0.0,0.0,0.0,0.0,0.0,0.0,0.0,0.0,0.0,0.0,0.0,0.0,0.0,0.0,0.0,0.0,0.0,0.0,0.0,0.0,0.0,0.0,0.0,0.0,0.0,0.0,0.0,0.0,0.0,0.0,0.0,0.0,0.0,0.0,0.0,0.0,0.0,0.0,0.0,0.0,0.0,0.0,0.0,0.0,0.0,0.0,0.0,0.0,0.0,0.0,0.0,0.0,0.0,0.0,0.0,0.0,0.0,0.0,0.0,0.0,0.0,0.0,0.0,0.0,0.0,0.0,0.0,0.0,0.0,0.0,0.0,0.0,0.0,0.0,0.0,0.0,0.0,0.0,0.0,0.0,0.0,0.0,0.0,0.0,0.0,0.0,0.0,0.0,0.0,0.0,0.0,0.0,0.0,0.0,0.0,0.0,0.0,0.0,-1.1218,-1.0773,-1.0729,-1.1008,-0.9803,-0.9045,0.0,0.0,0.0,0.0,0.0,0.0,0.0,0.0,0.0,0.0,0.0,0.0,0.0,0.0,0.0,0.0,0.0,0.0,0.0,0.0,0.0,0.0,0.0,0.0,0.0,0.0,0.0,0.0,0.0,0.0,0.0,0.0,0.0,0.0,0.0,0.0,0.0,0.0,0.0,0.0,0.0,0.0,0.0,0.0,0.0,0.0,0.0,0.0,0.0,0.0,0.0,0.0,0.0,0.0,0.0,0.0,0.0,0.0,0.0,0.0,0.0,0.0,0.0,0.0,0.0,0.0,0.0,0.0,0.0,0.0,0.0,0.0,0.0,0.0,0.0,0.0,0.0,0.0,0.0,0.0,0.0,0.0,0.0,0.0,0.0,0.0,0.0,0.0,0.0,0.0,0.0,0.0,0.0,0.0,0.0,0.0,0.0,0.0,0.0,0.0,0.0,0.0,0.0,0.0,0.0,0.0,0.0,0.0,0.0,-1.4046,-1.4009,-1.3257,-1.1729,-1.1523,-1.1184,0.0,0.0,0.0,0.0,0.0,0.0,0.0,0.0,0.0,0.0,0.0,0.0,0.0,0.0,0.0,0.0,0.0,0.0,0.0,0.0,0.0,0.0,0.0,0.0,0.0,0.0,0.0,0.0,0.0,0.0,0.0,0.0,0.0,0.0,0.0,0.0,0.0,0.0,0.0,0.0,0.0,0.0,0.0,0.0,0.0,0.0,0.0,0.0,0.0,0.0,0.0,0.0,0.0,0.0,0.0,0.0,0.0,0.0,0.0,0.0,0.0,0.0,0.0,0.0,0.0,0.0,0.0,0.0,0.0,0.0,0.0,0.0,0.0,0.0,0.0,0.0,0.0,0.0,0.0,0.0,0.0,0.0,0.0,0.0,0.0,0.0,0.0,0.0,0.0,0.0,0.0,0.0,0.0,0.0,0.0,0.0,0.0,0.0,0.0,0.0,0.0,0.0,0.0,0.0,0.0,0.0,0.0,0.0,-1.4277,-1.5897,-1.6349,-1.54,-1.3152,-1.2338,-1.1721,0.0,0.0,0.0,0.0,0.0,0.0,0.0,0.0,0.0,0.0,0.0,0.0,0.0,0.0,0.0,0.0,0.0,0.0,0.0,0.0,0.0,0.0,0.0,0.0,0.0,0.0,0.0,0.0,0.0,0.0,0.0,0.0,0.0,0.0,0.0,0.0,0.0,0.0,0.0,0.0,0.0,0.0,0.0,0.0,0.0,0.0,0.0,0.0,0.0,0.0,0.0,0.0,0.0,0.0,0.0,0.0,0.0,0.0,0.0,0.0,0.0,0.0,0.0,0.0,0.0,0.0,0.0,0.0,0.0,0.0,0.0,0.0,0.0,0.0,0.0,0.0,0.0,0.0,0.0,0.0,0.0,0.0,0.0,0.0,0.0,0.0,0.0,0.0,0.0,0.0,0.0,0.0,0.0,0.0,0.0,0.0,0.0,0.0,0.0,0.0,0.0,0.0,0.0,0.0,0.0,0.0,0.0,0.0,-1.5454,-1.7235,-1.7979,-1.7277,-1.4981,-1.2819,-1.1432,0.0,0.0,0.0,0.0,0.0,0.0,0.0,0.0,0.0,0.0,0.0,0.0,0.0,0.0,0.0,0.0,0.0,0.0,0.0,0.0,0.0,0.0,0.0,0.0,0.0,0.0,0.0,0.0,0.0,0.0,0.0,0.0,0.0,0.0,0.0,0.0,0.0,0.0,0.0,0.0,0.0,0.0,0.0,0.0,0.0,0.0,0.0,0.0,0.0,0.0,0.0,0.0,0.0,0.0,0.0,0.0,0.0,0.0,0.0,0.0,0.0,0.0,0.0,0.0,0.0,0.0,0.0,0.0,0.0,0.0,0.0,0.0,0.0,0.0,0.0,0.0,0.0,0.0,0.0,0.0,0.0,0.0,0.0,0.0,0.0,0.0,0.0,0.0,0.0,0.0,0.0,0.0,0.0,0.0,0.0,0.0,0.0,0.0,0.0,0.0,0.0,0.0,0.0,0.0,0.0,0.0,0.0,0.0,-1.8397,-1.9394,-1.9453,-1.8238,-1.5675,-1.4081,-1.2326,0.0,0.0,0.0,0.0,0.0,0.0,0.0,0.0,0.0,0.0,0.0,0.0,0.0,0.0,0.0,0.0,0.0,0.0,0.0,0.0,0.0,0.0,0.0,0.0,0.0,0.0,0.0,0.0,0.0,0.0,0.0,0.0,0.0,0.0,0.0,0.0,0.0,0.0,0.0,0.0,0.0,0.0,0.0,0.0,0.0,0.0,0.0,0.0,-0.0917,0.0,0.0,0.0,0.0,0.0,0.0,0.0,0.0,0.0,0.0,0.0,0.0,0.0,0.0,0.0,0.0,0.0,0.0,0.0,0.0,0.0,0.0,0.0,0.0,0.0,0.0,0.0,0.0,0.0,0.0,0.0,0.0,0.0,0.0,0.0,0.0,0.0,0.0,0.0,0.0,0.0,0.0,0.0,0.0,0.0,0.0,0.0,0.0,0.0,0.0,0.0,0.0,0.0,0.0,0.0,0.0,0.0,0.0,0.0,-2.0809,-2.1744,-2.0586,-1.8586,-1.5911,-1.4413,-1.2508,0.0,0.0,0.0,0.0,0.0,0.0,0.0,0.0,0.0,0.0,0.0,0.0,0.0,0.0,0.0,0.0,0.0,0.0,0.0,0.0,0.0,0.0,0.0,0.0,0.0,0.0,0.0,0.0,0.0,0.0,0.0,0.0,0.0,0.0,0.0,0.0,0.0,0.0,0.0,0.0,0.0,0.0,0.0,0.0,0.0,0.0,0.0,0.0,0.0,0.0,0.0,0.0,0.0,0.0,0.0,0.0,0.0,0.0,0.0,0.0,0.0,0.0,0.0,0.0,0.0,0.0,0.0,0.0,0.0,0.0,0.0,0.0,0.0,0.0,0.0,0.0,0.0,0.0,0.0,0.0,0.0,0.0,0.0,0.0,0.0,0.0,0.0,0.0,0.0,0.0,0.0,0.0,0.0,0.0,0.0,0.0,0.0,0.0,0.0,0.0,0.0,0.0,0.0,0.0,0.0,0.0,0.0,-1.9208,-2.2229,-2.3152,-2.0994,-1.8418,-1.5609,-1.4164,-1.2255,-0.9814,0.0,0.0,0.0,0.0,0.0,0.0,0.0,0.0,0.0,0.0,0.0,0.0,0.0,0.0,0.0,0.0,0.0,0.0,0.0,0.0,0.0,0.0,0.0,0.0,0.0,0.0,0.0,0.0,0.0,0.0,0.0,0.0,0.0,0.0,0.0,0.0,0.0,0.0,0.8381,0.5547,0.0,0.0,0.0,0.0,0.0,0.0,0.0,0.0,-0.2584,0.0,0.0,0.0,0.0,0.0,0.0,0.0,0.0,0.0,0.0,0.0,0.0,0.0,0.0,0.0,0.0,0.0,0.0,0.0,0.0,0.0,0.0,0.0,0.0,0.0,0.0,0.0,0.0,0.0,0.0,0.0,0.0,0.0,0.0,0.0,0.0,0.0,0.0,0.0,0.0,0.0,0.0,0.0,0.0,0.0,0.0,0.0,0.0,0.0,0.0,0.0,0.0,0.0,0.0,0.0,0.0,-1.5405,-1.8912,-2.1016,-2.1502,-1.9855,-1.7333,-1.4183,-1.3004,-1.1217,-0.8864,0.0,0.0,0.0,0.0,0.0,0.0,0.0,0.0,0.0,0.0,0.0,0.0,0.0,0.0,0.0,0.0,0.0,0.0,0.0,0.0,0.0,0.0,0.0,0.0,0.0,0.0,0.0,0.0,0.0,0.0,0.0,0.0,0.0,0.0,0.0,0.0,0.0,0.0,0.0,0.5355,0.3486,0.0,0.0,0.0,0.0,0.0,0.0,0.0,0.0,-0.4447,0.0,0.0,0.0,0.0,0.0,0.0,0.0,0.0,0.0,0.0,0.0,0.0,0.0,0.0,0.0,0.0,0.0,0.0,0.0,0.0,0.0,0.0,0.0,0.0,0.0,0.0,0.0,0.0,0.0,0.0,0.0,0.0,0.0,0.0,0.0,0.0,0.0,0.0,0.0,0.0,0.0,0.0,0.0,0.0,0.0,0.0,0.0,0.0,0.0,0.0,0.0,0.0,0.0,0.0,0.0,-1.6191,-1.9388,-2.1005,-2.0975,-1.8291,-1.5728,-1.3562,-1.2033,-1.0436,0.0,0.0,0.0,0.0,0.0,0.0,0.0,0.0,0.0,0.0,0.0,0.0,0.0,0.0,0.0,0.0,0.0,0.0,0.0,0.0,0.0,0.0,0.0,0.0,0.0,0.0,0.0,0.0,0.0,0.0,0.0,0.0,0.0,0.0,0.0,0.0,0.0,0.0,0.0,0.0,0.4974,0.3516,0.3059,0.0,0.0,0.0,0.0,0.0,0.0,-0.445,-0.5582,0.0,0.0,0.0,0.0,0.0,0.0,0.0,0.0,0.0,0.0,0.0,0.0,0.0,0.0,0.0,0.0,0.0,0.0,0.0,0.0,0.0,0.0,0.0,0.0,0.0,0.0,0.0,0.0,0.0,0.0,0.0,0.0,0.0,0.0,0.0,0.0,0.0,0.0,0.0,0.0,0.0,0.0,0.0,0.0,0.0,0.0,0.0,0.0,0.0,0.0,0.0,0.0,0.0,0.0,0.0,-1.6266,-1.8832,-2.0093,-1.9734,-1.6464,-1.4128,-1.2961,-1.1177,-0.9801,0.0,0.0,0.0,0.0,0.0,0.0,0.0,0.0,0.0,0.0,0.0,0.0,0.0,0.0,0.0,0.0,0.0,0.0,0.0,0.0,0.0,0.0,0.0,0.0,0.0,0.0,0.0,0.0,0.0,0.0,0.0,0.0,0.0,0.0,0.0,0.0,0.0,0.0,0.0,0.0,0.0,0.319,0.2487,0.1042,0.0,0.0,0.0,0.0,-0.3149,-0.49,0.0,0.0,0.0,0.0,0.0,0.0,0.0,0.0,0.0,0.0,0.0,0.0,0.0,0.0,0.0,0.0,0.0,0.0,0.0,0.0,0.0,0.0,0.0,0.0,0.0,0.0,0.0,0.0,0.0,0.0,0.0,0.0,0.0,0.0,0.0,0.0,0.0,0.0,0.0,0.0,0.0,0.0,0.0,0.0,0.0,0.0,0.0,0.0,0.0,0.0,0.0,0.0,0.0,0.0,0.0,0.0,-1.5039,-1.5594,-1.585,-1.5883,-1.4336,-1.2877,-1.1621,-1.0522,-0.9388,0.0,0.0,0.0,0.0,0.0,0.0,0.0,0.0,0.0,0.0,0.0,0.0,0.0,0.0,0.0,0.0,0.0,0.0,0.0,0.0,0.0,0.0,0.0,0.0,0.0,0.0,0.0,0.0,0.0,0.0,0.0,0.0,0.0,0.0,0.0,0.0,0.0,0.0,0.0,0.0,0.0,0.2459,0.0485,0.0082,-0.0417,0.0,0.0,-0.3222,-0.3132,-0.4986,0.0,0.0,0.0,0.0,0.0,0.0,0.0,0.0,0.0,0.0,0.0,0.0,0.0,0.0,0.0,0.0,0.0,0.0,0.0,0.0,0.0,0.0,0.0,0.0,0.0,0.0,0.0,0.0,0.0,0.0,0.0,0.0,0.0,0.0,0.0,0.0,0.0,0.0,0.0,0.0,0.0,0.0,0.0,0.0,0.0,0.0,0.0,0.0,0.0,0.0,0.0,0.0,0.0,0.0,0.0,-1.3186,-1.3596,-1.4196,-1.4328,-1.3933,-1.2788,-1.1881,-1.1182,-0.9987,-0.8885,0.0,0.0,0.0,0.0,0.0,0.0,0.0,0.0,0.0,0.0,0.0,0.0,0.0,0.0,0.0,0.0,0.0,0.0,0.0,0.0,0.0,0.0,0.0,0.0,0.0,0.0,0.0,0.0,0.0,0.0,0.0,0.0,0.0,0.0,0.0,0.0,0.0,0.0,0.0,0.0,0.0,0.0,0.0,-0.1263,0.0,0.0,0.0,-0.4417,-0.4142,0.0,0.0,0.0,0.0,0.0,0.0,0.0,0.0,0.0,0.0,0.0,0.0,0.0,0.0,0.0,0.0,0.0,0.0,0.0,0.0,0.0,0.0,0.0,0.0,0.0,0.0,0.0,0.0,0.0,0.0,0.0,0.0,0.0,0.0,0.0,0.0,0.0,0.0,0.0,0.0,0.0,0.0,0.0,0.0,0.0,0.0,0.0,0.0,0.0,0.0,0.0,0.0,0.0,0.0,0.0,0.0,0.0,-1.2183,-1.2908,-1.3003,-1.2343,-1.1681,-1.1176,-1.0889,-0.9869,0.0,0.0,0.0,0.0,0.0,0.0,0.0,0.0,0.0,0.0,0.0,0.0,0.0,0.0,0.0,0.0,0.0,0.0,0.0,0.0,0.0,0.0,0.0,0.0,0.0,0.0,0.0,-1.0615,0.0,0.0,0.0,0.0,0.0,0.0,0.0,0.0,0.0,0.0,0.0,0.0,0.0,0.0,0.0574,-0.084,-0.2482,-0.3732,0.0,0.0,-0.526,-0.4928,-0.6495,-0.7676,0.0,0.0,0.0,0.0,0.0,0.0,0.0,0.0,0.0,0.0,0.0,0.0,0.0,0.0,0.0,0.0,0.0,0.0,0.0,0.0,0.0,0.0,0.0,0.0,0.0,0.0,0.0,0.0,0.0,0.0,0.0,0.0,0.0,0.0,0.0,0.0,0.0,0.0,0.0,0.0,0.0,0.0,0.0,0.0,0.0,0.0,0.0,0.0,0.0,0.0,0.0,0.0,0.0,0.0,0.0,-1.086,-1.1066,-1.1077,-1.0769,-1.0954,-1.0882,-1.0595,-1.0212,-0.9547,0.0,0.0,0.0,0.0,0.0,0.0,0.0,0.0,0.0,0.0,0.0,0.0,0.0,0.0,0.0,0.0,0.0,0.0,0.0,0.0,0.0,0.0,0.0,0.0,0.0,0.0,0.0,0.0,0.0,0.0,0.0,0.0,0.0,0.0,0.0,0.0,0.0,0.0,0.0,0.0,0.0,0.0168,-0.2927,-0.3547,-0.4011,0.0,0.0,-0.5025,-0.4931,-0.5912,-0.6723,-0.7041,0.0,0.0,0.0,0.0,0.0,0.0,0.0,0.0,0.0,0.0,0.0,0.0,0.0,0.0,0.0,0.0,0.0,0.0,0.0,0.0,0.0,0.0,0.0,0.0,0.0,0.0,0.0,0.0,0.0,0.0,0.0,0.0,0.0,0.0,0.0,0.0,0.0,0.0,0.0,0.0,0.0,0.0,0.0,0.0,0.0,0.0,0.0,0.0,0.0,0.0,0.0,0.0,0.0,-1.0736,-1.0077,-1.0554,-1.0732,-1.0638,-1.0739,-1.0675,-1.0561,-1.0107,-0.9434,0.0,0.0,0.0,0.0,0.0,0.0,0.0,0.0,0.0,0.0,0.0,0.0,0.0,0.0,0.0,0.0,0.0,0.0,0.0,0.0,0.0,0.0,0.0,0.0,0.0,0.0,0.0,0.0,-0.7847,-0.637,-0.2398,0.0,0.0,0.0,0.0,0.0,0.0,0.0,0.0,0.0,0.0,-0.0594,-0.314,-0.472,0.0,0.0,-0.7395,-0.7282,-0.7098,-0.7927,-0.826,-0.7396,-0.8088,0.0,0.0,0.0,0.0,0.0,0.0,0.0,0.0,0.0,0.0,0.0,0.0,0.0,0.0,0.0,0.0,0.0,0.0,0.0,0.0,0.0,0.0,0.0,0.0,0.0,0.0,0.0,0.0,0.0,0.0,0.0,0.0,0.0,0.0,0.0,0.0,0.0,0.0,0.0,0.0,0.0,0.0,0.0,0.0,0.0,0.0,0.0,0.0,0.0,0.0,0.0,0.0,-1.0344,-0.9693,-1.0329,-1.0618,-1.0618,-1.0618,-1.0618,-1.0604,-0.9993,-0.944,0.0,0.0,0.0,0.0,0.0,0.0,0.0,0.0,0.0,0.0,0.0,0.0,0.0,0.0,0.0,0.0,0.0,0.0,0.0,0.0,0.0,0.0,0.0,0.0,0.0,0.0,0.0,0.0,-0.7428,-0.5934,-0.2221,0.0,0.0,0.0,0.0,0.0,0.0,0.0,0.0,0.0,0.0,-0.0855,-0.2711,-0.523,-0.7076,-0.7517,-0.7934,-0.8046,-0.7861,-0.8444,-0.8608,-0.7501,0.0,0.0,0.0,0.0,0.0,0.0,0.0,0.0,0.0,0.0,0.0,0.0,0.0,0.0,0.0,0.0,0.0,0.0,0.0,0.0,0.0,0.0,0.0,0.0,0.0,0.0,0.0,0.0,0.0,0.0,-1.0813,0.0,0.0,0.0,0.0,0.0,0.0,0.0,0.0,0.0,0.0,0.0,0.0,0.0,0.0,0.0,0.0,0.0,0.0,0.0,0.0,0.0,0.0,0.0,-0.9744,-1.0261,-1.0618,-1.0618,-1.0618,-1.0618,-1.0604,-0.9993,-0.9679,-0.9666,0.0,0.0,0.0,0.0,0.0,0.0,0.0,0.0,0.0,0.0,0.0,0.0,0.0,0.0,0.0,0.0,0.0,0.0,0.0,0.0,0.0,0.0,0.0,0.0,0.0,0.0,-0.711,-0.6211,-0.5064,0.0,0.0,0.0,0.0,0.0,0.0,0.0,0.0,0.0,0.0,0.1668,-0.0602,-0.1729,-0.4758,-0.6531,-0.5463,-0.6117,-0.674,-0.6676,-0.6767,-0.6862,0.0,0.0,0.0,0.0,0.0,0.0,0.0,0.0,0.0,0.0,0.0,0.0,0.0,0.0,0.0,0.0,0.0,0.0,0.0,0.0,0.0,0.0,0.0,0.0,0.0,0.0,0.0,-1.0024,-1.0821,0.0,0.0,0.0,0.0,0.0,0.0,0.0,0.0,0.0,0.0,0.0,-1.0324,-1.0525,0.0,0.0,0.0,0.0,0.0,0.0,0.0,0.0,0.0,0.0,0.0,0.0,-0.9904,-0.9706,-1.0322,-1.0618,-1.0618,-1.0618,-1.0468,-1.0267,-0.9886,-0.9499,-0.9118,0.0,0.0,0.0,0.0,0.0,0.0,0.0,0.0,0.0,0.0,0.0,0.0,0.0,0.0,0.0,0.0,0.0,0.0,0.0,0.0,0.0,0.0,0.0,0.0,0.0,-0.6435,0.0,0.0,0.0,0.0,0.0,0.0,0.0,0.0,0.0,0.0,0.0,0.4973,0.3613,0.1453,-0.0436,-0.1531,-0.4702,-0.6786,0.0,0.0,0.0,0.0,0.0,0.0,0.0,0.0,0.0,0.0,0.0,0.0,0.0,0.0,-0.8093,-0.4788,-0.3167,-0.1739,0.0,0.0,0.0,0.0,0.0,0.0,0.0,0.0,0.0,0.0,0.0,0.0,0.0,0.0,0.0,-1.0391,0.0,-1.0617,0.0,0.0,0.0,0.0,0.0,0.0,0.0,0.0,-1.0327,-1.0367,-1.0281,-1.053,-1.0361,0.0,-1.0478,-1.0306,0.0,0.0,0.0,0.0,0.0,0.0,0.0,0.0,-0.9532,-0.9552,-1.0007,-1.0362,-1.0401,-1.0408,-1.0314,-1.0114,-0.9733,-0.9305,-0.8824,-0.8804,-0.8593,0.0,0.0,0.0,0.0,0.0,0.0,0.0,0.0,0.0,0.0,0.0,0.0,0.0,0.0,0.0,0.0,0.0,0.0,0.0,0.0,0.0,0.0,0.0,-0.6644,0.0,0.0,0.0,0.0,0.0,0.0,0.0,0.0,0.0,0.4395,0.3949,0.3031,0.2105,0.0087,-0.1489,-0.2107,0.0,0.0,0.0,0.0,0.0,0.0,0.0,-0.844,-0.7285,-0.7108,-0.709,-0.7034,-0.8334,-0.9229,-0.8922,0.0,0.0,-0.7123,-0.5149,-0.3308,-0.1412,-0.0528,0.0,0.0075,-0.0378,-0.1294,0.0,0.0,0.0,0.0,0.0,0.0,0.0,0.0,-1.0468,-1.0947,0.0,-1.0938,0.0,0.0,0.0,0.0,0.0,0.0,0.0,0.0,-1.0701,-1.0828,-1.0631,-1.0638,-1.0631,-1.0618,-1.1351,-1.1193,-1.0181,-1.0515,0.0,0.0,0.0,0.0,0.0,0.0,-0.9176,-0.9203,-0.9546,-0.9826,-1.0094,-1.01,-1.0094,-1.0067,-0.9526,-0.9037,-0.8824,-0.8804,-0.8804,-0.8804,-0.8804,0.0,0.0,0.0,0.0,0.0,0.0,0.0,0.0,0.0,0.0,0.0,0.0,0.0,0.0,0.0,0.0,0.0,0.0,0.0,0.0,-0.6818,0.0,0.0,0.0,0.0,0.0,0.0,0.0,0.0,0.0,0.0,0.2212,0.1991,0.1034,-0.0086,0.0,0.0,0.0,0.0,-0.5507,-0.6197,-0.6428,-0.7269,-0.9062,-0.9518,-0.9157,-0.8022,0.0,0.0,-0.7999,-0.882,-0.9828,-1.0605,-1.0989,-1.0539,-0.8353,-0.6232,-0.4397,-0.3172,-0.1396,-0.0156,0.0078,0.0,-0.0626,-0.9691,0.0,0.0,0.0,0.0,-1.0835,-1.0942,-1.1056,-1.1136,-1.1188,-1.1159,-1.0774,0.0,0.0,0.0,0.0,0.0,0.0,-1.0314,-1.0441,-1.0608,-1.0698,-1.0631,-1.0775,-1.0762,-1.0638,-1.1019,-1.0964,-1.0497,-1.0309,-1.0357,-1.0586,0.0,0.0,0.0,0.0,-0.9176,-0.9203,-0.9532,-0.9726,-0.9806,-0.9806,-0.9699,-0.9442,-0.9125,-0.8891,-0.8804,-0.8804,-0.8804,-0.8804,-0.8804,0.0,0.0,0.0,0.0,0.0,0.0,0.0,0.0,0.0,0.0,0.0,0.0,0.0,0.0,0.0,0.0,0.0,0.0,0.0,-0.6139,-0.6284,-0.6497,0.0,0.0,0.0,0.0,0.0,0.0,0.0,0.0,0.0,-0.185,-0.1213,-0.0968,0.0,0.0,-0.4552,-0.4516,-0.6713,-0.8141,-0.7476,0.0,0.0,0.0,-0.8941,-0.8373,-0.8163,-0.807,-0.8028,-0.7978,-0.9324,-1.0494,-1.0795,-1.1453,-1.1789,-1.1031,-0.8894,-0.6349,-0.3722,-0.2021,-0.0626,0.0705,0.0549,-0.0627,-0.995,-0.945,-1.0666,-1.1169,-1.1176,-1.1289,-1.1369,-1.143,-1.143,-1.1329,-1.1142,-1.0742,-1.0595,-1.0597,-1.0078,0.0,0.0,0.0,-1.0394,-1.0618,-1.0618,-1.0618,-1.0631,-1.0806,-1.0728,-1.0638,-1.0742,-1.0675,-1.0381,-1.056,-1.0326,-0.99,0.0,0.0,-1.0174,-0.9698,-0.943,-0.9437,-0.9349,-0.9392,-0.9506,-0.9506,-0.9532,-0.9618,-0.9119,-0.8903,-0.9152,-0.8962,-0.8804,-0.8804,-0.8804,-0.8804,0.0,0.0,0.0,0.0,0.0,0.0,0.0,0.0,0.0,0.0,0.0,-0.9717,0.0,0.0,0.0,0.0,-0.5723,-0.6177,-0.6917,-0.7019,0.0,0.0,0.0,0.0,0.0,0.0,0.0,-0.4743,-0.4422,-0.4306,-0.4153,-0.3617,-0.3377,-0.3851,-0.5402,-0.6541,-0.6829,0.0,-0.9557,-0.9099,-1.025,-1.1051,-1.0779,-0.9798,-0.8985,-0.8722,-0.8566,-0.8681,-0.8975,-1.0282,-1.1279,-1.1346,-1.1844,-1.2265,-1.2151,-1.022,-0.7897,-0.5406,-0.4081,-0.2712,-0.0534,-0.0689,-0.1617,-1.0527,-1.0527,-1.1121,-1.1423,-1.1456,-1.1717,-1.1677,-1.1436,-1.1456,-1.1436,-1.1349,-1.0828,-1.0645,-1.0604,-1.0274,0.0,0.0,-1.0434,-1.0618,-1.0618,-1.0618,-1.0618,-1.0618,-1.0598,-1.0591,-1.0591,-1.0564,-1.0354,-1.0087,-1.0804,-1.0494,-0.9252,-0.9966,-1.0477,-1.0685,-1.0115,-0.9821,-0.9769,-0.9113,-0.8938,-0.9137,-0.915,-0.9522,-1.0161,-0.9252,-0.9061,-0.9666,-0.9106,-0.8804,-0.8804,-0.8752,-0.8752,-0.8804,0.0,0.0,0.0,0.0,0.0,0.0,0.0,0.0,0.0,0.0,0.0,0.0,0.0,0.0,0.0,-0.7586,0.0,-0.8301,-0.8583,0.0,0.0,0.0,-0.7127,-0.6443,-0.6559,-0.6722,-0.6566,0.0,0.0,0.0,0.0,-0.5957,-0.7162,-0.8309,-0.9222,-0.9887,-1.0051,-1.0344,-1.0935,-1.1015,-1.1285,-1.2109,-1.1273,-1.0143,-0.9408,-0.9296,-0.9456,-1.0064,-1.1345,-1.2058,-1.1663,-1.1906,-1.1999,-1.1799,-1.0246,-0.8767,-0.7539,-0.6499,-0.5252,-0.3018,-0.2594,-0.2991,-1.13,-1.1546,-1.1411,-1.143,-1.143,-1.1503,-1.149,-1.1443,-1.1663,-1.151,-1.1089,-1.0949,-1.0768,-1.0618,-1.0488,-1.0454,-1.0454,-1.0591,-1.0618,-1.0618,-1.0618,-1.0618,-1.0611,-1.0334,-1.0227,-1.0207,-1.0,-0.986,-0.9773,-0.9717,-0.954,-0.9287,-1.0212,-1.0451,-1.0064,-0.9865,-0.9821,-0.9821,-0.9166,-0.8838,-0.8911,-0.8911,-0.8958,-0.9171,-0.8944,-0.8857,-0.9008,-0.8903,-0.8804,-0.8752,-0.8262,-0.8209,-0.8752,-0.8262,0.0,0.0,0.0,0.0,0.0,0.0,0.0,0.0,0.0,-0.9648,-0.8527,0.0,-0.8325,0.0,-0.8544,-0.9215,-0.9593,-0.9524,0.0,0.0,-0.8784,-0.7508,-0.7003,-0.6881,-0.657,-0.5796,-0.6301,-0.6681,-0.6646,-0.6586,-0.7307,-0.9164,-0.9461,-0.9841,-1.06,-1.1974,-1.2836,-1.2959,-1.2896,-1.3048,-1.299,-1.123,-0.9588,-0.9372,-0.9291,-0.9295,-0.9431,-1.0821,-1.1657,-1.0752,-1.0588,-1.0606,-1.0563,-0.9617,-0.8488,-0.7386,-0.5854,-0.4267,-0.2982,-0.2774,-0.3072,-1.1329,-1.145,-1.1169,-1.1116,-1.1249,-1.1369,-1.143,-1.1436,-1.1463,-1.1296,-1.0982,-1.0855,-1.0715,-1.0624,-1.0618,-1.0618,-1.0618,-1.0618,-1.0618,-1.0618,-1.0618,-1.0551,-1.0361,-1.0194,-1.0053,-0.992,-0.9766,-0.9619,-0.9479,-0.9591,-0.9439,-0.9092,-1.051,-1.0914,-1.0269,-1.0269,-1.0269,-1.0218,-0.9309,-0.8804,-0.8804,-0.8804,-0.8962,-0.9211,-0.8962,-0.8956,-0.9211,-0.8962,-0.8804,-0.8752,-0.8103,-0.7889,-0.8262,-0.7616,-0.7402,0.0,0.0,0.0,0.0,0.0,0.0,0.0,0.0,0.0,0.0,0.0,-0.8518,0.0,-0.99,0.0,-1.0377,-1.1013,-1.1358,-1.1023,-0.9972,-0.8792,-0.7712,-0.7532,-0.7102,-0.6156,-0.6509,-0.6946,-0.6943,-0.6878,-0.7377,-0.9023,-0.9475,-1.03,-1.219,-1.3681,-1.4348,-1.384,-1.3968,-1.3588,-1.2324,-1.0653,-0.9583,-0.9504,-0.9218,-0.9073,-0.9352,-0.9955,-1.0225,-0.9507,-0.946,-0.9494,-0.933,-0.8684,-0.7789,-0.7017,-0.5737,-0.4619,-0.3995,-0.3961,-0.4199,-1.0962,-1.0969,-1.0745,-1.0722,-1.1009,-1.1223,-1.1329,-1.1349,-1.1102,-1.0969,-1.0922,-1.0739,-1.0618,-1.0618,-1.0618,-1.0618,-1.0618,-1.0618,-1.0618,-1.0618,-1.0584,-1.0367,-1.012,-1.004,-0.9866,-0.9633,-0.9593,-0.9439,-0.9192,-0.9774,-0.9685,-0.9015,-1.0762,-1.1416,-1.0965,-1.0914,-1.0864,-1.0669,-0.9458,-0.8804,-0.8804,-0.8804,-0.9061,-0.9614,-0.9106,-0.9061,-0.9614,-0.9106,-0.8804,-0.8752,-0.8103,-0.767,-0.767,-0.702,-0.6598,0.0,-0.6804,0.0,0.0,0.0,0.0,0.0,0.0,0.0,0.0,-0.8751,-0.8827,-0.9175,-1.1472,-1.2455,-1.1091,-1.2632,-1.3058,-1.1443,-1.1099,-1.0331,-0.8869,-0.8492,-0.8086,-0.7191,-0.6947,-0.6864,-0.6954,-0.6767,-0.7019,-0.7932,-0.8857,-1.0406,-1.318,-1.4533,-1.4798,-1.3795,-1.4088,-1.3286,-1.0798,-0.9904,-0.9695,-0.9614,-0.8936,-0.8687,-0.9181,-0.9012,-0.8636,-0.8316,-0.8313,-0.8447,-0.8208,-0.7513,-0.6848,-0.6461,-0.5793,-0.5286,-0.5249,-0.5312,-0.5481,-1.0782,-1.0962,-1.0739,-1.0728,-1.0975,-1.0802,-1.0855,-1.1069,-1.1015,-1.0862,-1.0641,-1.0651,-1.0618,-1.0618,-1.0618,-1.0618,-1.0618,-1.0618,-1.0618,-1.0611,-1.0314,-1.0174,-1.0087,-0.9568,-0.9323,-0.925,-0.9085,-0.8945,-0.8884,-0.9044,-0.9274,-0.9614,-1.0568,-1.1216,-1.1566,0.0,0.0,0.0,-0.9211,-0.8804,-0.8804,-0.8804,-0.8857,-0.9015,-0.885,0.0,-0.8962,-0.8857,-0.8804,-0.8752,-0.8103,0.0,0.0,0.0,0.0,0.0,0.0,0.0,0.0,0.0,0.0,0.0,-0.6803,-0.7599,-0.9082,-1.0417,-1.1554,-1.2367,-1.3082,-1.3438,-1.3136,-1.3418,-1.3359,-1.254,-1.1569,-1.0964,-1.0798,-1.0024,-0.9304,-0.9141,-0.8405,-0.7918,-0.782,-0.716,-0.69,-0.7861,-0.8537,-0.9805,-1.1906,-1.3281,-1.3837,-1.3472,-1.3256,-1.2427,-1.0384,-0.9377,-0.8927,-0.8829,-0.8192,-0.7617,-0.7664,-0.8107,-0.8073,-0.7215,-0.7065,-0.7087,-0.7038,-0.632,-0.5741,-0.5456,-0.53,-0.5209,-0.5328,-0.5281,-0.5209,-1.0648,0.0,-1.0621,-1.0641,0.0,-1.0685,-1.0705,-1.0775,-1.0782,-1.0695,-1.0624,-1.0618,-1.0618,-1.0618,-1.0618,-1.0618,-1.0618,-1.0618,-1.0544,-1.0334,-1.0187,-0.99,-0.9673,-0.9323,-0.911,-0.8964,-0.8878,-0.8804,-0.8804,-0.9166,-0.9458,-0.9814,-1.0762,-1.1458,-1.1814,-1.1814,-1.1316,-1.032,-0.9969,-0.9614,-0.9316,-0.9309,-0.9159,-0.8811,0.0,0.0,0.0,0.0,0.0,0.0,0.0,0.0,0.0,0.0,0.0,-0.5825,-0.594,-0.6017,-0.6117,-0.5837,-0.5732,-0.5815,-0.7038,-0.8404,-0.9832,-1.1121,-1.2352,-1.342,-1.3648,-1.3673,-1.3673,-1.3673,-1.3382,-1.2655,-1.1985,-1.1581,-1.1153,-1.0634,-1.0011,-0.9546,-0.908,-0.8765,-0.876,-0.7737,-0.7249,-0.7685,-0.8342,-0.9061,-1.0196,-1.2011,-1.3216,-1.2833,-1.191,-1.0935,-0.9886,-0.8907,-0.8295,-0.829,-0.7613,-0.7035,-0.6886,-0.6936,-0.6706,-0.6148,-0.6009,-0.5948,-0.5876,-0.5446,-0.5118,-0.5047,-0.5026,-0.5047,-0.5191,-0.5325,-0.5512,-1.0618,-1.0618,-1.0618,-1.0618,-1.0618,-1.0618,-1.0618,-1.0618,0.0,0.0,0.0,-1.0618,-1.0618,-1.0618,-1.0618,-1.0534,-1.0481,-1.0481,-1.0321,-1.004,-0.9987,-0.9641,-0.919,-0.913,-0.9038,-0.8811,-0.8804,-0.8804,-0.8804,-0.9361,-0.9718,-0.9917,-1.1015,-1.1765,-1.1972,-1.1972,-1.1724,-1.1174,-1.0914,-1.0466,-0.9821,-0.9821,-0.9458,-0.8804,-0.8804,-0.8804,-0.8804,-0.8804,-0.8804,-0.8804,-0.8209,-0.7563,-0.681,-0.629,-0.5674,-0.4972,-0.504,-0.5142,-0.5172,-0.5287,-0.5568,-0.5926,-0.7669,-0.9217,-1.0402,-1.1514,-1.2677,-1.386,-1.4099,-1.4171,-1.3954,-1.3954,-1.3528,-1.2445,-1.2305,-1.1909,-1.1181,-1.1021,-1.0638,-0.9856,-0.9553,-0.9399,-0.9319,-0.8213,-0.7449,-0.7496,-0.7861,-0.8404,-0.8795,-1.0672,-1.209,-1.1737,-1.0501,-0.9305,-0.8809,-0.8195,-0.7713,-0.7404,-0.6785,-0.6432,-0.6302,-0.5795,-0.5349,-0.539,-0.5172,-0.5108,-0.5084,-0.5013,-0.4911,-0.4887,-0.4877,-0.487,-0.49,-0.5422,-0.5897,-1.0618,-1.0618,-1.0618,-1.0618,-1.0618,-1.0618,-1.0618,-1.0618,-1.0618,-1.0618,-1.0618,-1.0618,-1.0618,-1.0618,-1.0618,-1.0421,-1.0187,-1.018,-1.0027,0.0,-0.9486,-0.9263,-0.917,-0.8985,-0.8844,-0.8804,-0.8804,-0.8804,-0.8804,-0.891,-0.9211,-0.9814,-1.0568,-1.1534,-1.2618,-1.2774,-1.2715,-1.2569,-1.1384,-1.0466,-0.9814,-0.9821,-0.9517,-0.8857,-0.8804,-0.8804,-0.8804,-0.8804,-0.8804,-0.8804,-0.8699,-0.8315,-0.7568,-0.7017,-0.6476,-0.5887,-0.5348,-0.5189,-0.538,-0.5352,-0.614,-0.7817,-0.83,-0.898,-1.0072,-1.2209,-1.3909,-1.4879,-1.5632,-1.586,-1.5092,-1.4934,-1.414,-1.2565,-1.2298,-1.2131,-1.1742,-1.1709,-1.1475,-1.1051,-1.0341,-0.9862,-0.9743,-0.8345,-0.7258,-0.7162,-0.7281,-0.7391,-0.8144,-0.9224,-1.0074,-0.9959,-0.9057,-0.8012,-0.7409,-0.6834,-0.6375,-0.5601,-0.5439,-0.5319,-0.5323,-0.5137,-0.5016,-0.4992,-0.4972,-0.4952,-0.4948,-0.4935,-0.4847,-0.4752,-0.4721,-0.4687,-0.4699,-0.5218,-0.575,-1.0618,-1.0618,-1.0618,-1.0618,-1.0618,-1.0618,-1.0618,-1.0618,-1.0618,-1.0618,-1.0618,-1.0618,-1.0618,-1.0604,-1.0394,-1.0247,-1.0114,-0.9953,-0.9719,-0.9446,-0.9299,-0.9158,-0.9005,-0.8871,-0.8804,-0.8804,-0.8804,-0.8804,-0.8804,-0.8804,-0.9316,-1.0372,-1.1434,-1.2255,-1.2881,-1.2891,-1.2891,-1.2881,-1.2255,-1.1443,-1.0372,-1.0312,-0.9865,-0.8804,-0.8804,-0.8804,-0.8804,-0.8804,-0.8804,-0.8804,-0.8804,-0.848,-0.7735,-0.7695,-0.7183,-0.6113,-0.6002,-0.5799,-0.5422,-0.5815,-0.6692,-0.8037,-0.8759,-0.974,-1.1136,-1.2384,-1.3839,-1.5394,-1.5549,-1.5351,-1.4944,-1.4455,-1.355,-1.1986,-1.1824,-1.177,-1.1663,-1.163,-1.157,-1.1381,-1.1005,-1.0717,-1.0723,-0.8997,-0.7826,-0.7729,-0.723,-0.6932,-0.7658,-0.7759,-0.8047,-0.85,-0.7862,-0.7099,-0.6561,-0.5986,-0.5457,-0.5016,-0.4965,-0.4921,-0.4918,-0.4914,-0.4914,-0.4911,-0.4857,-0.4802,-0.4792,-0.4721,-0.4646,-0.4602,-0.4625,-0.4636,-0.5018,-0.5869,-0.6673,-1.0618,-1.0618,-1.0618,-1.0618,-1.0618,-1.0618,-1.0618,-1.0618,-1.0618,-1.0618,-1.0618,-1.0618,-1.0618,-1.0591,-1.0247,-1.008,-0.9987,-0.9713,-0.9426,-0.911,-0.9084,-0.8964,-0.8824,-0.8804,-0.8804,-0.8804,-0.8804,-0.8804,-0.8804,-0.8804,-0.9465,-1.0762,-1.2049,-1.2725,-1.2891,-1.2891,-1.2891,-1.2881,-1.2715,-1.2049,-1.0864,-1.0813,-1.0167,-0.8903,-0.8804,-0.8804,-0.8804,-0.8804,-0.8804,-0.8804,-0.8804,-0.8533,-0.8014,-0.8146,-0.7768,-0.6727,-0.6724,-0.6612,-0.6075,-0.6597,-0.7372,-0.8221,-0.9117,-1.0405,-1.2097,-1.2588,-1.3571,-1.534,-1.537,-1.5035,-1.4833,-1.4094,-1.2974,-1.186,-1.1498,-1.1273,-1.1064,-1.1187,-1.116,-1.1047,-1.1094,-1.1216,-1.0914,-0.9679,-0.8466,-0.7758,-0.6874,-0.6446,-0.6865,-0.6367,-0.6375,-0.6778,-0.6539,-0.6087,-0.6005,-0.5448,-0.4941,-0.487,-0.4826,-0.4792,-0.4789,-0.4806,-0.4809,-0.4782,-0.4718,-0.465,-0.4626,-0.4611,-0.4543,-0.4536,-0.4646,-0.4959,-0.566,-0.6686,-0.7616,-1.0618,-1.0618,-1.0618,-1.0618,-1.0618,-1.0618,-1.0618,-1.0618,-1.0618,-1.0618,-1.0618,-1.0618,-1.0618,-1.0514,-1.0234,-0.9953,-0.9706,-0.9419,-0.9125,-0.8884,-0.8844,-0.8831,-0.8804,-0.8804,-0.8804,-0.8804,-0.8804,-0.8804,-0.8804,-0.8804,-0.9517,-1.0771,-1.1525,-1.2295,-1.2822,-1.2891,-1.2891,-1.2881,-1.2236,-1.1516,-1.0864,-1.0813,-1.0167,-0.8857,-0.8804,-0.8804,-0.8804,-0.8804,-0.8804,-0.8804,-0.8804,-0.8804,-0.8672,-0.8257,-0.7995,-0.8106,-0.77,-0.7487,-0.7737,-0.7827,-0.8215,-0.9075,-0.9297,-1.0384,-1.2637,-1.2915,-1.3593,-1.5104,-1.6038,-1.5983,-1.5319,-1.4461,-1.351,-1.2505,-1.177,-1.0976,-1.0275,-1.0558,-1.0673,-0.9621,-1.0309,-1.0641,-1.0631,-0.9796,-0.85,-0.7049,-0.6073,-0.5476,-0.5498,-0.5314,-0.5111,-0.524,-0.5057,-0.5118,-0.51,-0.4928,-0.4728,-0.4701,-0.4602,-0.4558,-0.4558,-0.4548,-0.457,-0.4589,-0.4531,-0.4507,-0.4501,-0.4467,-0.4467,-0.457,-0.4952,-0.5655,-0.6367,-0.7182,-0.7723,-1.0618,-1.0618,-1.0618,-1.0618,-1.0618,-1.1108,-1.1045,-1.0618,-1.0618,-1.0618,-1.0618,-1.0618,-1.0468,-1.0274,-0.9813,-0.9532,-0.9406,-0.9486,-0.9277,-0.8864,-0.9211,-0.9152,-0.8804,-0.8804,-0.8804,-0.8804,-0.8804,-0.8804,-0.8857,-0.9211,-0.9858,-1.0762,-1.1466,-1.2187,-1.2832,-1.2891,-1.2891,-1.2881,-1.2608,-1.194,-1.0872,-1.0415,-0.9762,-0.8903,-0.8804,-0.8804,-0.8804,-0.8804,-0.8804,-0.8804,-0.8804,-0.8804,-0.8811,-0.869,-0.8484,-0.8137,-0.7542,-0.7404,-0.7686,-0.8201,-0.8713,-0.9256,-0.9786,-1.0912,-1.2765,-1.3009,-1.3631,-1.5135,-1.5988,-1.6009,-1.5169,-1.4337,-1.3365,-1.2292,-1.1423,-1.0738,-1.0296,-1.0542,-1.0553,-1.0187,-1.0364,-1.0618,-1.0465,-0.9693,-0.8426,-0.704,-0.6082,-0.5505,-0.5432,-0.4995,-0.4711,-0.4646,-0.465,-0.4694,-0.4745,-0.4657,-0.4575,-0.4601,-0.4563,-0.4463,-0.4463,-0.4463,-0.4522,-0.4463,-0.4463,-0.4463,-0.447,-0.4463,-0.4519,-0.4736,-0.5496,-0.6367,-0.7128,-0.783,-0.8268,-1.0618,-1.0618,-1.0807,-1.0926,-1.0989,-1.1772,-1.1787,-1.1233,-1.1052,-1.0885,-1.0733,-1.0471,-1.0154,-0.9853,-0.9499,-0.9319,-0.926,-0.9457,-0.9263,-0.891,-0.9316,-0.9256,-0.8804,-0.8804,-0.8804,-0.8804,-0.8804,-0.8804,-0.891,-0.9718,-1.0312,-1.0864,-1.1674,-1.2353,-1.2832,-1.2891,-1.2891,-1.2871,-1.2569,-1.1801,-1.0821,-0.9961,-0.9316,-0.8857,-0.8804,-0.8804,-0.8804,-0.8804,-0.8804,-0.8804,-0.8804,-0.8804,-0.8811,-0.9011,-0.8815,-0.8335,-0.7987,-0.7903,-0.8077,-0.8702,-0.9181,-0.9511,-1.0121,-1.1203,-1.2618,-1.3009,-1.3726,-1.5156,-1.5703,-1.5638,-1.5074,-1.4259,-1.3327,-1.2236,-1.1413,-1.08,-1.0301,-1.0428,-1.0504,-1.0295,-1.0364,-1.0584,-1.0352,-0.942,-0.8291,-0.7533,-0.6673,-0.5905,-0.5753,-0.5202,-0.4746,-0.4519,-0.4522,-0.457,-0.4599,-0.4555,-0.447,-0.4463,-0.4463,-0.4463,-0.4463,-0.4463,-0.4463,-0.4463,-0.4463,-0.4463,-0.4463,-0.4463,-0.4736,-0.5171,-0.5878,-0.6912,-0.783,-0.8427,-0.8699,-1.0618,-1.0681,-1.1406,-1.171,-1.1826,-1.2557,-1.2862,-1.257,-1.1981,-1.1517,-1.11,-1.0207,-0.9566,-0.9283,-0.9519,-0.9492,-0.9163,-0.9038,-0.891,-0.8811,-0.891,-0.8857,-0.8804,-0.8804,-0.8804,-0.8804,-0.8857,-0.891,-0.8956,-1.0115,-1.0762,-1.0922,-1.2098,-1.2832,-1.2891,-1.2891,-1.2891,-1.2783,-1.1742,-1.0914,-1.0669,-0.9562,-0.891,-0.8804,-0.8804,-0.8804,-0.8804,-0.8804,-0.8804,-0.8804,-0.8804,-0.8804,-0.8811,-0.8824,-0.8911,-0.9095,-0.9321,-0.9492,-0.9512,-0.9518,-0.9708,-0.9953,-1.0073,-1.0959,-1.2627,-1.2943,-1.3673,-1.5216,-1.5439,-1.543,-1.5361,-1.4712,-1.3907,-1.313,-1.2266,-1.1149,-0.9652,-1.0205,-1.0174,-0.9779,-1.0148,-1.0381,-1.0093,-0.9141,-0.8521,-0.8029,-0.7362,-0.6548,-0.5839,-0.55,-0.5167,-0.4677,-0.4463,-0.4467,-0.4529,-0.4532,-0.447,-0.4463,-0.4463,-0.4463,-0.4463,-0.4463,-0.4463,-0.4463,-0.4463,-0.4463,-0.4463,-0.4736,-0.5113,-0.5605,-0.6095,-0.702,-0.7996,-0.8533,-0.8804,-1.0618,-1.0744,-1.2027,-1.2142,-1.1518,-1.2772,-1.293,-1.2134,-1.1437,-1.1026,-1.0791,-1.0061,-0.9512,-0.9196,-0.9352,-0.9239,-0.8965,-0.9253,-0.9211,-0.8903,-0.9263,-0.9211,-0.8804,-0.8804,-0.8804,-0.8857,-0.9211,-0.9666,-1.0056,-1.0618,-1.1015,-1.1416,-1.1931,-1.2403,-1.2822,-1.2891,-1.2891,-1.2822,-1.1882,-1.1216,-1.0762,-0.9917,-0.9263,-0.8857,-0.8804,-0.8804,-0.8804,-0.8804,-0.8804,-0.8804,-0.9211,-0.9256,-0.8857,-0.8804,-0.8844,-0.8958,-0.9065,-0.9205,-0.9365,-0.9399,-0.9526,-0.98,-0.984,-1.0566,-1.1961,-1.263,-1.3368,-1.4639,-1.5283,-1.5565,-1.5853,-1.5352,-1.4808,-1.4387,-1.3305,-1.2104,-1.11,-1.0574,-1.0217,-1.016,-1.0276,-1.0094,-0.9641,-0.9168,-0.8826,-0.853,-0.7913,-0.7106,-0.6341,-0.5819,-0.5269,-0.4677,-0.4463,-0.4463,-0.4463,-0.4463,-0.4463,-0.4463,-0.4463,-0.4463,-0.4463,-0.4463,-0.4463,-0.4463,-0.4463,-0.4463,-0.4463,-0.4515,-0.5062,-0.5601,-0.6145,-0.6799,-0.7883,-0.8315,-0.8646,-1.0618,-1.087,-1.2336,-1.2434,-1.1768,-1.3274,-1.3401,-1.2419,-1.1511,-1.1064,-1.0819,-0.9974,-0.9379,-0.9138,-0.9044,-0.9005,-0.8871,-0.9263,-0.9263,-0.885,-0.9256,-0.9211,-0.8857,-0.8804,-0.891,-0.9211,-0.9814,-1.0364,-1.0762,-1.1015,-1.1358,-1.1765,-1.2021,-1.2403,-1.2822,-1.2891,-1.2832,-1.2501,-1.1823,-1.1166,-1.0517,-0.9814,-0.9263,-0.8857,-0.8804,-0.8804,-0.8804,-0.8804,-0.8804,-0.8857,-0.9413,-0.9666,-0.9458,-0.9204,-0.9106,-0.9113,-0.891,-0.8884,-0.9058,-0.9044,-0.9336,-0.984,-0.9931,-1.0561,-1.2006,-1.2547,-1.3361,-1.4458,-1.5019,-1.5578,-1.6497,-1.6373,-1.583,-1.5351,-1.4291,-1.3296,-1.2296,-1.1185,-1.0546,-1.0241,-0.9987,-0.9653,-0.9269,-0.9117,-0.8971,-0.8831,-0.8321,-0.7723,-0.675,-0.6204,-0.5492,-0.4736,-0.4519,-0.4463,-0.4463,-0.4463,-0.4463,-0.4463,-0.4463,-0.4463,-0.4463,-0.4463,-0.4463,-0.4463,-0.4463,-0.4463,-0.4463,-0.4463,-0.4842,-0.5378,-0.5814,-0.6416,-0.7283,-0.8043,-0.8315,-1.0618,-1.0863,-1.2343,-1.2786,-1.2564,-1.3969,-1.4447,-1.3563,-1.2315,-1.1505,-1.1001,-0.9824,-0.9037,-0.8871,-0.8858,-0.8818,-0.8811,-0.891,-0.8857,-0.8804,-0.8857,-0.8857,-0.8804,-0.8804,-0.9113,-0.971,-1.0415,-1.0771,-1.0914,-1.1516,-1.1873,-1.1972,-1.2501,-1.2822,-1.2891,-1.2881,-1.2559,-1.1931,-1.1266,-1.0517,-0.9814,-0.9211,-0.8857,-0.8804,-0.8804,-0.8804,-0.8804,-0.8804,-0.8804,-0.8857,-0.9406,-1.0115,-1.0466,-1.0115,-0.9814,-0.971,-0.9263,-0.891,-0.8923,-0.899,-0.9493,-1.0085,-1.0307,-1.0958,-1.2321,-1.276,-1.3351,-1.4407,-1.4962,-1.5614,-1.7159,-1.7512,-1.7036,-1.5648,-1.5341,-1.4604,-1.3271,-1.2015,-1.0909,-1.001,-0.9522,-0.9216,-0.9178,-0.9018,-0.8851,-0.8824,-0.8699,-0.8156,-0.6912,-0.648,-0.5932,-0.4897,-0.4463,-0.4463,-0.4463,-0.4463,-0.4463,-0.4463,-0.4463,-0.4463,-0.4463,-0.4463,-0.4463,-0.4463,-0.4463,-0.4463,-0.4463,-0.4515,-0.4677,-0.5164,-0.5546,-0.5923,-0.6681,-0.7391,-0.7937,-1.0926,-1.1531,-1.252,-1.2882,-1.2867,-1.3881,-1.3652,-1.2485,-1.1515,-1.0834,-1.024,-0.9351,-0.8891,-0.8831,-0.8804,-0.8804,-0.8804,-0.8804,-0.8804,-0.8804,-0.8804,-0.8804,-0.8804,-0.8804,-0.9159,-0.9821,-1.0466,-1.1065,-1.1566,-1.2187,-1.2559,-1.2608,-1.2774,-1.2881,-1.2891,-1.2881,-1.2559,-1.1823,-1.1166,-1.0458,-0.9814,-0.9166,-0.8804,-0.8804,-0.8804,-0.8804,-0.8804,-0.8804,-0.8804,-0.8811,-0.9413,-1.0115,-1.0618,-1.0618,-1.0517,-1.0466,-1.0312,-1.0167,-1.0167,-1.0167,-1.0257,-1.0558,-1.0633,-1.1088,-1.2006,-1.2482,-1.3127,-1.4243,-1.5063,-1.6189,-1.7346,-1.8112,-1.7947,-1.7698,-1.6714,-1.5656,-1.4347,-1.2596,-1.0977,-0.9926,-0.9432,-0.9152,-0.8991,-0.8824,-0.8811,-0.8804,-0.8804,-0.8262,-0.702,-0.6588,-0.6046,-0.4791,-0.468,-0.4463,-0.4463,-0.4463,-0.4463,-0.4463,-0.4463,-0.4463,-0.4463,-0.4463,-0.4463,-0.4453,-0.4453,-0.4457,-0.4457,-0.457,-0.4732,-0.4886,-0.5206,-0.5642,-0.6136,-0.6694,-0.7225,-1.1045,-1.1819,-1.2498,-1.2821,-1.2922,-1.338,-1.2852,-1.176,-1.0813,-1.0159,-0.9718,-0.9113,-0.8804,-0.8804,-0.8804,-0.8804,-0.8804,-0.8804,-0.8804,-0.8804,-0.8804,-0.8804,-0.8857,-0.9054,-0.951,-1.0159,-1.0864,-1.1525,-1.2187,-1.2666,-1.2891,-1.2881,-1.2891,-1.2891,-1.2891,-1.2891,-1.2559,-1.1814,-1.1166,-1.0466,-0.9814,-0.9159,-0.8804,-0.8804,-0.8804,-0.8804,-0.8804,-0.8804,-0.8804,-0.8903,-0.9465,-1.021,-1.1015,-1.0965,-1.0914,-1.1116,-1.0914,-1.0762,-1.0813,-1.0712,-1.0914,-1.1116,-1.1174,-1.1484,-1.2094,-1.2535,-1.3029,-1.3867,-1.4526,-1.553,-1.6743,-1.7429,-1.7915,-1.8365,-1.7554,-1.6243,-1.4834,-1.2949,-1.1249,-1.0181,-0.9585,-0.9266,-0.8918,-0.8804,-0.8804,-0.8804,-0.8804,-0.8262,-0.7074,-0.6588,-0.5773,-0.5011,-0.457,-0.4463,-0.4463,-0.4463,-0.4463,-0.4463,-0.4463,-0.4463,-0.4463,-0.4463,-0.446,-0.4429,-0.4419,-0.4419,-0.4419,-0.445,-0.457,-0.4721,-0.4837,-0.5119,-0.5553,-0.5935,-0.6411,-1.1101,-1.1835,-1.2265,-1.2658,-1.2896,-1.2794,-1.235,-1.1551,-1.0517,-0.9865,-0.9614,-0.9061,-0.8804,-0.8804,-0.8804,-0.8804,-0.8804,-0.8804,-0.8804,-0.8804,-0.8804,-0.8804,-0.8857,-0.9263,-0.9865,-1.0568,-1.1266,-1.1981,-1.2559,-1.2783,-1.2891,-1.2891,-1.2891,-1.2891,-1.2891,-1.2891,-1.251,-1.1674,-1.1116,-1.0466,-0.9814,-0.9263,-0.8956,-0.9008,-0.9054,-0.9061,-0.9106,-0.9008,-0.891,-0.891,-0.9517,-1.0458,-1.1366,-1.1166,-1.1325,-1.1823,-1.1275,-1.1124,-1.0973,-1.1124,-1.1316,-1.1823,-1.1891,-1.2107,-1.2695,-1.2842,-1.3035,-1.3525,-1.3799,-1.4356,-1.5627,-1.6391,-1.6949,-1.7701,-1.7682,-1.6434,-1.3982,-1.295,-1.1887,-1.0498,-0.9873,-0.9621,-0.9015,-0.891,-0.8804,-0.8804,-0.8752,-0.8103,-0.7074,-0.6426,-0.5882,-0.5226,-0.457,-0.4463,-0.4463,-0.4463,-0.4463,-0.4463,-0.4463,-0.4463,-0.4457,-0.4457,-0.4423,-0.4395,-0.4351,-0.4358,-0.4358,-0.4365,-0.4365,-0.4438,-0.4552,-0.467,-0.492,-0.5305,-0.5531,-1.1221,-1.219,-1.2346,-1.2785,-1.3285,-1.3227,-1.2364,-1.1141,-1.0712,-0.9865,-0.9204,-0.8903,-0.8804,-0.8804,-0.8804,-0.8804,-0.8804,-0.8804,-0.8804,-0.8804,-0.8804,-0.8804,-0.8811,-0.9008,-0.9465,-1.0115,-1.0872,-1.1416,-1.208,-1.2666,-1.2929,-1.2891,-1.2929,-1.2929,-1.2891,-1.2929,-1.2206,-1.1216,-1.0973,-1.0517,-0.9969,-0.9666,-0.9814,-1.0261,-1.021,-1.0218,-1.0218,-0.9762,-0.9263,-0.891,-0.9969,-1.0661,-1.1116,-1.1792,-1.2255,-1.2452,-1.2412,-1.2314,-1.2314,-1.2304,-1.2412,-1.2559,-1.252,-1.2676,-1.2881,-1.2891,-1.3086,-1.35,-1.3942,-1.452,-1.536,-1.6334,-1.7109,-1.7384,-1.7364,-1.6451,-1.4605,-1.356,-1.2647,-1.1444,-1.0415,-0.9814,-0.9562,-0.9113,-0.8857,-0.8857,-0.8699,-0.8268,-0.7079,-0.6534,-0.6095,-0.5117,-0.4463,-0.4463,-0.4463,-0.4463,-0.4463,-0.4463,-0.4463,-0.4463,-0.4453,-0.4443,-0.4385,-0.4271,-0.4233,-0.4212,-0.4199,-0.4195,-0.4192,-0.4226,-0.4244,-0.4367,-0.4455,-0.4737,-0.4771,-1.1593,-1.2406,-1.2545,-1.2968,-1.3352,-1.2684,-1.1736,-1.0795,-1.0159,-0.9562,-0.891,-0.8804,-0.8804,-0.8804,-0.8804,-0.8804,-0.8804,-0.8804,-0.8804,-0.8804,-0.8804,-0.8804,-0.8871,-0.9042,-0.9553,-1.0218,-1.088,-1.1592,-1.2246,-1.2715,-1.3007,-1.3286,-1.3286,-1.343,-1.3705,-1.3334,-1.2919,-1.2101,-1.1557,-1.1015,-1.0669,-1.0364,-1.0364,-1.0762,-1.0813,-1.0813,-1.0712,-1.0415,-0.9917,-0.9517,-0.9961,-1.0517,-1.0872,-1.1783,-1.2559,-1.2832,-1.2891,-1.2891,-1.2891,-1.2891,-1.2891,-1.2881,-1.2891,-1.2891,-1.2891,-1.2891,-1.3027,-1.3233,-1.3885,-1.4398,-1.4985,-1.6109,-1.6692,-1.6608,-1.6522,-1.5939,-1.4601,-1.3697,-1.2859,-1.1837,-1.0914,-1.021,-1.0159,-0.9413,-0.9113,-0.9061,-0.8962,-0.8043,-0.6966,-0.6696,-0.615,-0.5062,-0.4463,-0.4463,-0.4463,-0.4463,-0.4443,-0.4443,-0.4433,-0.4436,-0.4399,-0.4382,-0.4307,-0.417,-0.4131,-0.4063,-0.4053,-0.402,-0.409,-0.4151,-0.4117,-0.4066,-0.4204,-0.4193,-0.4186,-1.1896,-1.2323,-1.2633,-1.3009,-1.3135,-1.1743,-1.115,-1.0568,-0.9762,-0.9054,-0.8857,-0.8804,-0.8804,-0.8804,-0.8804,-0.8804,-0.8804,-0.8804,-0.8804,-0.8857,-0.891,-0.9008,-0.9068,-0.9468,-1.0052,-1.0685,-1.1469,-1.2135,-1.2627,-1.2881,-1.3248,-1.3552,-1.3732,-1.4097,-1.4294,-1.4107,-1.3852,-1.3283,-1.2395,-1.1904,-1.1706,-1.1358,-1.1299,-1.1458,-1.1275,-1.1275,-1.1174,-1.0973,-1.061,-1.0064,-1.002,-1.0466,-1.0965,-1.1566,-1.2187,-1.2774,-1.2891,-1.2891,-1.2891,-1.2891,-1.2891,-1.2891,-1.2891,-1.2891,-1.2891,-1.2891,-1.291,-1.2959,-1.3467,-1.4105,-1.4757,-1.5645,-1.5997,-1.5879,-1.5671,-1.522,-1.4606,-1.3658,-1.2706,-1.1972,-1.1316,-1.0965,-1.0568,-0.9917,-0.9113,-0.9361,-0.8995,-0.7883,-0.6912,-0.6367,-0.5714,-0.4791,-0.4519,-0.4463,-0.4463,-0.4463,-0.4433,-0.4416,-0.4395,-0.4375,-0.4297,-0.426,-0.4199,-0.4121,-0.4026,-0.3955,-0.391,-0.3965,-0.4006,-0.3989,-0.3978,-0.3948,-0.391,-0.3865,-0.3848,-1.1019,-1.1825,-1.1693,-1.2173,-1.2879,-1.2607,-1.1792,-1.0762,-1.0466,-0.9666,-0.8956,-0.8804,-0.8804,-0.8804,-0.8804,-0.8804,-0.8804,-0.8804,-0.8804,-0.8857,-0.9413,-0.9569,-0.9584,-0.9829,-1.0223,-1.0854,-1.1469,-1.2184,-1.2774,-1.3017,-1.3248,-1.3779,-1.4003,-1.4143,-1.4663,-1.4606,-1.3946,-1.3168,-1.2715,-1.2677,-1.2628,-1.2531,-1.258,-1.2938,-1.2628,-1.2461,-1.2304,-1.1882,-1.1516,-1.1416,-1.1366,-1.1416,-1.1616,-1.2197,-1.2676,-1.2832,-1.2891,-1.2891,-1.2891,-1.2891,-1.2891,-1.2891,-1.2891,-1.2891,-1.2891,-1.2929,-1.2929,-1.3017,-1.3467,-1.4291,-1.5188,-1.5541,-1.5686,-1.5546,-1.5186,-1.4687,-1.4107,-1.3732,-1.3218,-1.2638,-1.1972,-1.1557,-1.1516,-1.0423,-0.9814,-0.9703,-0.8817,-0.7664,-0.6907,-0.6204,-0.5386,-0.4625,-0.4519,-0.446,-0.445,-0.4375,-0.427,-0.4177,-0.4207,-0.4231,-0.4153,-0.4144,-0.4087,-0.4009,-0.3914,-0.3849,-0.3785,-0.3873,-0.3968,-0.39,-0.3802,-0.3788,-0.3738,-0.3643,-0.3581,-1.1291,-1.1584,-1.2087,-1.2536,-1.2803,-1.251,-1.1783,-1.0864,-1.0466,-0.9762,-0.8956,-0.8804,-0.8804,-0.8804,-0.8804,-0.8804,-0.8804,-0.8804,-0.8962,-0.9263,-0.9666,-0.9961,-1.0379,-1.0589,-1.0947,-1.1384,-1.2017,-1.2666,-1.3142,-1.3372,-1.3826,-1.4595,-1.4595,-1.5039,-1.5377,-1.5287,-1.4801,-1.4286,-1.382,-1.369,-1.369,-1.369,-1.3784,-1.4143,-1.3884,-1.3658,-1.3266,-1.3016,-1.2618,-1.2384,-1.2295,-1.2129,-1.1972,-1.251,-1.2881,-1.2891,-1.2891,-1.2891,-1.2891,-1.2891,-1.2891,-1.2891,-1.2891,-1.2891,-1.3027,-1.3162,-1.3324,-1.3505,-1.4143,-1.5039,-1.5864,-1.6008,-1.5864,-1.5242,-1.4926,-1.434,-1.36,-1.3372,-1.3276,-1.2813,-1.2236,-1.2129,-1.1733,-1.088,-1.0415,-1.0261,-0.9058,-0.7906,-0.6799,-0.6095,-0.5328,-0.4732,-0.457,-0.4457,-0.4385,-0.4229,-0.399,-0.3884,-0.3828,-0.3946,-0.3989,-0.3983,-0.3982,-0.39,-0.3816,-0.3714,-0.3673,-0.3775,-0.3802,-0.3772,-0.3688,-0.3608,-0.3517,-0.3362,-0.3414,-1.1776,-1.1411,-1.2683,-1.3093,-1.2803,-1.2236,-1.1575,-1.0771,-1.0218,-0.9614,-0.891,-0.8804,-0.8804,-0.8804,-0.8804,-0.8804,-0.8804,-0.9008,-0.9309,-0.9666,-1.0159,-1.0559,-1.1032,-1.156,-1.1927,-1.203,-1.251,-1.3094,-1.3467,-1.3826,-1.419,-1.5231,-1.5543,-1.5732,-1.6139,-1.6008,-1.5588,-1.5264,-1.4903,-1.4721,-1.4732,-1.4778,-1.4778,-1.4789,-1.4606,-1.434,-1.3956,-1.3721,-1.3494,-1.3065,-1.2968,-1.255,-1.2344,-1.251,-1.2891,-1.2891,-1.2891,-1.2891,-1.2891,-1.2891,-1.2891,-1.2891,-1.3065,-1.3065,-1.32,-1.361,-1.3873,-1.4179,-1.4675,-1.541,-1.6107,-1.5976,-1.5511,-1.488,-1.456,-1.4014,-1.3258,-1.2891,-1.2929,-1.2871,-1.2559,-1.2403,-1.2147,-1.1543,-1.1174,-1.0551,-0.9245,-0.81,-0.6945,-0.5878,-0.5113,-0.4732,-0.457,-0.4181,-0.4058,-0.3857,-0.3672,-0.3283,-0.3227,-0.3307,-0.3504,-0.3522,-0.3466,-0.3748,-0.3721,-0.3632,-0.3609,-0.3704,-0.3701,-0.3642,-0.341,-0.3259,-0.3135,-0.3047,-0.32,-1.0888,-1.1341,-1.1855,-1.24,-1.2832,-1.2774,-1.199,-1.0914,-1.0712,-0.9909,-0.8903,-0.8804,-0.8857,-0.8804,-0.8804,-0.8804,-0.8956,-0.9309,-0.9718,-1.0115,-1.0762,-1.1466,-1.1733,-1.2264,-1.2627,-1.2725,-1.2881,-1.3017,-1.3334,-1.3542,-1.4365,-1.4869,-1.541,-1.5964,-1.6337,-1.6337,-1.6051,-1.5764,-1.5543,-1.5454,-1.5454,-1.5454,-1.5454,-1.5421,-1.5107,-1.4789,-1.4514,-1.4097,-1.3732,-1.3637,-1.32,-1.2871,-1.2715,-1.2822,-1.2881,-1.2891,-1.2891,-1.2891,-1.2891,-1.2891,-1.2891,-1.3027,-1.3238,-1.3542,-1.3732,-1.4143,-1.4422,-1.4606,-1.4698,-1.4971,-1.4971,-1.5152,-1.4744,-1.419,-1.3956,-1.3684,-1.3113,-1.2891,-1.2891,-1.2881,-1.2725,-1.2618,-1.2353,-1.19,-1.1275,-1.0289,-0.8822,-0.7788,-0.6848,-0.5714,-0.4736,-0.457,-0.4515,-0.407,-0.3622,-0.3419,-0.3197,-0.2575,-0.2399,-0.2313,-0.2501,-0.2746,-0.2887,-0.316,-0.3485,-0.3605,-0.3619,-0.3659,-0.343,-0.3248,-0.3038,-0.2827,-0.2741,-0.2655,-0.2968,-1.0942,-1.1121,-1.2013,-1.2559,-1.2881,-1.2891,-1.2304,-1.1425,-1.1316,-1.0568,-0.9614,-0.9309,-0.9113,-0.891,-0.8804,-0.8962,-0.9368,-0.9614,-1.0167,-1.0864,-1.1516,-1.203,-1.2295,-1.2774,-1.2881,-1.2891,-1.2929,-1.3248,-1.3789,-1.4097,-1.4687,-1.5511,-1.5964,-1.625,-1.6436,-1.6479,-1.6337,-1.6095,-1.6051,-1.6051,-1.6051,-1.6064,-1.6051,-1.5964,-1.5776,-1.5511,-1.5141,-1.496,-1.4411,-1.3862,-1.3552,-1.3248,-1.3027,-1.2891,-1.2891,-1.2891,-1.2891,-1.2881,-1.2891,-1.2891,-1.2891,-1.2929,-1.319,-1.3505,-1.3873,-1.4294,-1.4835,-1.5062,-1.5141,-1.5017,-1.4801,-1.4663,-1.4376,-1.3956,-1.3779,-1.3505,-1.3104,-1.2929,-1.2891,-1.2891,-1.2832,-1.2774,-1.2666,-1.2098,-1.1325,-1.0018,-0.8456,-0.7475,-0.6642,-0.5555,-0.4519,-0.4463,-0.4457,-0.3944,-0.3421,-0.2986,-0.2562,-0.1987,-0.1617,-0.1558,-0.1747,-0.2022,-0.2241,-0.2445,-0.2834,-0.3353,-0.3588,-0.3571,-0.3194,-0.2829,-0.2623,-0.2404,-0.2292,-0.2319,-0.2721,-1.1137,-1.1116,-1.2363,-1.2891,-1.2891,-1.2891,-1.2501,-1.1864,-1.1616,-1.0864,-0.9909,-0.9614,-0.9263,-0.891,-0.8857,-0.9159,-0.9769,-0.9917,-1.0669,-1.1516,-1.1972,-1.2403,-1.2725,-1.2891,-1.2891,-1.2891,-1.2939,-1.3467,-1.4143,-1.4514,-1.5287,-1.5876,-1.6337,-1.6534,-1.6534,-1.6534,-1.6534,-1.6534,-1.6534,-1.6534,-1.6534,-1.6534,-1.6534,-1.6534,-1.6534,-1.6238,-1.582,-1.5543,-1.5084,-1.4411,-1.3909,-1.36,-1.3152,-1.2978,-1.2891,-1.2891,-1.2891,-1.2832,-1.2715,-1.2881,-1.2822,-1.2608,-1.2958,-1.342,-1.405,-1.4744,-1.5242,-1.541,-1.5365,-1.496,-1.434,-1.4294,-1.4061,-1.3732,-1.3552,-1.3467,-1.3113,-1.2891,-1.2891,-1.2891,-1.2891,-1.2725,-1.2452,-1.1891,-1.1023,-0.9879,-0.8317,-0.7368,-0.6475,-0.5336,-0.4519,-0.4519,-0.434,-0.3874,-0.3328,-0.2599,-0.2018,-0.1293,-0.0964,-0.084,-0.1141,-0.1475,-0.166,-0.1799,-0.2377,-0.2857,-0.3173,-0.3398,-0.304,-0.2682,-0.2233,-0.2142,-0.2317,-0.2361,-0.2586,-1.1209,-1.1715,-1.255,-1.2891,-1.2891,-1.2891,-1.2501,-1.1823,-1.1316,-1.0509,-0.9865,-0.9263,-0.9008,-0.8804,-0.8857,-0.9211,-0.9814,-1.0466,-1.1124,-1.1922,-1.2452,-1.2725,-1.2881,-1.2891,-1.2891,-1.2891,-1.2891,-1.3286,-1.3956,-1.4468,-1.5005,-1.5676,-1.6238,-1.6479,-1.6479,-1.6534,-1.6534,-1.6534,-1.6522,-1.6565,-1.6607,-1.6607,-1.6565,-1.6565,-1.6522,-1.6479,-1.6238,-1.5908,-1.5499,-1.5276,-1.4318,-1.3815,-1.36,-1.3152,-1.2978,-1.2891,-1.2832,-1.2618,-1.2236,-1.2452,-1.2559,-1.2384,-1.2909,-1.3873,-1.4422,-1.5197,-1.5567,-1.4789,-1.4789,-1.4387,-1.3573,-1.3258,-1.3055,-1.3104,-1.3152,-1.3113,-1.2891,-1.2891,-1.2891,-1.2891,-1.2891,-1.2403,-1.1981,-1.1325,-1.0618,-0.9422,-0.833,-0.7272,-0.6308,-0.5171,-0.4519,-0.4519,-0.4297,-0.3884,-0.3215,-0.2503,-0.1714,-0.0826,-0.052,-0.0323,-0.0591,-0.0895,-0.0984,-0.1253,0.0,0.0,-0.2677,-0.281,-0.2763,-0.2674,-0.2406,-0.245,-0.2627,-0.2583,-0.2406,-1.1216,-1.1864,-1.2569,-1.2891,-1.2891,-1.2891,-1.2715,-1.2403,-1.2098,-1.1384,-1.0474,-1.0115,-0.9569,-0.9015,-0.9159,-0.9762,-1.0415,-1.1065,-1.1733,-1.2246,-1.2725,-1.2891,-1.2891,-1.2891,-1.2891,-1.2891,-1.2978,-1.3238,-1.3732,-1.4097,-1.4595,-1.5543,-1.5864,-1.6194,-1.6436,-1.6534,-1.6534,-1.6607,-1.6795,-1.7105,-1.7229,-1.7105,-1.6951,-1.6951,-1.6637,-1.6522,-1.6436,-1.6281,-1.5908,-1.5588,-1.4732,-1.4133,-1.3779,-1.3228,-1.2764,-1.2295,-1.2295,-1.2129,-1.1922,-1.2129,-1.2021,-1.2129,-1.2716,-1.3467,-1.419,-1.4926,-1.5242,-1.4272,-1.419,-1.3789,-1.321,-1.2939,-1.2891,-1.2939,-1.3075,-1.3027,-1.3027,-1.2939,-1.2891,-1.2891,-1.2832,-1.2344,-1.1774,-1.1166,-1.0297,-0.9006,-0.7847,-0.6789,-0.5928,-0.5062,-0.4625,-0.4463,-0.4277,-0.3931,-0.3201,-0.245,-0.1727,-0.0905,-0.0325,-0.0182,-0.0136,-0.0269,0.0,0.0,0.0,0.0,0.0,-0.2453,-0.263,-0.2672,-0.2672,-0.2719,-0.2674,-0.2273,-0.2228,-1.1157,-1.1873,-1.2618,-1.2891,-1.2891,-1.2891,-1.2891,-1.2881,-1.2412,-1.1742,-1.0922,-1.0372,-0.9614,-0.9159,-0.9458,-1.0115,-1.0805,-1.1507,-1.2187,-1.2676,-1.2891,-1.2891,-1.2891,-1.2891,-1.2891,-1.2891,-1.2891,-1.3104,-1.3372,-1.3732,-1.4236,-1.5543,-1.5632,-1.5952,-1.6337,-1.6522,-1.6552,-1.6795,-1.7063,-1.7517,-1.7827,-1.7504,-1.7312,-1.7105,-1.6837,-1.6534,-1.6534,-1.6479,-1.6194,-1.5588,-1.496,-1.4376,-1.3826,-1.3238,-1.2608,-1.2039,-1.1765,-1.1416,-1.1316,-1.1366,-1.1507,-1.1864,-1.257,-1.3467,-1.3826,-1.4376,-1.4549,-1.3946,-1.4365,-1.3967,-1.3382,-1.3296,-1.3525,-1.3525,-1.3478,-1.3392,-1.3344,-1.343,-1.3382,-1.3286,-1.3084,-1.2442,-1.1823,-1.1124,-1.0092,-0.8639,-0.7427,-0.6308,-0.5496,-0.4787,-0.459,-0.4419,-0.4287,-0.3853,-0.289,-0.2172,-0.153,-0.0984,-0.0365,0.0,0.0,0.0,0.0,0.0,0.0,0.0,0.0,-0.2008,-0.2586,-0.2898,-0.3078,-0.281,-0.2588,-0.2186,-0.2095,-1.1166,-1.1873,-1.2608,-1.2891,-1.2891,-1.2891,-1.2891,-1.2783,-1.1584,-1.1023,-1.0568,-0.9614,-0.9061,-0.9008,-0.9562,-1.0261,-1.0813,-1.1466,-1.2246,-1.2725,-1.2891,-1.2891,-1.2891,-1.2891,-1.2891,-1.2891,-1.2891,-1.2929,-1.3017,-1.3238,-1.4143,-1.5365,-1.5398,-1.5908,-1.6324,-1.6522,-1.6837,-1.7105,-1.7381,-1.7706,-1.7947,-1.7747,-1.7381,-1.7229,-1.6837,-1.6534,-1.6534,-1.6534,-1.6293,-1.5688,-1.5062,-1.4514,-1.3967,-1.3132,-1.2393,-1.1724,-1.1116,-1.0661,-1.0312,-1.0559,-1.0855,-1.1399,-1.2395,-1.3542,-1.3815,-1.4858,-1.4812,-1.4086,-1.4549,-1.4584,-1.4236,-1.4154,-1.4247,-1.4201,-1.4118,-1.4118,-1.4118,-1.4247,-1.4154,-1.3862,-1.3341,-1.2764,-1.1873,-1.1174,-0.9769,-0.8311,-0.6779,-0.566,-0.5171,-0.4563,-0.4497,-0.4345,-0.4227,-0.3616,-0.2487,-0.1847,-0.149,-0.0921,-0.0272,0.0,0.0,0.0,0.0,0.0,0.0,0.0,-0.0895,-0.1652,-0.2408,-0.3173,-0.3442,-0.3126,-0.2946,-0.2721,-0.2586,-1.1216,-1.1864,-1.2608,-1.2891,-1.2891,-1.2891,-1.2891,-1.2725,-1.1832,-1.0922,-1.0167,-0.9263,-0.8804,-0.9113,-0.9961,-1.0517,-1.0973,-1.2039,-1.2559,-1.2783,-1.2891,-1.2891,-1.2891,-1.2891,-1.2891,-1.2891,-1.2891,-1.2891,-1.2929,-1.32,-1.3978,-1.4789,-1.5096,-1.5688,-1.6163,-1.6565,-1.6993,-1.7544,-1.7867,-1.8171,-1.8765,-1.821,-1.7787,-1.7747,-1.6879,-1.6565,-1.6534,-1.6534,-1.6349,-1.5976,-1.5197,-1.4652,-1.4039,-1.3006,-1.203,-1.1266,-1.0618,-0.9969,-0.951,-0.9865,-1.0466,-1.1516,-1.2521,-1.342,-1.3732,-1.4318,-1.4549,-1.4503,-1.4778,-1.4869,-1.4652,-1.456,-1.4617,-1.4709,-1.4755,-1.4846,-1.4835,-1.488,-1.456,-1.4143,-1.3674,-1.315,-1.2209,-1.1216,-0.96,-0.7988,-0.645,-0.5171,-0.4736,-0.4443,-0.4324,-0.4118,-0.3997,-0.3637,-0.2569,-0.2018,-0.1552,-0.0904,-0.0224,0.0,0.0,0.0,0.0,0.0,0.0,0.0,-0.0984,-0.1518,-0.2233,-0.3037,-0.3394,-0.335,-0.3258,-0.317,-0.2987,-1.0914,-1.1566,-1.2246,-1.2715,-1.2881,-1.2891,-1.2891,-1.2774,-1.208,-1.1065,-0.9762,-0.9113,-0.8903,-0.9361,-1.0218,-1.0965,-1.1375,-1.2246,-1.2725,-1.2891,-1.2891,-1.2891,-1.2891,-1.2891,-1.2891,-1.2891,-1.2891,-1.2891,-1.2929,-1.3505,-1.4143,-1.4606,-1.4926,-1.5644,-1.625,-1.6565,-1.7034,-1.7827,-1.8027,-1.8419,-1.9118,-1.838,-1.7827,-1.768,-1.6921,-1.6565,-1.6534,-1.6479,-1.6337,-1.592,-1.5276,-1.4652,-1.3888,-1.2918,-1.1607,-1.0813,-1.0167,-0.9517,-0.9159,-0.9465,-1.032,-1.1266,-1.2365,-1.3112,-1.3637,-1.405,-1.4732,-1.4652,-1.4971,-1.5152,-1.5062,-1.5197,-1.5389,-1.5567,-1.5522,-1.5522,-1.5332,-1.5287,-1.4778,-1.4318,-1.3993,-1.3663,-1.2308,-1.1173,-0.9075,-0.7452,-0.5968,-0.4952,-0.468,-0.4375,-0.4263,-0.3993,-0.3718,-0.326,-0.2764,-0.2147,-0.1579,-0.1081,-0.0493,-0.0269,0.0,0.0,0.0,0.0,0.0,0.0,-0.1029,-0.1518,-0.2186,-0.2898,-0.317,-0.3442,-0.3442,-0.335,-0.3123,-1.021,-1.0864,-1.1566,-1.2236,-1.2832,-1.2891,-1.2891,-1.2822,-1.2129,-1.1116,-0.9917,-0.9211,-0.9263,-0.9814,-1.0559,-1.1065,-1.1733,-1.251,-1.2891,-1.2891,-1.2891,-1.2891,-1.2891,-1.2891,-1.2891,-1.2891,-1.2939,-1.2929,-1.3027,-1.3647,-1.419,-1.4789,-1.5377,-1.5876,-1.6479,-1.6522,-1.7063,-1.7854,-1.7626,-1.8131,-1.8535,-1.7973,-1.7558,-1.7312,-1.6837,-1.6522,-1.6534,-1.6534,-1.6337,-1.5908,-1.5276,-1.4652,-1.3993,-1.2735,-1.1607,-1.0813,-1.0167,-0.9517,-0.8956,-0.9465,-1.0115,-1.0965,-1.212,-1.314,-1.3909,-1.4595,-1.5276,-1.5152,-1.5656,-1.5964,-1.6008,-1.5964,-1.6163,-1.6207,-1.6163,-1.6064,-1.5876,-1.5788,-1.5332,-1.4824,-1.4652,-1.4261,-1.2715,-1.1014,-0.8691,-0.687,-0.5433,-0.4732,-0.4512,-0.4146,-0.3912,-0.3696,-0.3315,-0.2658,-0.2239,-0.2066,-0.1611,-0.1163,-0.0851,-0.0672,-0.0404,0.0,0.0,0.0,0.0,0.0,-0.0939,-0.1475,-0.2366,-0.3214,-0.3394,-0.3578,-0.3578,-0.3486,-0.3306,-0.9917,-1.0218,-1.1316,-1.1922,-1.2246,-1.2715,-1.2891,-1.2774,-1.2089,-1.1266,-1.0466,-0.9762,-0.9806,-1.0407,-1.0712,-1.1216,-1.1873,-1.2559,-1.2891,-1.2891,-1.2891,-1.2891,-1.2891,-1.2891,-1.2891,-1.2891,-1.2929,-1.32,-1.3563,-1.4097,-1.4687,-1.532,-1.582,-1.6293,-1.6552,-1.6795,-1.7463,-1.7933,-1.7973,-1.8171,-1.865,-1.7854,-1.7271,-1.7229,-1.6752,-1.6522,-1.6534,-1.6534,-1.6337,-1.6095,-1.5555,-1.496,-1.4272,-1.311,-1.1944,-1.1007,-1.0167,-0.9517,-0.9008,-0.9159,-0.9658,-1.0771,-1.1972,-1.3188,-1.4283,-1.4698,-1.5197,-1.5688,-1.6064,-1.6238,-1.6337,-1.6337,-1.6392,-1.6436,-1.6392,-1.638,-1.6293,-1.6293,-1.6064,-1.541,-1.505,-1.3575,-1.2046,-1.0605,-0.8476,-0.6706,-0.5317,-0.4707,-0.4501,-0.3831,-0.3408,-0.3197,-0.2825,-0.2136,-0.1639,-0.168,-0.152,-0.1074,-0.1119,-0.1252,-0.0985,-0.0449,0.0,0.0,0.0,-0.0269,-0.1031,-0.1791,-0.2815,-0.3486,-0.3534,-0.3578,-0.3578,-0.3578,-0.3534,-0.9569,-0.9917,-1.0712,-1.1266,-1.1575,-1.2452,-1.2891,-1.2774,-1.2129,-1.1507,-1.1065,-1.0458,-1.0509,-1.0965,-1.1216,-1.1525,-1.2187,-1.2618,-1.2891,-1.2891,-1.2891,-1.2891,-1.2891,-1.2891,-1.2891,-1.2929,-1.32,-1.3467,-1.3779,-1.4595,-1.5276,-1.5864,-1.6269,-1.6582,-1.6795,-1.7188,-1.7544,-1.7867,-1.7947,-1.7827,-1.7894,-1.7504,-1.6993,-1.6909,-1.6723,-1.6534,-1.6534,-1.6534,-1.6491,-1.6337,-1.5908,-1.532,-1.4538,-1.349,-1.2327,-1.1299,-1.0261,-0.9562,-0.9008,-0.951,-1.0108,-1.0762,-1.1882,-1.3054,-1.4133,-1.456,-1.5197,-1.5744,-1.6151,-1.6337,-1.638,-1.6436,-1.6479,-1.6479,-1.6479,-1.6479,-1.6281,-1.6281,-1.6324,-1.5732,-1.5163,-1.3439,-1.1522,-0.9862,-0.8214,-0.6723,-0.5251,-0.4768,-0.4371,-0.3828,-0.311,-0.2785,-0.2559,-0.2037,-0.1686,-0.1632,-0.139,-0.0985,-0.1122,-0.1395,-0.0851,-0.0224,-0.0179,-0.0135,-0.0135,-0.0406,-0.1304,-0.2158,-0.2808,-0.3248,-0.3442,-0.3486,-0.3578,-0.3578,-0.3578,-0.9159,-0.9718,-0.9821,-1.021,-1.0914,-1.2206,-1.2832,-1.2822,-1.2178,-1.1864,-1.1765,-1.1116,-1.1216,-1.1715,-1.1765,-1.2138,-1.2666,-1.2881,-1.2881,-1.2891,-1.2891,-1.2891,-1.2891,-1.2891,-1.3027,-1.32,-1.3467,-1.3779,-1.3993,-1.505,-1.592,-1.6324,-1.6539,-1.6837,-1.7118,-1.7381,-1.7666,-1.7907,-1.7827,-1.7666,-1.7504,-1.6951,-1.6723,-1.6607,-1.6565,-1.6534,-1.6534,-1.6534,-1.6534,-1.6337,-1.6008,-1.5365,-1.4538,-1.3538,-1.2677,-1.1648,-1.0509,-0.971,-0.9263,-0.9961,-1.0312,-1.0661,-1.124,-1.2425,-1.3501,-1.4329,-1.4824,-1.5276,-1.5588,-1.5964,-1.625,-1.6337,-1.6367,-1.6423,-1.6479,-1.6337,-1.6008,-1.6039,-1.6182,-1.5952,-1.5664,-1.422,-1.188,-1.0007,-0.8103,-0.6381,-0.5019,-0.4165,-0.3854,-0.4063,-0.3281,-0.2472,-0.224,-0.2088,-0.1787,-0.1376,-0.1295,-0.0933,-0.1098,-0.1231,-0.0589,-0.0183,-0.0232,-0.0186,-0.0091,-0.0457,-0.1164,-0.1817,-0.2454,-0.2799,-0.294,-0.3353,-0.3398,-0.3578,-0.3578,-0.891,-0.9106,-0.9614,-0.9917,-1.0269,-1.1525,-1.2393,-1.2822,-1.2666,-1.2608,-1.2559,-1.1823,-1.1882,-1.2501,-1.203,-1.2353,-1.2676,-1.2891,-1.2891,-1.2891,-1.2891,-1.2891,-1.2929,-1.2978,-1.3152,-1.3467,-1.3826,-1.4318,-1.505,-1.592,-1.6194,-1.6466,-1.6752,-1.7076,-1.7353,-1.7666,-1.7867,-1.7947,-1.7787,-1.7544,-1.7188,-1.6752,-1.6565,-1.6534,-1.6534,-1.6534,-1.6534,-1.6534,-1.6534,-1.6436,-1.6337,-1.5832,-1.4698,-1.4272,-1.3643,-1.1913,-1.0965,-1.0261,-0.9814,-1.0312,-1.0669,-1.0415,-1.0754,-1.2083,-1.3168,-1.3852,-1.4215,-1.463,-1.4846,-1.5174,-1.5732,-1.6008,-1.6225,-1.6423,-1.6479,-1.6423,-1.6225,-1.6343,-1.6484,-1.6617,-1.6323,-1.4631,-1.2301,-0.9957,-0.8038,-0.6236,-0.4794,-0.392,-0.3304,-0.3525,-0.3159,-0.2292,-0.1965,-0.1731,-0.1205,-0.0752,-0.091,-0.0969,-0.0997,-0.1037,-0.0719,-0.0436,-0.0341,-0.0243,-0.0193,-0.0436,-0.0883,-0.1463,-0.2023,-0.2057,-0.2205,-0.2805,-0.3265,-0.3271,-0.3401,-0.8804,-0.8857,-0.9211,-0.9562,-0.9969,-1.0965,-1.1832,-1.2403,-1.2774,-1.2891,-1.2871,-1.2452,-1.2501,-1.2725,-1.2452,-1.251,-1.2881,-1.2891,-1.2891,-1.2891,-1.2891,-1.2891,-1.2929,-1.3152,-1.3467,-1.3815,-1.4307,-1.496,-1.5644,-1.6151,-1.6479,-1.6522,-1.6879,-1.7118,-1.7312,-1.7544,-1.768,-1.776,-1.768,-1.7463,-1.7076,-1.668,-1.6565,-1.6534,-1.6534,-1.6534,-1.6534,-1.6534,-1.6534,-1.6534,-1.6534,-1.6064,-1.5062,-1.4606,-1.3653,-1.2061,-1.1466,-1.0864,-1.0423,-1.0517,-1.0517,-1.0364,-1.0517,-1.1308,-1.1895,-1.2425,-1.3253,-1.3982,-1.4064,-1.4286,-1.5028,-1.5676,-1.6051,-1.6423,-1.6509,-1.6595,-1.6667,-1.6782,-1.7008,-1.7272,-1.6308,-1.4732,-1.2644,-1.0224,-0.8103,-0.6479,-0.5089,-0.3996,-0.3267,-0.2907,-0.2487,-0.1728,-0.1528,-0.1421,-0.0842,-0.0389,-0.0543,-0.0647,-0.0542,-0.0542,0.0,0.0,0.0,0.0,-0.0255,0.0,0.0,0.0,-0.1451,-0.1455,-0.1598,-0.2129,-0.2506,-0.2568,-0.2787,-0.8804,-0.8804,-0.8804,-0.9211,-0.9865,-1.0568,-1.1216,-1.1873,-1.2608,-1.2891,-1.2881,-1.2881,-1.2832,-1.2881,-1.2774,-1.2774,-1.2891,-1.2891,-1.2891,-1.2939,-1.2891,-1.2929,-1.3248,-1.3515,-1.3873,-1.4318,-1.4812,-1.541,-1.5776,-1.6194,-1.6534,-1.6534,-1.668,-1.6879,-1.7118,-1.7312,-1.7394,-1.7229,-1.7105,-1.6854,-1.668,-1.6522,-1.6534,-1.6534,-1.6534,-1.6534,-1.6534,-1.6534,-1.6534,-1.6534,-1.6436,-1.6151,-1.5287,-1.4457,-1.3226,-1.2511,-1.1981,-1.1375,-1.0973,-1.0914,-1.0618,-1.0568,-1.0661,-1.0661,-1.0897,-1.1349,-1.2239,-1.2831,-1.2908,-1.3658,-1.4448,-1.5318,-1.5915,-1.6544,-1.6951,-1.7216,-1.7504,-1.7733,-1.8062,-1.8034,-1.7182,-1.5526,-1.3449,-1.1083,-0.8378,-0.6806,-0.516,-0.3898,-0.3,-0.2375,-0.1824,-0.1235,-0.1253,-0.1099,-0.0559,-0.0251,-0.0305,-0.0306,0.0,0.0,0.0,0.0,0.0,0.0,0.0,0.0,0.0,0.0,0.0,-0.0847,-0.1067,-0.1473,-0.1724,-0.1776,-0.2068,-0.8804,-0.8804,-0.8804,-0.9211,-0.9858,-1.0517,-1.1157,-1.1864,-1.2559,-1.2891,-1.2891,-1.2891,-1.2891,-1.2891,-1.2891,-1.2891,-1.2891,-1.2891,-1.2891,-1.2978,-1.2978,-1.3286,-1.3552,-1.392,-1.4318,-1.5005,-1.5543,-1.5864,-1.6151,-1.6436,-1.6522,-1.6565,-1.671,-1.6951,-1.6795,-1.6993,-1.7063,-1.6837,-1.6484,-1.6441,-1.6423,-1.6479,-1.6534,-1.6534,-1.6534,-1.6522,-1.6522,-1.6565,-1.6522,-1.6534,-1.6534,-1.5932,-1.4971,-1.4236,-1.3447,-1.2803,-1.2461,-1.1891,-1.1225,-1.1015,-1.0762,-0.9747,-0.9444,-0.9644,-0.9997,-1.0458,-1.0965,-1.1458,-1.2083,-1.2984,-1.3964,-1.4925,-1.5922,-1.6676,-1.7422,-1.7866,-1.8335,-1.8763,-1.9097,-1.8579,-1.7896,-1.622,-1.416,-1.1679,-0.8987,-0.6749,-0.4751,-0.3287,-0.223,-0.1498,-0.1258,-0.0853,-0.1086,-0.0866,0.0,0.0,0.0,0.0,0.0,0.0,0.0,0.0,0.0,0.0,0.0,0.0,0.0,0.0,0.0,0.0,-0.0495,-0.0869,-0.0887,-0.0955,-0.1305,-0.8804,-0.8804,-0.8804,-0.9008,-0.9517,-1.0415,-1.1015,-1.1466,-1.2461,-1.2891,-1.2891,-1.2891,-1.2891,-1.2891,-1.2891,-1.2891,-1.2891,-1.2891,-1.3152,-1.3238,-1.3372,-1.3742,-1.405,-1.4411,-1.4903,-1.5543,-1.592,-1.6194,-1.6479,-1.6534,-1.6522,-1.6565,-1.6837,-1.6837,-1.6565,-1.6795,-1.6837,-1.6509,-1.6107,-1.6095,-1.6238,-1.6151,-1.6337,-1.6337,-1.6522,-1.6552,-1.6837,-1.6892,-1.6879,-1.6765,-1.6637,-1.5844,-1.5017,-1.4422,-1.3569,-1.2832,-1.2461,-1.2304,-1.1425,-1.0914,-1.0712,-0.9592,-0.8408,-0.8705,-0.8652,-0.9169,-0.9997,-1.0493,-1.1157,-1.2015,-1.3674,-1.479,-1.5966,-1.6912,-1.7612,-1.8182,-1.9075,-1.9882,-1.9913,-1.9561,-1.8559,-1.705,-1.4812,-1.212,-0.9561,-0.7465,-0.5345,-0.3219,-0.2057,-0.0948,-0.0605,-0.0219,-0.0332,0.0,0.0,0.0,0.0,0.0,0.0,0.0,0.0,0.0,0.0,0.0,0.0,0.0,0.0,0.0,0.0,0.0,0.0,-0.0195,0.0,0.0,0.0,-0.8804,-0.8811,-0.891,-0.8962,-0.9159,-1.0364,-1.0965,-1.1166,-1.2304,-1.2891,-1.2891,-1.2891,-1.2891,-1.2891,-1.2891,-1.2891,-1.2978,-1.3104,-1.3409,-1.3637,-1.3873,-1.4283,-1.4778,-1.5231,-1.5543,-1.582,-1.6194,-1.6337,-1.6491,-1.6534,-1.6534,-1.6534,-1.6534,-1.6534,-1.6534,-1.6534,-1.6522,-1.6423,-1.6238,-1.6051,-1.5908,-1.572,-1.5996,-1.6281,-1.6509,-1.6795,-1.7118,-1.7312,-1.7271,-1.7188,-1.6909,-1.6039,-1.5242,-1.4687,-1.3737,-1.2996,-1.2715,-1.2197,-1.1375,-1.0914,-1.0407,-0.9488,-0.8296,-0.7717,-0.7717,-0.8178,-0.9006,-1.0026,-1.0645,-1.1809,-1.3465,-1.5081,-1.6298,-1.745,-1.8129,-1.8821,-1.9913,-2.083,-2.0618,-2.0366,-1.914,-1.7719,-1.5502,-1.2782,-1.0507,-0.843,-0.6192,-0.4011,-0.2211,-0.1165,-0.0442,0.0331,0.0833,0.0,0.0,0.0,0.0,0.0,0.0,0.0,0.0,0.0,0.0,0.0,0.0,0.0,0.0,0.0,0.0,0.0,0.0,0.0,0.0,0.0,0.0,-0.8804,-0.885,-0.9361,-0.9614,-0.9814,-1.1015,-1.1616,-1.1724,-1.251,-1.2891,-1.2978,-1.2929,-1.2891,-1.2939,-1.2891,-1.2978,-1.3113,-1.3324,-1.3589,-1.3826,-1.4365,-1.4915,-1.532,-1.5644,-1.5908,-1.6194,-1.6392,-1.6479,-1.6565,-1.6522,-1.6522,-1.6565,-1.6522,-1.6522,-1.6522,-1.6522,-1.6479,-1.6436,-1.6194,-1.5964,-1.6281,-1.6139,-1.6008,-1.6151,-1.6238,-1.674,-1.716,-1.7312,-1.7585,-1.7626,-1.734,-1.6446,-1.5676,-1.496,-1.4111,-1.3321,-1.3045,-1.2236,-1.1566,-1.1015,-1.0356,-0.8954,-0.7859,-0.7235,-0.7331,-0.7682,-0.886,-1.0487,-1.1379,-1.256,-1.4189,-1.5985,-1.737,-1.8513,-1.939,-2.0081,-2.0943,-2.1197,-2.1165,-2.0684,-1.9932,-1.8507,-1.6967,-1.4429,-1.2063,-0.9869,-0.7359,-0.5077,-0.1981,-0.105,-0.0111,0.1055,0.2062,0.0,0.0,0.0,0.0,0.0,0.0,0.0,0.0,0.0,0.0,0.0,0.0,0.0,0.0,0.0,0.0,0.0,0.0,0.0,0.0,0.0,0.0]}]]